[[{"header":{"parameterUnit":"m.s-1","parameterCategory":1,"la1":30.6,"la2":29.2853,"lo1":-89.7004,"lo2":-87.6739,"dy":0.0162,"dx":0.0183,"nx":112,"ny":82,"refTime":"2026-03-05T12:00:00:Z","depth":0,"parameterNumber":2,"parameterNumberName":"U-component_of_WINDS"},"data":[0.0,0.0,0.0,0.0,0.0,0.0,0.0,0.0,0.0,0.0,0.0,0.0,0.0,0.0,0.0,0.0,0.0,0.0,0.0,0.0,0.0,0.0,0.0,0.0,0.0,0.0,0.0,0.0,0.0,0.0,0.0,0.0,0.0,0.0,0.0,0.0,0.0,0.0,0.0,0.0,0.0,0.0,0.0,0.0,0.0,0.0,0.0,0.0,0.0,0.0,0.0,0.0,0.0,0.0,0.0,0.0,0.0,0.0,0.0,0.0,0.0,0.0,0.0,0.0,0.0,0.0,0.0,0.0,0.0,0.0,0.0,0.0,0.0,0.0,0.0,0.0,0.0,0.0,0.0,0.0,0.0,0.0,0.0,0.0,0.0,0.0,0.0,0.0,0.0,0.0,-2.4933,-2.6239,-2.8976,-3.0733,-3.0733,-3.0156,-2.8373,-2.5001,0.0,0.0,0.0,0.0,0.0,0.0,0.0,0.0,0.0,0.0,0.0,0.0,0.0,0.0,0.0,0.0,0.0,0.0,0.0,0.0,0.0,0.0,0.0,0.0,0.0,0.0,0.0,0.0,0.0,0.0,0.0,0.0,0.0,0.0,0.0,0.0,0.0,0.0,0.0,0.0,0.0,0.0,0.0,0.0,0.0,0.0,0.0,0.0,0.0,0.0,0.0,0.0,0.0,0.0,0.0,0.0,0.0,0.0,0.0,0.0,0.0,0.0,0.0,0.0,0.0,0.0,0.0,0.0,0.0,0.0,0.0,0.0,0.0,0.0,0.0,0.0,0.0,0.0,0.0,0.0,0.0,0.0,0.0,0.0,0.0,0.0,0.0,0.0,0.0,0.0,0.0,0.0,0.0,0.0,0.0,0.0,0.0,0.0,0.0,0.0,0.0,0.0,0.0,0.0,-2.4531,-2.9352,-3.0708,-3.126,-3.126,-3.0357,-2.8373,-2.5001,0.0,0.0,0.0,0.0,0.0,0.0,0.0,0.0,0.0,0.0,0.0,0.0,0.0,0.0,0.0,0.0,0.0,0.0,0.0,0.0,0.0,0.0,0.0,0.0,0.0,0.0,0.0,0.0,0.0,0.0,0.0,0.0,0.0,0.0,0.0,0.0,0.0,0.0,0.0,0.0,0.0,0.0,0.0,0.0,0.0,0.0,0.0,0.0,0.0,0.0,0.0,0.0,0.0,0.0,0.0,0.0,0.0,0.0,0.0,0.0,0.0,0.0,0.0,0.0,0.0,0.0,0.0,0.0,0.0,0.0,0.0,0.0,0.0,0.0,0.0,0.0,0.0,0.0,0.0,0.0,0.0,0.0,0.0,0.0,0.0,0.0,0.0,0.0,0.0,0.0,0.0,0.0,0.0,0.0,0.0,0.0,0.0,0.0,0.0,0.0,0.0,0.0,0.0,-2.4079,-2.6214,-3.0557,-3.1512,-3.1712,-3.1411,-3.0683,-2.8699,-2.5026,-2.3446,0.0,0.0,0.0,0.0,0.0,0.0,0.0,0.0,0.0,0.0,0.0,0.0,0.0,0.0,0.0,0.0,0.0,0.0,0.0,0.0,0.0,0.0,0.0,0.0,0.0,0.0,0.0,0.0,0.0,0.0,0.0,0.0,0.0,0.0,0.0,0.0,0.0,0.0,0.0,0.0,0.0,0.0,0.0,0.0,0.0,0.0,0.0,0.0,0.0,0.0,0.0,0.0,0.0,0.0,0.0,0.0,0.0,0.0,0.0,0.0,0.0,0.0,0.0,0.0,0.0,0.0,0.0,0.0,0.0,0.0,0.0,0.0,0.0,0.0,0.0,0.0,0.0,0.0,0.0,0.0,0.0,0.0,0.0,0.0,0.0,0.0,0.0,0.0,0.0,0.0,0.0,0.0,0.0,0.0,0.0,0.0,0.0,0.0,0.0,0.0,0.0,0.0,-2.6826,-2.8485,-3.111,-3.2014,-3.2139,-3.1461,-3.0658,-2.8637,-2.5026,-2.3,0.0,0.0,0.0,0.0,0.0,0.0,0.0,0.0,0.0,0.0,0.0,0.0,0.0,0.0,0.0,0.0,0.0,0.0,0.0,0.0,0.0,0.0,0.0,0.0,0.0,0.0,0.0,0.0,0.0,0.0,0.0,0.0,0.0,0.0,0.0,0.0,0.0,0.0,0.0,0.0,0.0,0.0,0.0,0.0,0.0,0.0,0.0,0.0,0.0,0.0,0.0,0.0,0.0,0.0,0.0,0.0,0.0,0.0,0.0,0.0,0.0,0.0,0.0,0.0,0.0,0.0,0.0,0.0,0.0,0.0,0.0,0.0,0.0,0.0,0.0,0.0,0.0,0.0,0.0,0.0,0.0,0.0,0.0,0.0,0.0,0.0,0.0,0.0,0.0,0.0,0.0,0.0,0.0,0.0,0.0,0.0,0.0,0.0,0.0,0.0,0.0,0.0,-2.777,-3.0608,-3.1311,-3.2365,-3.2566,-3.1486,-2.9955,-2.7809,-2.4976,-2.2272,0.0,0.0,0.0,0.0,0.0,0.0,0.0,0.0,0.0,0.0,0.0,0.0,0.0,0.0,0.0,0.0,0.0,0.0,0.0,0.0,0.0,0.0,0.0,0.0,0.0,0.0,0.0,0.0,0.0,0.0,0.0,0.0,0.0,0.0,0.0,0.0,0.0,0.0,0.0,0.0,0.0,0.0,0.0,0.0,0.0,0.0,0.0,0.0,0.0,0.0,0.0,0.0,0.0,0.0,0.0,0.0,0.0,0.0,0.0,0.0,0.0,0.0,0.0,0.0,0.0,0.0,0.0,0.0,0.0,0.0,0.0,0.0,0.0,0.0,0.0,0.0,0.0,0.0,0.0,0.0,0.0,0.0,0.0,0.0,0.0,0.0,0.0,0.0,0.0,0.0,0.0,0.0,0.0,0.0,0.0,0.0,0.0,0.0,0.0,0.0,0.0,0.0,-2.7433,-3.003,0.0,-3.2089,-3.2215,-3.1461,-3.0532,-2.8461,-2.5001,0.0,0.0,0.0,0.0,0.0,0.0,0.0,0.0,0.0,0.0,0.0,0.0,0.0,0.0,0.0,0.0,0.0,0.0,0.0,0.0,0.0,0.0,0.0,0.0,0.0,0.0,0.0,0.0,0.0,0.0,0.0,0.0,0.0,0.0,0.0,0.0,0.0,0.0,0.0,0.0,0.0,0.0,0.0,0.0,0.0,0.0,0.0,0.0,0.0,0.0,0.0,0.0,0.0,0.0,0.0,0.0,0.0,0.0,0.0,0.0,0.0,0.0,0.0,0.0,0.0,0.0,0.0,0.0,0.0,0.0,0.0,0.0,0.0,0.0,0.0,0.0,0.0,0.0,0.0,0.0,0.0,0.0,0.0,0.0,0.0,0.0,0.0,0.0,0.0,0.0,0.0,0.0,0.0,0.0,0.0,0.0,0.0,0.0,0.0,0.0,0.0,0.0,-2.4499,-2.7659,-3.008,0.0,-3.1788,-3.1913,-3.121,-3.0181,-2.8197,-2.5001,0.0,0.0,0.0,0.0,0.0,0.0,0.0,0.0,0.0,0.0,0.0,0.0,0.0,0.0,0.0,0.0,0.0,0.0,0.0,0.0,0.0,0.0,0.0,0.0,0.0,0.0,0.0,0.0,0.0,0.0,0.0,0.0,0.0,0.0,0.0,0.0,0.0,0.0,0.0,0.0,0.0,0.0,0.0,0.0,0.0,0.0,0.0,0.0,0.0,0.0,0.0,0.0,0.0,0.0,0.0,0.0,0.0,0.0,0.0,0.0,0.0,0.0,0.0,0.0,0.0,0.0,0.0,0.0,0.0,0.0,0.0,0.0,0.0,0.0,0.0,0.0,0.0,0.0,0.0,0.0,0.0,0.0,0.0,0.0,0.0,0.0,0.0,0.0,0.0,0.0,0.0,0.0,0.0,0.0,0.0,0.0,0.0,0.0,0.0,0.0,0.0,0.0,-2.465,-2.8674,-3.1185,-3.0683,-3.1562,-3.1763,-3.0708,-2.8574,-2.659,0.0,0.0,0.0,0.0,0.0,0.0,0.0,0.0,0.0,0.0,0.0,0.0,0.0,0.0,0.0,0.0,0.0,0.0,0.0,0.0,0.0,0.0,0.0,0.0,0.0,0.0,0.0,0.0,0.0,0.0,0.0,0.0,0.0,0.0,0.0,0.0,0.0,0.0,0.0,0.0,0.0,0.0,0.0,0.0,0.0,0.0,0.0,0.0,0.0,0.0,0.0,0.0,0.0,0.0,0.0,0.0,0.0,0.0,0.0,0.0,0.0,0.0,0.0,0.0,0.0,0.0,0.0,0.0,0.0,0.0,0.0,0.0,0.0,0.0,0.0,0.0,0.0,0.0,0.0,0.0,0.0,0.0,0.0,0.0,0.0,0.0,0.0,0.0,0.0,0.0,0.0,0.0,0.0,0.0,0.0,0.0,0.0,0.0,0.0,0.0,0.0,0.0,0.0,-2.465,-2.8674,-3.1336,-3.1185,-3.1436,-3.1512,-3.1185,-2.9478,-2.7383,-2.4951,0.0,0.0,0.0,0.0,0.0,0.0,0.0,0.0,0.0,0.0,0.0,0.0,0.0,0.0,0.0,0.0,0.0,0.0,0.0,0.0,0.0,0.0,0.0,0.0,0.0,0.0,0.0,0.0,0.0,0.0,0.0,0.0,0.0,0.0,0.0,0.0,0.0,0.0,0.0,0.0,0.0,0.0,0.0,0.0,0.0,0.0,0.0,0.0,0.0,0.0,0.0,0.0,0.0,0.0,0.0,0.0,0.0,0.0,0.0,0.0,0.0,0.0,0.0,0.0,0.0,0.0,0.0,0.0,0.0,0.0,0.0,0.0,0.0,0.0,0.0,0.0,0.0,0.0,0.0,0.0,0.0,0.0,0.0,0.0,0.0,0.0,0.0,0.0,0.0,0.0,0.0,0.0,0.0,0.0,0.0,0.0,0.0,0.0,0.0,0.0,0.0,0.0,-2.4926,-2.88,-3.1386,-3.1386,-3.1587,-3.1537,-3.111,-2.9754,-2.7601,-2.4567,0.0,0.0,0.0,0.0,0.0,0.0,0.0,0.0,0.0,0.0,0.0,0.0,0.0,0.0,0.0,0.0,0.0,0.0,0.0,0.0,0.0,0.0,0.0,0.0,0.0,0.0,0.0,0.0,0.0,0.0,0.0,0.0,0.0,0.0,0.0,0.0,0.0,0.0,0.0,0.0,0.0,0.0,0.0,0.0,0.0,0.0,0.0,0.0,0.0,0.0,0.0,0.0,0.0,0.0,0.0,0.0,0.0,0.0,0.0,0.0,0.0,0.0,0.0,0.0,0.0,0.0,0.0,0.0,0.0,0.0,0.0,0.0,0.0,0.0,0.0,0.0,0.0,0.0,0.0,0.0,0.0,0.0,0.0,0.0,0.0,0.0,0.0,0.0,0.0,0.0,0.0,0.0,0.0,0.0,0.0,0.0,0.0,0.0,0.0,0.0,0.0,0.0,-2.5385,-2.895,-3.1361,-3.1461,-3.1913,-3.1813,-3.0783,-2.9565,-2.7481,-2.4168,0.0,0.0,0.0,0.0,0.0,0.0,0.0,0.0,0.0,0.0,0.0,0.0,0.0,0.0,0.0,0.0,0.0,0.0,0.0,0.0,0.0,0.0,0.0,0.0,0.0,0.0,0.0,0.0,0.0,0.0,0.0,0.0,0.0,0.0,0.0,0.0,0.0,0.0,0.0,0.0,0.0,0.0,0.0,0.0,0.0,0.0,0.0,0.0,0.0,0.0,0.0,0.0,0.0,0.0,0.0,0.0,0.0,0.0,0.0,0.0,-2.4506,0.0,0.0,0.0,0.0,0.0,0.0,0.0,0.0,0.0,0.0,0.0,0.0,0.0,0.0,0.0,0.0,0.0,0.0,0.0,0.0,0.0,0.0,0.0,0.0,0.0,0.0,0.0,0.0,0.0,0.0,0.0,0.0,0.0,0.0,0.0,0.0,0.0,0.0,0.0,0.0,0.0,-2.5335,-2.8624,-3.111,-3.1938,-3.2139,-3.1938,-3.1286,-2.9804,-2.8049,-2.6043,-2.2432,0.0,0.0,0.0,0.0,0.0,0.0,0.0,0.0,0.0,0.0,0.0,0.0,0.0,0.0,0.0,0.0,0.0,0.0,0.0,0.0,0.0,0.0,0.0,0.0,0.0,0.0,0.0,0.0,0.0,0.0,0.0,0.0,0.0,0.0,0.0,0.0,0.0,0.0,0.0,0.0,0.0,0.0,0.0,0.0,0.0,0.0,0.0,0.0,0.0,0.0,0.0,0.0,0.0,0.0,0.0,0.0,0.0,0.0,0.0,0.0,-2.5963,0.0,0.0,0.0,0.0,0.0,0.0,0.0,0.0,0.0,0.0,0.0,0.0,0.0,0.0,0.0,0.0,0.0,0.0,0.0,0.0,0.0,0.0,0.0,0.0,0.0,0.0,0.0,0.0,0.0,0.0,0.0,0.0,0.0,0.0,0.0,0.0,0.0,0.0,0.0,0.0,-2.5703,-2.83,-3.0597,-3.2449,-3.2616,-3.239,-3.1838,-3.0281,-2.8263,-2.5793,-2.2451,0.0,0.0,0.0,0.0,0.0,0.0,0.0,0.0,0.0,0.0,0.0,0.0,0.0,0.0,0.0,0.0,0.0,0.0,0.0,0.0,0.0,0.0,0.0,0.0,0.0,0.0,0.0,0.0,0.0,0.0,0.0,0.0,0.0,0.0,0.0,0.0,0.0,0.0,0.0,0.0,0.0,0.0,0.0,0.0,0.0,0.0,0.0,0.0,0.0,0.0,0.0,0.0,0.0,-2.8687,-2.9488,-3.0164,-3.0328,-3.0538,-3.076,-2.9454,-2.8948,-2.8938,-2.7494,0.0,0.0,0.0,0.0,0.0,0.0,0.0,0.0,0.0,0.0,0.0,0.0,0.0,0.0,0.0,0.0,0.0,0.0,0.0,0.0,0.0,0.0,0.0,0.0,-2.535,-2.5763,0.0,0.0,0.0,0.0,0.0,0.0,0.0,0.0,0.0,0.0,0.0,0.0,-2.5591,-2.7584,-2.9755,-3.24,-3.2735,-3.2603,-3.2223,-3.0809,-2.8576,-2.5399,-2.2754,-1.9786,0.0,0.0,0.0,0.0,0.0,0.0,0.0,0.0,0.0,0.0,0.0,0.0,0.0,0.0,0.0,0.0,0.0,0.0,0.0,0.0,0.0,0.0,0.0,0.0,0.0,0.0,0.0,0.0,0.0,0.0,0.0,0.0,-2.2719,-2.2869,0.0,0.0,0.0,0.0,0.0,0.0,0.0,0.0,0.0,0.0,0.0,0.0,0.0,-2.6486,-2.7544,-2.9488,-3.0221,-2.9862,-3.208,-3.2605,-3.1663,-3.2346,-3.2315,-3.1762,-3.2001,0.0,-2.9628,-2.89,0.0,0.0,0.0,0.0,0.0,0.0,0.0,0.0,0.0,0.0,0.0,0.0,0.0,0.0,0.0,0.0,0.0,0.0,0.0,0.0,0.0,0.0,-2.7199,-2.6066,-2.5972,-2.5801,0.0,-2.4007,-2.3127,-2.1021,-2.0945,0.0,0.0,0.0,0.0,0.0,0.0,0.0,-2.3618,-2.5916,-2.8287,-3.0654,-3.1225,-3.1646,-3.2181,-3.116,-2.9524,-2.7281,-2.4418,-2.1973,-2.017,-1.78,0.0,0.0,0.0,0.0,0.0,0.0,0.0,0.0,0.0,0.0,0.0,0.0,0.0,0.0,0.0,0.0,0.0,0.0,0.0,0.0,0.0,0.0,0.0,0.0,0.0,0.0,0.0,0.0,0.0,-2.2418,-2.3627,-2.3627,-2.3647,-2.3221,0.0,0.0,0.0,0.0,0.0,0.0,0.0,0.0,0.0,-2.431,-2.5459,-2.6735,-2.8151,-2.9116,-3.0011,-3.0832,-3.2228,-3.3337,-3.4098,-3.4486,-3.4438,-3.4122,-3.4359,-3.3196,-3.108,-3.0049,-2.8092,-2.5727,0.0,0.0,0.0,0.0,-2.4631,-2.4883,-2.6546,-2.6628,0.0,-2.5915,0.0,0.0,0.0,0.0,0.0,0.0,0.0,0.0,0.0,0.0,-2.8063,-2.6737,-2.6998,-2.702,-2.5263,-2.5282,-2.4835,0.0,-2.1858,-2.1377,-1.9197,0.0,0.0,0.0,0.0,-2.1495,-2.3601,-2.5609,-2.7661,-2.9915,-3.031,-3.0529,-3.0821,-2.9265,-2.7644,-2.621,-2.3831,-2.1807,-2.0329,-1.8666,-1.7252,0.0,0.0,0.0,0.0,0.0,0.0,0.0,0.0,0.0,0.0,0.0,0.0,0.0,0.0,0.0,0.0,0.0,0.0,0.0,0.0,0.0,0.0,0.0,0.0,0.0,0.0,0.0,0.0,-2.3853,-2.4732,-2.4431,-2.5029,-2.469,0.0,0.0,0.0,0.0,0.0,0.0,-2.3954,-2.5165,-2.5814,-2.5741,-2.6655,-2.7822,-2.9203,-2.9838,-3.0547,-3.1396,-3.2937,-3.424,-3.5292,-3.6033,-3.6186,-3.5805,-3.5446,-3.4285,-3.2532,-3.1065,-2.8965,-2.6664,-2.6257,-2.5492,-2.4683,-2.5554,-2.604,-2.6476,-2.8383,-2.8426,-2.7609,-2.7194,-2.6265,-2.4992,-2.3338,0.0,0.0,0.0,0.0,-2.5716,-2.6857,-2.7862,-2.8295,-2.7082,-2.7399,-2.7526,-2.5682,-2.5879,-2.5679,0.0,-2.2885,-2.2311,-2.0028,0.0,0.0,0.0,0.0,-2.1676,-2.3397,-2.4935,-2.6594,-2.8526,-2.8819,-2.9017,-2.9338,-2.7744,-2.6243,-2.5062,-2.3482,-2.185,-2.0312,-1.9494,-1.8539,-1.7369,0.0,0.0,0.0,0.0,0.0,0.0,0.0,0.0,0.0,0.0,0.0,0.0,0.0,0.0,0.0,0.0,0.0,0.0,0.0,0.0,0.0,0.0,0.0,0.0,0.0,0.0,0.0,0.0,0.0,-2.5636,-2.6481,0.0,0.0,0.0,0.0,-2.3054,-2.4866,-2.5503,-2.4409,-2.6239,-2.7344,-2.7483,-2.9785,-3.134,-3.2001,-3.4263,-3.4123,-3.1641,-3.5761,-3.6367,-3.3967,-3.6692,-3.7219,-3.5907,-3.4491,-3.387,-3.3742,-3.1962,-3.0322,-2.8807,-2.8253,-2.7701,-2.7261,-2.7855,-2.7656,-2.7291,-2.8569,-2.8545,-2.8172,-2.9299,-2.8608,-2.7173,-2.6623,-2.5622,0.0,0.0,-2.6512,-2.7261,-2.7184,-2.7604,-2.7862,-2.715,-2.6752,-2.6359,-2.5781,-2.5428,-2.4888,0.0,-2.4135,-2.3996,-2.241,0.0,-2.1074,-2.0886,-2.1029,-2.1368,-2.1961,-2.3122,-2.442,-2.5675,-2.6209,-2.693,-2.807,-2.7597,-2.6639,-2.5084,-2.4429,-2.3227,-2.1191,-2.0723,-2.0096,-1.918,-1.7506,0.0,0.0,0.0,0.0,0.0,0.0,0.0,0.0,0.0,0.0,0.0,0.0,0.0,0.0,0.0,0.0,0.0,0.0,0.0,0.0,0.0,0.0,0.0,0.0,0.0,0.0,0.0,0.0,-2.7795,-2.8363,0.0,-2.5887,-2.5409,-2.5284,-2.537,-2.6694,-2.7217,-2.6739,-2.7941,-2.8445,-2.8044,-2.9469,-3.0314,-3.0532,-3.1383,-3.1457,-3.073,-3.2222,-3.3083,-3.3406,-3.4371,-3.4588,-3.4098,-3.355,-3.2683,-3.1484,-3.0847,-3.0484,-3.0277,-2.9657,-2.8857,-2.8045,-2.8472,-2.8499,-2.8421,-2.9152,-2.9015,-2.8513,-2.8156,-2.7275,-2.6282,-2.6119,-2.5762,-2.5691,-2.6999,-2.7636,-2.7946,-2.8195,-2.9052,-2.937,-2.7461,-2.7532,-2.7801,-2.6783,-2.623,-2.5741,-2.5166,-2.4509,-2.3715,-2.2635,-2.2452,-2.2248,-2.165,-2.2316,-2.293,-2.3086,-2.44,-2.5427,-2.5897,-2.5771,-2.5864,-2.6302,-2.5268,-2.4229,-2.3461,-2.2975,-2.2268,-2.125,-2.0801,-2.0331,-1.9707,-1.8828,-1.7598,0.0,0.0,0.0,0.0,0.0,0.0,0.0,0.0,0.0,0.0,0.0,0.0,0.0,0.0,0.0,0.0,0.0,0.0,0.0,0.0,0.0,0.0,0.0,0.0,0.0,0.0,-2.8723,-2.8513,-2.9038,-2.8671,-2.6783,-2.6668,-2.6622,-2.6584,-2.7993,-2.863,-2.8145,-2.892,-2.9179,-2.8765,-2.9414,-2.9785,-2.9785,-3.0949,-3.1396,-3.1191,-3.2706,-3.38,-3.4604,-3.5101,-3.5343,-3.5288,-3.477,-3.3874,-3.2595,-3.1568,-3.1391,-3.165,-3.0401,-2.9427,-2.875,-2.9043,-2.9141,-2.918,-2.9473,-2.9375,-2.9004,-2.8144,-2.75,-2.6973,-2.6699,-2.6649,-2.6949,-2.7812,-2.8114,-2.8398,-2.9119,-2.9656,-2.9706,-2.8431,-2.831,-2.831,-2.7432,-2.6894,-2.6465,-2.6035,-2.5019,-2.3984,-2.3281,-2.3335,-2.3379,-2.2812,-2.3457,-2.4004,-2.4004,-2.4902,-2.5538,-2.5538,-2.5129,-2.4863,-2.4863,-2.3636,-2.2769,-2.2539,-2.2109,-2.1621,-2.1035,-2.0723,-2.0331,-1.9707,-1.9004,-1.7949,-1.6504,0.0,0.0,0.0,0.0,0.0,0.0,0.0,0.0,0.0,0.0,0.0,0.0,0.0,0.0,0.0,0.0,0.0,0.0,0.0,0.0,0.0,0.0,0.0,-2.6575,-2.7811,-2.851,-2.7934,-2.8602,-2.8223,-2.6078,-2.7253,-2.7721,-2.6565,-2.8696,-2.9586,-2.8374,-2.9141,-2.9646,-2.9646,-3.0,-3.0215,-3.0272,-3.3553,-3.4515,-3.3247,-3.753,-3.8792,-3.7477,-3.8921,-3.9594,-3.9465,-3.8031,-3.74,-3.7186,-3.4348,-3.3134,-3.288,-3.0542,-2.9665,-2.9665,-2.9665,-2.9665,-2.9665,-2.9665,-2.9646,-2.9702,-2.9646,-2.9646,-2.9525,-2.8628,-2.8613,-2.8769,-2.8002,-2.8114,-2.8674,-3.0037,-2.946,-2.8794,-3.0016,-2.903,-2.7832,-2.7728,-2.7344,-2.6914,-2.6504,-2.5771,-2.5028,-2.4531,-2.4453,-2.4453,-2.4453,-2.4453,0.0,-2.4453,-2.4453,-2.4453,-2.4453,-2.4082,-2.3828,-2.3809,-2.3027,-2.2519,-2.25,-2.209,-2.1465,-2.0644,-2.0586,-2.0194,-1.9316,-1.8086,-1.7044,-1.6144,0.0,0.0,0.0,0.0,0.0,0.0,0.0,0.0,0.0,0.0,0.0,0.0,0.0,0.0,0.0,0.0,0.0,0.0,0.0,0.0,0.0,-2.6691,-2.8247,-2.8247,-3.0353,-3.1736,-3.1392,-3.1124,-3.046,-2.9145,-2.8584,-2.8239,-2.8203,-2.9154,-2.9584,-2.9274,-2.9726,-3.0019,-3.0019,-3.0469,-3.1242,-3.2267,-3.324,-3.4013,-3.4681,-3.5945,-3.6271,-3.5945,-3.6325,-3.6511,-3.6511,-3.6054,-3.589,-3.5836,-3.5013,-3.4069,-3.2943,-3.1219,-3.0527,-3.0527,-3.0527,-3.0527,-3.0527,-3.0527,-3.1014,-3.1441,-3.0396,-3.0569,-3.0963,-2.9664,-2.9297,-2.9557,-3.0424,-3.0467,-3.0567,-3.2014,-3.2571,-3.2303,-3.0669,-3.0666,-3.0478,-2.8582,-2.7793,-2.7461,-2.7344,-2.6855,-2.625,-2.546,-2.5323,-2.5323,-2.5323,-2.5323,0.0,-2.5323,-2.5323,-2.5323,-2.5323,-2.498,-2.459,-2.4277,-2.3457,-2.2715,-2.209,-2.1388,-2.086,-2.0625,-2.0254,-1.998,-1.9746,-1.9102,-1.834,0.0,0.0,0.0,0.0,0.0,0.0,0.0,0.0,0.0,0.0,0.0,0.0,0.0,0.0,0.0,0.0,0.0,0.0,0.0,0.0,0.0,0.0,-2.885,-3.0593,-3.1521,-3.2593,-3.329,-3.341,-3.2406,-3.1538,-3.0979,-3.0224,-2.9613,-2.9235,-3.0183,-3.0478,-2.988,-3.0254,-3.0756,-3.1402,-3.1684,-3.2264,-3.3077,-3.4348,-3.5046,-3.5288,-3.6565,-3.7156,-3.7156,-3.7156,-3.7156,-3.7156,-3.7156,-3.678,-3.6217,-3.6217,-3.5343,0.0,0.0,0.0,0.0,0.0,-3.0898,-3.0898,-3.0898,-3.1701,-3.2455,-3.0985,-3.1728,-3.2843,-3.0538,-3.0701,-3.1725,-3.1755,-3.2041,-3.2599,-3.4005,-3.4171,-3.3627,-3.2594,-3.1878,-3.103,-2.946,-2.8509,-2.7871,-2.7748,-2.7461,0.0,-2.6387,-2.6083,-2.5957,-2.5713,-2.5693,-2.5693,-2.5693,-2.5693,-2.5693,-2.5693,-2.5332,-2.4961,-2.4707,-2.3686,0.0,0.0,0.0,-2.0684,-2.0312,-1.9883,0.0,0.0,0.0,0.0,0.0,0.0,0.0,0.0,-1.7656,-1.7525,0.0,0.0,0.0,0.0,0.0,0.0,0.0,0.0,0.0,0.0,0.0,0.0,0.0,0.0,0.0,0.0,-3.111,-3.3251,-3.5307,-3.477,-3.4173,-3.4308,-3.3138,-3.2146,-3.1885,-3.1885,-3.1381,-3.0099,-3.137,-3.1743,-3.0596,0.0,0.0,0.0,0.0,-3.3247,-3.3564,-3.6031,-3.6757,-3.5836,-3.8425,-3.9697,-3.9697,-3.9697,-3.9697,-3.9697,-3.9747,-3.9047,-3.7838,-3.7886,-3.7052,-3.5556,-3.3776,-3.2322,-3.1112,-3.0957,-3.0898,-3.0898,-3.0898,0.0,0.0,-3.1383,-3.2871,-3.4648,-3.1321,-3.2358,-3.4333,-3.2673,-3.3178,-3.4612,-3.5979,-3.5039,-3.3981,-3.4973,-3.2989,-3.0733,-3.038,-2.9355,-2.8396,-2.7865,-2.7787,-2.7598,-2.7168,-2.6738,-2.6309,-2.583,-2.5752,-2.5752,-2.5693,-2.5693,-2.5693,-2.5693,0.0,0.0,-2.5125,-2.3965,-2.3218,-2.3179,-2.2029,-2.0937,-2.0098,-1.9746,-1.9766,-2.0137,-2.0176,-2.0547,-2.1346,-2.1385,-2.168,-2.2031,-1.959,-1.9082,0.0,0.0,0.0,0.0,0.0,0.0,0.0,0.0,0.0,0.0,0.0,0.0,0.0,0.0,0.0,-3.0633,-3.3169,-3.5182,-3.6107,-3.7167,-3.6891,-3.4239,-3.4688,-3.4418,-3.2471,-3.2293,-3.235,-3.239,-3.1644,-3.1589,-3.2499,-3.2639,-3.336,-3.4847,-3.3733,-3.4236,-3.6649,-3.6054,-3.678,-3.8868,0.0,0.0,-3.9697,-3.9697,-3.9697,-3.9722,-4.0174,-4.0192,-3.9929,-4.0376,-3.9691,-3.8012,-3.4484,-3.2907,-3.253,-3.1325,-3.0898,-3.0898,-3.0898,-3.1883,-3.2851,-3.1383,-3.2871,-3.4736,-3.1667,-3.2782,0.0,-3.4714,-3.5352,-3.6526,-3.7935,-3.7691,-3.6749,-3.5517,-3.4728,-3.3513,-3.0858,-3.012,-2.9577,-2.8396,-2.8164,-2.8027,-2.7669,-2.7187,-2.6758,-2.6328,-2.6269,-2.6133,-2.5732,-2.5693,-2.5693,-2.5693,-2.5615,-2.5469,-2.5145,-2.4512,-2.4023,-2.3691,-2.2793,-2.1875,-2.0976,-2.125,-2.1426,-2.1504,-2.1836,-2.209,-2.2266,-2.2617,-2.3008,-2.3379,-2.1855,-2.1445,0.0,0.0,0.0,0.0,0.0,0.0,0.0,0.0,0.0,0.0,0.0,-2.6063,-2.7444,0.0,-3.121,-3.3169,-3.4876,-3.6358,-3.7487,-3.8341,-3.8288,-3.6566,-3.6578,-3.6291,-3.5102,-3.4307,-3.392,-3.4159,-3.3529,-3.3417,-3.4181,-3.4181,-3.4902,-3.6379,-3.5727,-3.5977,-3.7477,-3.7477,-3.8017,-3.9026,-3.976,-4.0249,-4.0526,-4.0526,-4.0526,-4.0526,-4.0749,-4.0874,-4.0899,-4.1175,-4.0873,-3.9849,-3.632,-3.444,-3.3691,-3.2977,-3.2056,-3.1211,-3.1211,-3.2006,-3.2851,-3.1383,-3.3417,-3.5836,-3.2928,-3.457,-3.737,-3.6595,-3.7287,-3.8398,-3.9117,-3.8868,-3.8216,-3.7293,-3.6323,-3.4906,-3.231,-3.1187,-3.0233,-2.8587,-2.8301,-2.8223,-2.8008,-2.7793,-2.7441,-2.6797,-2.6699,-2.6543,-2.6113,-2.6055,-2.5977,-2.5713,-2.5693,-2.5596,-2.543,-2.5,-2.4473,-2.3828,-2.3398,-2.2852,-2.2165,-2.2402,-2.266,-2.2832,-2.3047,-2.3262,-2.3457,-2.3691,-2.4004,-2.446,-2.3814,-2.3477,0.0,0.0,0.0,0.0,0.0,0.0,0.0,0.0,-2.421,-2.5335,-2.6926,-2.8574,-3.0131,-3.1763,-3.347,-3.5357,-3.6358,-3.736,-3.8718,-3.902,-3.907,-3.907,-3.8365,-3.7796,-3.753,-3.6433,-3.5727,-3.5727,-3.5453,-3.5398,-3.5727,-3.5727,-3.6379,-3.7849,-3.7732,-3.778,-3.807,-3.9062,-3.9332,-3.8918,-4.0096,-4.0849,-4.1275,-4.1275,-4.1275,-4.1275,-4.1275,-4.1275,-4.1275,-4.1275,-4.1275,-4.106,-3.8577,-3.6687,-3.5242,-3.4383,-3.3012,-3.1621,-3.1543,-3.2228,-3.3033,-3.173,-3.4125,-3.7026,-3.4348,-3.6433,-3.9413,-3.7902,-3.8582,-3.9697,-3.9697,-3.9371,-3.9045,-3.8944,-3.7712,-3.5958,-3.3805,-3.2381,-3.0895,-2.8832,-2.834,-2.8301,-2.8301,-2.8301,-2.8027,-2.7246,-2.7148,-2.6992,-2.6562,-2.6504,-2.6367,-2.5966,-2.5869,-2.5791,-2.5693,-2.541,-2.4863,-2.4082,-2.4043,-2.3848,-2.3354,-2.3398,-2.3658,-2.4023,-2.4043,-2.4258,-2.4621,-2.4766,-2.498,-2.538,-2.5458,-2.5215,-2.3914,-2.2647,-2.2455,-2.4108,-2.423,-2.4466,0.0,0.0,-2.7108,-2.8146,-2.9754,-3.1286,-3.2533,-3.4073,-3.5382,-3.6157,-3.7612,-3.8718,-3.8894,-3.9295,-3.9597,-3.9597,-3.9544,-3.8921,-3.7636,-3.7346,-3.724,-3.724,-3.6054,-3.589,-3.7186,-3.724,-3.7902,-3.9413,-3.865,-3.8838,-4.0137,-3.9485,-3.9807,-4.096,-4.1121,-4.1225,-4.1275,-4.1275,-4.1275,-4.1275,-4.1275,-4.1275,-4.1275,-4.1275,-4.1275,-4.1275,-4.0927,-3.9819,-3.7914,-3.3951,-3.2311,-3.2031,-3.166,-3.243,-3.3545,-3.3033,-3.4936,-3.7186,-3.5563,-3.721,-3.9413,-3.7902,-3.8582,-3.9697,-3.9697,-3.9647,-3.9471,-3.8994,-3.8717,-3.7708,-3.4409,-3.3354,-3.2137,-2.9391,-2.8555,-2.8301,-2.8301,-2.8301,-2.8125,-2.7708,-2.7598,-2.7441,-2.6992,-2.6953,-2.6934,-2.6875,-2.6543,-2.6152,-2.5732,-2.5635,-2.5449,-2.5008,-2.4969,-2.4727,-2.4297,-2.4277,-2.4473,-2.4969,-2.4969,-2.5137,-2.5538,-2.5977,-2.6191,-2.625,-2.6621,-2.6562,-2.5877,-2.426,-2.3374,-2.413,-2.4795,-2.5681,-2.7474,-2.8203,-2.9052,-3.0915,-3.235,-3.3571,-3.4374,-3.5604,-3.6684,0.0,-3.8191,-3.8994,-3.9295,-3.927,-3.922,-3.922,-3.8919,-3.8741,-3.8795,-3.8031,-3.7849,-3.8739,-3.7423,-3.721,-3.8687,-3.8792,-3.9226,-4.0149,-3.977,-4.0042,-4.0949,-4.0587,-4.0859,-4.1806,-4.1505,-4.1505,-4.1806,-4.148,-4.1275,-4.1275,-4.1275,-4.1275,-4.1275,-4.1275,-4.1275,-4.1222,-4.0281,-3.9465,-3.8554,-3.5823,-3.406,-3.3046,-3.2863,-3.3025,-3.3443,-3.4134,-3.5781,-3.7346,-3.6757,-3.8031,-3.9569,-3.8973,-3.9233,-3.9697,-3.9697,-3.9697,-3.9647,-3.9396,-3.9346,-3.8658,-3.609,-3.4765,-3.3237,-3.0698,-2.9345,-2.8574,-2.834,-2.8301,-2.8242,-2.8066,-2.8027,-2.7871,-2.7441,-2.7402,-2.7305,-2.7051,-2.6855,-2.668,-2.6454,-2.6484,-2.6406,-2.6211,-2.6211,-2.6113,-2.5937,-2.5937,-2.6016,-2.6191,-2.6211,-2.6289,-2.6484,-2.666,-2.6758,-2.6758,-2.6934,-2.7051,-2.6293,-2.5099,-2.437,-2.4487,-2.6057,-2.7704,-2.8352,-2.9603,-3.1129,-3.2882,-3.415,-3.5082,-3.568,-3.6533,-3.7362,-3.7914,-3.8492,-3.912,-3.9622,-3.922,-3.8869,-3.8642,-3.814,-3.809,-3.8919,-3.8347,-3.8359,-3.962,-3.8687,-3.8582,-3.9645,-3.9848,-4.0099,-4.0501,-4.0651,-4.0874,-4.1275,-4.1275,-4.153,-4.1932,-4.153,-4.1555,-4.1907,-4.153,-4.12,-4.105,-4.105,-4.0974,-4.0824,-4.0824,-4.0824,-4.0718,-3.9545,-3.9086,-3.8923,-3.7465,-3.5878,-3.4496,-3.4368,-3.4375,-3.4612,-3.5608,-3.6865,-3.8137,-3.8137,-3.8844,-3.9697,-3.9697,-3.9697,-3.9697,-3.9697,-3.9697,-3.9697,-3.9697,-3.9697,-3.9185,-3.7421,-3.5911,-3.4336,-3.2273,-3.0467,-2.9206,-2.8907,-2.8548,-2.8441,-2.8794,-2.8847,-2.8589,-2.7924,-2.7885,-2.7676,-2.7246,-2.7187,-2.7148,-2.7031,-2.7012,-2.7012,-2.7012,-2.7012,-2.7012,-2.7012,-2.7012,-2.7012,-2.7012,-2.7012,-2.7012,-2.7012,-2.7129,-2.7187,-2.7207,-2.7305,-2.7539,-2.4049,-2.4181,-2.4732,-2.5628,-2.8575,-3.1006,-3.0148,-3.1912,-3.3767,-3.3693,-3.4617,-3.5633,-3.6279,-3.6857,-3.7362,-3.7914,-3.8492,-3.912,-3.9622,-3.922,-3.8668,-3.809,-3.7538,-3.7236,0.0,-3.8241,-3.912,-3.9647,-3.9645,-3.9645,-3.9697,-4.0199,-4.0501,-4.0526,-4.0974,-4.1275,-4.1275,-4.1275,-4.13,-4.13,-4.13,-4.13,-4.13,-4.13,-4.1,-4.0551,-4.0551,-4.0249,-3.9747,-3.9747,-3.9747,-3.9747,-3.9696,-3.9696,-3.9515,-3.8003,-3.7081,-3.6426,-3.6015,-3.6763,-3.7902,-3.7566,-3.8425,-3.9645,-3.9645,-3.9645,-3.9697,-3.9697,-3.9697,-3.9697,-3.9697,-3.9697,-3.9697,-3.9697,-3.9697,-3.9285,-3.7772,-3.6697,-3.5498,-3.3997,-3.1832,-3.0224,-3.0224,-2.9164,-2.8741,-3.0068,-3.0224,-2.9755,-2.8422,-2.8281,-2.8105,-2.7748,-2.7708,-2.748,-2.7051,-2.7012,-2.7012,-2.7012,-2.7012,-2.7012,-2.7012,-2.7012,-2.7012,-2.7012,-2.7012,-2.7012,-2.7012,-2.7441,-2.7708,-2.7708,-2.8066,-2.8262,-2.592,-2.5808,-2.5884,-2.7942,-2.9826,-3.1366,-3.223,-3.3386,-3.4481,-3.5322,-3.55,-3.5558,-3.578,-3.6257,-3.681,-3.7362,-3.8241,-3.912,-3.9622,-3.922,-3.8517,-3.7563,-3.7287,0.0,0.0,0.0,0.0,-3.9069,-3.9145,-3.9295,-3.9672,-3.9873,-4.0149,-4.0501,-4.0701,-4.0924,-4.1275,-4.1275,-4.1275,-4.1275,-4.0924,-4.0601,-4.0249,-4.0249,-4.0149,-3.9973,-3.9973,-3.9873,-3.9697,-3.9697,-3.9697,-3.9697,-3.9697,-3.9697,-3.9645,-3.9129,-3.8827,-3.8484,-3.7355,-3.7284,-3.7851,-3.8684,-3.931,-3.9697,-3.9697,-3.9697,-3.9697,-3.9697,-3.9697,-3.9697,-3.9697,-3.9697,-3.9697,-3.9697,-3.9697,-3.9569,-3.9077,-3.7899,-3.6664,-3.5512,-3.3853,-3.2389,-3.1732,-3.1265,-3.1133,-3.1571,-3.0876,-3.0172,-2.9723,-2.8847,-2.8242,-2.8105,-2.8086,-2.8027,-2.7871,-2.7871,-2.7871,-2.7871,-2.7871,-2.7871,-2.7871,-2.7871,-2.7871,-2.7871,-2.7871,-2.7871,-2.7871,-2.8008,-2.8086,-2.8086,-2.8223,-2.8301,-2.7696,-2.7949,-2.8119,-3.0008,-3.1574,-3.2818,-3.3743,-3.439,-3.4989,-3.5665,-3.5328,-3.4856,-3.47,-3.4776,-3.5253,-3.6408,-3.7211,-3.809,-3.9245,-3.8919,-3.8216,-3.7287,-3.701,-3.6684,0.0,0.0,0.0,-3.8818,-3.8919,-3.912,-3.9672,-3.9873,-4.0149,-4.0501,-4.0526,-4.0701,-4.1,-4.0799,-4.0752,-4.0752,-4.04,-4.0049,-3.9697,-3.9697,-3.9697,-3.9697,-3.9697,-3.9697,-3.9697,-3.9697,-3.9697,-3.9697,-3.9697,-3.9697,-3.9697,-3.9697,-3.9697,-3.9569,-3.8635,-3.8295,-3.8453,-3.9413,-3.9697,-3.9697,-3.9697,-3.9697,-3.9697,-3.9697,-3.9697,-3.9697,-3.9697,-3.9697,-3.9697,-3.9697,-3.9697,-3.9697,-3.9697,-3.8652,-3.7518,-3.6814,-3.5243,-3.381,-3.317,-3.3055,-3.3055,-3.3055,-3.2353,-3.1593,-3.1081,-2.9859,-2.9006,-2.9006,-2.8601,-2.8301,-2.8301,-2.8301,-2.8301,-2.8301,-2.8301,-2.8301,-2.8301,-2.8301,-2.8301,-2.8301,-2.8301,-2.8301,-2.8301,-2.8301,-2.8301,-2.8301,-2.8301,-2.8379,-2.9308,-3.0457,-3.128,-3.1817,-3.3768,-3.5332,-3.4631,-3.4962,-3.5282,-3.4705,-3.4148,-3.3571,0.0,0.0,-3.2893,-3.5031,-3.5483,-3.6335,-3.8567,-3.8417,-3.7889,0.0,0.0,0.0,0.0,0.0,0.0,-3.8793,0.0,-3.9069,-3.9672,-4.0199,-4.0475,-4.0475,-4.0475,-4.0475,-4.0475,-3.9948,-3.9697,-3.9697,-3.9697,-3.9697,-3.9697,-3.9697,-3.9697,-3.9697,-3.9697,-3.9697,-3.9697,-3.9697,-3.9697,-3.9697,-3.9697,-3.9697,-3.9697,-3.9697,-3.9697,-3.9697,-3.9697,-3.9697,-3.9697,-3.9697,-3.9697,-3.9697,-3.9697,-3.9697,-3.9697,-3.9697,-3.9697,-3.9697,-3.9697,-3.9697,-3.9697,-3.9697,-3.9697,-3.9697,-3.9697,-3.8843,-3.809,-3.8065,-3.6137,-3.4507,-3.4483,-3.4483,-3.4483,-3.4483,-3.4483,-3.397,-3.2582,-3.1235,-3.0411,-3.0411,-2.925,-2.8495,-2.8388,-2.8388,-2.8388,-2.8301,-2.8301,-2.8301,-2.8301,-2.8301,-2.8301,-2.8301,-2.8301,-2.8301,-2.8301,-2.8301,-2.8301,-2.8301,-2.832,-2.8535,-3.1976,-3.2897,-3.3358,-3.482,-3.5707,-3.5987,-3.5385,-3.5052,-3.465,-3.3696,-3.2416,-3.1286,0.0,0.0,0.0,-3.347,-3.5429,0.0,-3.8668,-3.9094,0.0,-3.7914,0.0,-3.7888,-3.686,-3.6885,0.0,0.0,-3.8467,-3.8668,-3.9647,-3.9823,-3.9898,-3.9898,-3.9898,-3.9898,-3.9898,-3.9772,-3.9697,-3.9697,-3.9697,-3.9697,-3.9697,-3.9697,-3.9697,-3.9697,-3.9697,-3.9697,-3.9697,-3.9697,-3.9697,-3.9697,-3.9697,-3.9697,-3.9697,-3.9697,-3.9697,-3.9697,-3.9697,-3.9697,-3.9697,-3.9697,-3.9697,-3.9697,-3.9697,-3.9697,-3.9697,-3.9697,-3.9697,-3.9697,-3.9697,-3.9697,-3.9697,-3.9697,-3.9697,-3.9697,-3.9697,-3.9471,-3.9145,-3.8718,-3.7493,-3.6354,-3.5932,-3.5906,-3.5906,-3.5906,-3.5906,-3.5403,-3.4019,-3.2655,-3.1774,-3.1774,-3.1469,-3.0876,-2.9859,-2.9807,-2.9355,-2.8335,-2.8301,-2.8301,-2.8301,-2.8301,-2.8301,-2.8301,-2.8301,-2.8301,-2.8301,-2.8301,-2.8301,-2.8301,-2.8613,-2.8809,-3.3895,-3.4721,-3.5131,-3.6141,-3.6405,-3.6128,-3.5052,-3.4399,-3.347,-3.1637,-3.0331,-2.9277,-2.8473,-2.9227,0.0,0.0,0.0,0.0,-3.8241,-3.8768,-3.8818,0.0,-3.8668,0.0,-3.7638,-3.7789,-3.8191,0.0,-3.8341,-3.8492,-3.9647,-3.9697,-3.9697,-3.9697,-3.9697,-3.9697,-3.9697,-3.9697,-3.9697,-3.9697,-3.9697,-3.9697,-3.9697,-3.9697,-3.9697,-3.9697,0.0,-3.9697,-3.9697,-3.9697,-3.9697,-3.9697,-3.9697,-3.9697,-3.9697,-3.9697,-3.9697,-3.9697,-3.9697,-3.9697,-3.9697,-3.9697,-3.9697,-3.9697,-3.9697,-3.9697,-3.9697,-3.9697,-3.9697,-3.9697,-3.9697,-3.9697,-3.9697,-3.9697,-3.9697,-3.9697,-3.9697,-3.9496,-3.917,-3.8592,-3.799,-3.7362,-3.6857,-3.6782,-3.6681,-3.6455,-3.6405,-3.6121,-3.5379,-3.4068,-3.3005,-3.2381,-3.1774,-3.0961,-2.9778,-2.9693,-2.9393,-2.8628,-2.875,-2.8769,-2.8574,-2.875,-2.8848,-2.8848,-2.8848,-2.8848,-2.8848,-2.8848,-2.8848,-2.8867,-2.9101,-2.9297,-3.5182,-3.6006,-3.6405,-3.6405,-3.6355,-3.583,-3.4173,-3.3244,-3.1964,-2.9176,0.0,-2.7369,-2.6348,-2.7092,-2.8624,-3.0909,0.0,-3.4851,-3.7613,-3.8065,-3.8341,-3.8969,-3.902,-3.8768,-3.8291,-3.8617,-3.8944,-3.8969,-3.8442,-3.8592,-3.9647,-3.9697,-3.9697,-3.9697,-3.9697,-3.9697,-3.9697,-3.9697,-3.9697,-3.9697,-3.9697,-3.9697,-3.9697,-3.9697,-3.9697,-3.9697,-3.9697,-3.9697,-3.9697,-3.9697,-3.9697,-3.9697,-3.9697,-3.9697,-3.9697,-3.9697,-3.9747,-3.9798,-3.9798,-3.9848,-3.9898,-3.9747,-3.9697,-3.9697,-3.9697,-3.9697,-3.9697,-3.9697,-3.9697,-3.9697,-3.9697,-3.9697,-3.9697,-3.9697,-3.9697,-3.9697,-3.9697,-3.932,-3.8818,-3.8241,-3.8115,-3.7939,-3.7387,-3.7287,-3.7136,-3.6707,-3.6556,-3.6505,-3.6505,-3.5428,-3.4239,-3.3074,-3.1869,-3.0652,-2.9553,-2.9391,-2.9189,-2.8828,-2.918,-2.9258,-2.8926,-2.9277,-2.9567,-2.9626,-2.9626,-2.9626,-2.9626,-2.9626,-2.9626,-2.9626,-2.9629,-2.9844,-3.5881,-3.6329,-3.6405,-3.6405,-3.6031,-3.5253,-3.3596,-3.2089,0.0,0.0,-2.6088,-2.5184,-2.4556,-2.5745,-2.7656,-3.0306,-3.2516,-3.4851,-3.7613,-3.8417,-3.8919,0.0,-3.9546,-3.9521,-3.9421,-3.9069,0.0,0.0,-3.9044,-3.8994,-3.9672,-3.9697,-3.9697,-3.9697,-3.9697,-3.9697,-3.9697,-3.9697,-3.9697,-3.9697,-3.9697,-3.9697,-3.9697,-3.9697,-3.9697,-3.9697,-3.9697,0.0,-3.9697,-3.9697,-3.9697,-3.9697,-3.9697,-3.9697,-3.9697,-3.9697,-3.9973,-4.0375,-4.0375,-4.0676,-4.0902,-3.9998,-3.9697,-3.9697,-3.9697,-3.9697,-3.9697,-3.9697,-3.9697,-3.9697,-3.9697,-3.9697,-3.9697,-3.9697,-3.9697,-3.9697,-3.9697,-3.9622,-3.9396,-3.8818,-3.8718,-3.8542,-3.7965,-3.7864,-3.7839,-3.7739,-3.7337,-3.7036,-3.7036,-3.6491,-3.6127,-3.6332,-3.5769,-3.4552,-3.2635,-3.1994,-3.0745,-2.8559,-2.8476,-2.8633,-2.8906,-2.8984,-2.9199,-2.957,-2.9626,-2.9626,-2.9626,-2.9626,-2.9626,-2.9626,-2.9922,-3.0137,-3.6103,-3.6405,-3.6405,-3.6405,-3.573,-3.448,-3.2315,0.0,0.0,0.0,-2.4079,-2.3427,-2.3175,-2.4481,0.0,-2.89,-3.0683,-3.2918,-3.621,-3.696,0.0,-3.9094,-3.9521,-3.9697,0.0,-3.9446,-3.9396,-3.9672,-3.9446,-3.9421,-3.9672,-3.9697,-3.9697,-3.9697,-3.9697,-3.9697,-3.9697,-3.9697,-3.9697,-3.9697,-3.9697,-3.9697,-3.9697,-3.9697,-3.9697,-3.9697,-3.9697,0.0,-3.9697,-3.9697,-3.9697,-3.9697,-3.9697,-3.9697,-3.9722,-4.0023,-4.03,-4.0551,-4.0852,-4.1075,-4.12,-4.0727,-4.0551,-4.0551,-4.0551,-4.0551,-4.0551,-4.0551,-4.035,-4.0124,-4.0124,-3.9898,-3.9697,-3.9697,-3.9697,-3.9697,-3.9697,-3.9697,-3.9622,-3.9346,-3.9295,-3.912,-3.8567,-3.8467,-3.8341,-3.804,-3.7789,-3.7613,-3.7613,-3.7387,-3.6844,-3.5844,-3.5526,-3.4723,-3.3202,-3.2367,-3.1391,-3.0099,-2.9818,-2.9629,-2.959,-2.9824,-3.0039,-3.0254,-3.0254,-3.0254,-3.0254,-3.0254,-3.0254,-3.0273,-3.0469,-3.0547,-3.6179,-3.6405,-3.6405,-3.6405,-3.5454,-3.3847,-3.121,-2.9126,0.0,-2.3597,-2.2493,-2.2171,-2.2297,0.0,-2.5227,0.0,-2.895,-3.0959,-3.4781,-3.5533,-3.6508,0.0,-3.9346,0.0,-3.9697,-3.9697,0.0,-3.9697,-3.9697,0.0,-3.9697,-3.9697,-3.9697,-3.9697,-3.9697,-3.9697,-3.9697,-3.9697,-3.9697,-3.9697,-3.9697,-3.9697,-3.9697,-3.9697,-3.9697,-3.9697,-3.9697,0.0,0.0,-3.9697,-3.9697,-3.9697,-3.9697,-3.9772,-3.9923,-4.035,-4.0651,-4.0927,-4.1354,-4.1605,-4.1626,-4.1626,-4.1476,-4.1275,-4.1275,-4.1275,-4.1275,-4.1275,-4.0974,-4.0701,-4.0701,-4.0375,-4.0023,-3.9898,-3.9772,-3.9697,-3.9697,-3.9697,-3.9697,-3.9697,-3.9697,-3.9546,-3.912,-3.9095,-3.8894,-3.8442,-3.8266,-3.8191,-3.8191,-3.809,-3.727,-3.5355,-3.5161,-3.4714,-3.3561,-3.2889,-3.2384,-3.1976,-3.1676,-3.1308,-3.0707,-3.1045,-3.1129,-3.0879,-3.0898,-3.0898,-3.0898,-3.0898,-3.0898,-3.0898,-3.0898,-3.0898,-3.638,-3.6405,-3.6405,-3.6405,-3.5152,-3.3395,-3.1135,0.0,-2.5845,-2.2975,-2.1945,-2.1719,-2.2221,-2.2819,0.0,0.0,0.0,-3.0317,-3.4204,-3.568,-3.696,-3.8668,0.0,0.0,-3.9697,-3.9697,0.0,-3.9697,-3.9697,0.0,-3.9697,-3.9697,-3.9697,-3.9697,-3.9697,-3.9697,-3.9697,-3.9697,-3.9697,-3.9697,-3.9697,-3.9697,-3.9697,-3.9697,-3.9697,-3.9697,-3.9697,0.0,0.0,-3.9697,-3.9697,-3.9697,-3.9697,-3.9998,-4.045,-4.0501,-4.1153,-4.2062,-4.2112,-4.2464,-4.2836,-4.2836,-4.2158,-4.1275,-4.1275,-4.1275,-4.1275,-4.1275,-4.125,-4.12,-4.12,-4.1175,-4.1,-4.0551,-4.0049,-3.9697,-3.9697,-3.9697,-3.9697,-3.9697,-3.9697,-3.9672,-3.9622,-3.9622,-3.9597,-3.9546,-3.912,-3.8844,-3.8844,-3.8341,-3.7915,-3.7716,-3.7642,-3.6949,-3.5146,-3.5395,-3.4853,-3.3131,-3.3495,-3.3246,-3.2253,-3.226,-3.1835,-3.0937,-3.0898,-3.0898,-3.0898,-3.0898,-3.0898,-3.0898,-3.0898,-3.0898,-3.5604,-3.6107,-3.6329,-3.5956,-3.4625,-3.2742,-3.0181,-2.7469,-2.4782,-2.2322,-2.1091,-2.074,-2.1644,-2.1995,-2.3125,0.0,0.0,0.0,-3.126,-3.2692,-3.4248,-3.6584,-3.7939,0.0,0.0,0.0,-3.9697,-3.9697,-3.9697,0.0,-3.9697,-3.9697,-3.9697,-3.9697,-3.9697,-3.9697,-3.9697,-3.9697,-3.9697,-3.9697,-3.9697,-3.9697,-3.9697,-3.9697,-3.9697,-3.9697,-3.9697,0.0,0.0,-3.9697,-3.9697,-3.9697,-3.9697,-4.0023,-4.0551,-4.0824,-4.1505,-4.2263,-4.259,-4.2785,-4.2986,-4.2986,-4.2685,-4.2333,-4.2333,-4.2333,-4.2333,-4.2333,-4.2082,-4.1831,-4.1831,-4.158,-4.1225,-4.1025,-4.0852,-4.0601,-4.0249,-4.0199,-4.0099,-3.9747,-3.9697,-3.9697,-3.9697,-3.9697,-3.9697,-3.9697,-3.9496,-3.9371,-3.9371,-3.917,-3.8894,-3.8567,-3.8216,-3.7717,-3.6973,-3.6609,-3.5694,-3.4019,-3.4468,-3.3813,-3.16,-3.2375,-3.2231,-3.0937,-3.0898,-3.0898,-3.0898,-3.0898,-3.0898,-3.0898,-3.0898,-3.0898,-3.4906,-3.583,-3.6279,-3.5633,-3.4173,-3.2139,-2.949,-2.6631,-2.3979,-2.192,-2.0589,-2.0137,-2.1267,-2.1493,-2.2297,-2.4732,0.0,-2.6163,-2.9352,-3.0708,-3.2365,0.0,0.0,-3.7713,0.0,-3.9396,-3.9697,-3.9697,-3.9697,0.0,-3.9697,-3.9697,-3.9697,-3.9697,-3.9697,-3.9697,-3.9697,-3.9697,-3.9697,-3.9697,-3.9697,-3.9697,-3.9697,-3.9697,-3.9697,-3.9697,-3.9697,0.0,0.0,-3.9697,-3.9697,-3.9697,-3.9697,-4.0124,-4.0802,-4.115,-4.1781,-4.2514,-4.2836,-4.2986,-4.2986,-4.2986,-4.2986,-4.2986,-4.2986,-4.2986,-4.2986,-4.2986,-4.2766,-4.2464,-4.2464,-4.1982,-4.158,-4.158,-4.1401,-4.1175,-4.0852,-4.0752,-4.0651,-4.0249,-4.0174,-4.0174,-4.0174,-4.0049,-3.9948,-3.9948,-3.9798,-3.9697,-3.9697,-3.9697,-3.9546,-3.917,-3.8743,-3.8366,-3.804,-3.7757,-3.7068,-3.5776,-3.6263,-3.5288,-3.2322,-3.3191,-3.2871,-3.0937,-3.0898,-3.0898,-3.0898,-3.0898,-3.0898,-3.0898,-3.0898,-3.0898,-3.4575,-3.5529,-3.6279,-3.5633,-3.3828,-3.1637,-2.9389,-2.6355,-2.3527,-2.1845,-2.0589,-2.0137,-2.1267,-2.1493,-2.2046,-2.3728,-2.4908,0.0,-2.9402,-3.0708,-3.2215,0.0,0.0,-3.5959,-3.7111,-3.8718,-3.9697,-3.9697,-3.9697,0.0,-3.9697,-3.9697,-3.9697,-3.9697,-3.9697,-3.9697,-3.9697,-3.9697,-3.9697,-3.9697,-3.9697,-3.9697,-3.9697,-3.9697,-3.9697,-3.9697,0.0,0.0,0.0,-3.9697,-3.9697,-3.9697,-3.9697,-4.0375,-4.1275,-4.1275,-4.2032,-4.2961,-4.2986,-4.2986,-4.2986,-4.2986,-4.2986,-4.2986,-4.2986,-4.2986,-4.2986,-4.2986,-4.2961,-4.2961,-4.2961,-4.2615,-4.2213,-4.2213,-4.1731,-4.1275,-4.1275,-4.1275,-4.1275,-4.1275,-4.1275,-4.1275,-4.1275,-4.0824,-4.0501,-4.0501,-4.0049,-3.9697,-3.9697,-3.9697,-3.9697,-3.9697,-3.9672,-3.922,-3.809,-3.9044,-3.9446,-3.8894,-3.9345,-3.8319,-3.5398,-3.5288,-3.3923,-3.0957,-3.0898,-3.0898,-3.0898,-3.0898,-3.0898,-3.0898,-3.0898,-3.0898,-3.121,-3.2416,-3.3219,-3.1938,-3.1085,-2.998,-2.7745,-2.5561,-2.3527,-2.1873,-2.0589,-2.0037,-2.0817,-2.127,-2.2272,-2.4707,-2.5711,0.0,0.0,0.0,0.0,-3.3997,-3.6659,-3.8517,0.0,0.0,-3.9697,-3.9697,-3.9697,0.0,-3.9697,-3.9697,-3.9697,-3.9697,-3.9697,-3.9697,-3.9697,-3.9697,-3.9697,-3.9697,-3.9697,-3.9697,-3.9697,-3.9697,-3.9697,0.0,0.0,0.0,0.0,-3.9697,-3.9697,-3.9697,-3.9697,-4.0375,-4.1275,-4.1275,-4.2032,-4.2986,-4.2986,-4.2986,-4.2986,-4.2986,-4.2986,-4.2986,-4.2986,-4.2986,-4.2986,-4.2986,-4.2986,-4.2986,-4.2986,-4.2836,-4.2766,-4.2766,-4.2585,-4.2359,-4.1982,-4.1907,-4.1781,-4.1351,-4.1275,-4.1275,-4.1275,-4.115,-4.1025,-4.1025,-4.0601,-4.0249,-4.0249,-3.9923,-3.9697,-3.9697,-3.9697,-3.9546,-3.9195,-3.9496,-3.9235,-3.8,-3.903,-3.8372,-3.5398,-3.6271,-3.5431,-3.2473,-3.2416,-3.194,-3.0898,-3.0898,-3.0898,-3.0898,-3.0898,-3.0898,-2.8976,-3.0507,-3.1361,-3.0357,-2.9628,-2.8624,-2.6625,-2.4707,-2.2949,-2.1521,-2.0439,-1.9987,-2.0591,-2.0968,-2.187,-2.4004,-2.5008,0.0,0.0,0.0,0.0,-3.4299,0.0,0.0,0.0,-3.9446,-3.9697,-3.9697,-3.9697,-3.9697,-3.9697,-3.9697,-3.9697,-3.9697,-3.9697,-3.9697,-3.9697,-3.9697,-3.9697,-3.9697,-3.9697,-3.9697,-3.9697,-3.9697,-3.9697,0.0,0.0,0.0,0.0,-3.9697,-3.9697,-3.9697,-3.9697,-4.0375,-4.1275,-4.1275,-4.2032,-4.2986,-4.2986,-4.2986,-4.2986,-4.2986,-4.2986,-4.2986,-4.2986,-4.2986,-4.2986,-4.2986,-4.2986,-4.2986,-4.2986,-4.2986,-4.2986,-4.2986,-4.2986,-4.2886,-4.259,-4.2514,-4.2359,-4.2032,-4.1957,-4.1957,-4.1957,-4.1781,-4.1656,-4.1656,-4.1178,-4.0774,-4.0774,-4.0526,-4.0249,-4.0023,-3.9998,-3.9923,-3.9722,-3.9697,-3.931,-3.84,-3.9181,-3.8635,-3.6217,-3.7026,-3.6379,-3.3957,-3.3901,-3.3191,-3.171,-3.117,-3.0898,-3.0898,-3.0898,-3.0898,0.0,-2.9239,-3.0131,-3.0055,-2.8875,-2.7344,-2.5737,-2.3753,0.0,-2.0918,-2.0239,-1.9987,-2.0641,-2.0742,-2.1144,-2.2347,-2.3502,0.0,0.0,-2.9804,0.0,0.0,-3.6709,0.0,-3.8065,-3.9069,-3.9697,-3.9697,-3.9697,-3.9697,-3.9697,-3.9697,-3.9697,-3.9697,-3.9697,-3.9697,-3.9697,-3.9697,-3.9697,-3.9697,-3.9697,-3.9697,-3.9697,-3.9697,-3.9697,0.0,0.0,-3.9697,0.0,-3.9697,-3.9697,-3.9697,-3.9697,-4.0375,-4.1275,-4.1275,-4.2032,-4.2986,-4.2986,-4.2986,-4.2986,-4.2986,-4.2986,-4.2986,-4.2986,-4.2986,-4.2986,-4.2986,-4.2986,-4.2986,-4.2986,-4.2986,-4.2986,-4.2986,-4.2986,-4.2986,-4.2986,-4.2986,-4.2986,-4.2986,-4.2986,-4.2986,-4.2986,-4.2615,-4.2263,-4.2263,-4.1756,-4.1351,-4.1351,-4.13,-4.11,-4.0626,-4.0576,-4.0375,-3.9848,-3.9747,-3.9697,-3.9697,-3.9697,-3.9077,-3.769,-3.769,-3.6972,-3.5508,-3.5343,-3.457,-3.3077,-3.171,-3.0995,-3.0898,-3.0898,-3.0898,-2.3376,0.0,-2.5335,-2.4481,-2.4249,-2.4048,0.0,-2.2347,-2.1493,-2.0842,-2.0239,-2.0112,-2.1144,-2.132,-2.2071,-2.4431,0.0,-2.7193,-2.9126,0.0,0.0,-3.7789,-3.8693,-3.9145,-3.9295,-3.9546,-3.9697,-3.9697,-3.9697,-3.9697,-3.9697,-3.9697,-3.9697,-3.9697,-3.9697,-3.9697,-3.9697,-3.9697,-3.9697,-3.9697,-3.9697,-3.9697,-3.9697,-3.9697,-3.9697,-3.9697,-3.9697,-3.9697,-3.9697,-3.9697,-3.9697,-3.9697,-3.9697,-4.0375,-4.1275,-4.1275,-4.2032,-4.2986,-4.2986,-4.2986,-4.2986,-4.2986,-4.2986,-4.2986,-4.2986,-4.2986,-4.2986,-4.2986,-4.2986,-4.2986,-4.2986,-4.2986,-4.2986,-4.2986,-4.2986,-4.2986,-4.2986,-4.2986,-4.2986,-4.2986,-4.2986,-4.2986,-4.2986,-4.2861,-4.2841,-4.2841,-4.2308,-4.1957,-4.1957,-4.1605,-4.1225,-4.11,-4.11,-4.105,-4.0899,-4.0174,-3.9697,-3.9697,-3.9697,-3.9517,-3.9181,-3.9181,-3.8477,-3.7026,-3.589,-3.457,-3.3077,-3.2737,-3.1977,-3.0898,-3.0898,-3.0898,-2.0991,-2.2548,-2.3904,-2.3552,-2.3471,-2.3346,-2.2794,-2.187,-2.0968,-2.0415,-2.0012,-2.0062,-2.0968,-2.1345,-2.2221,0.0,-2.6013,0.0,0.0,0.0,-3.6759,-3.8994,-3.9521,-3.9697,0.0,-3.9697,-3.9697,-3.9697,-3.9697,-3.9697,-3.9697,-3.9697,-3.9697,-3.9697,-3.9697,-3.9697,-3.9697,-3.9697,-3.9697,-3.9697,-3.9697,-3.9697,-3.9697,-3.9697,-3.9697,-3.9697,-3.9697,-3.9697,-3.9697,-3.9697,-3.9697,-3.9697,-3.9697,-4.0375,-4.1275,-4.1275,-4.2032,-4.2986,-4.2986,-4.2986,-4.2986,-4.2986,-4.2986,-4.2986,-4.2986,-4.2986,-4.2986,-4.2986,-4.2986,-4.2986,-4.2986,-4.2986,-4.2986,-4.2986,-4.2986,-4.2986,-4.2986,-4.2986,-4.2986,-4.2986,-4.2986,-4.2986,-4.2986,-4.2986,-4.2986,-4.2986,-4.2766,-4.259,-4.259,-4.2283,-4.1982,-4.1731,-4.1706,-4.1605,-4.13,-4.0802,-4.035,-4.0099,-3.9848,-3.9697,-3.9697,-3.9697,-3.931,-3.853,-3.6379,-3.4902,-3.4125,-3.2758,-3.1652,-3.0898,-3.0898,-3.0898,-2.0112,-2.2046,-2.4029,-2.4155,-2.3954,-2.3602,-2.2995,0.0,0.0,0.0,0.0,0.0,0.0,-2.1647,0.0,0.0,0.0,0.0,-3.4248,-3.5881,-3.7312,-3.9446,-3.9697,0.0,-3.9697,-3.9697,-3.9697,-3.9697,-3.9697,-3.9697,-3.9697,-3.9697,-3.9697,-3.9697,-3.9697,-3.9697,-3.9697,-3.9697,-3.9697,-3.9697,-3.9697,-3.9697,-3.9697,-3.9697,-3.9697,-3.9697,0.0,0.0,-3.9697,-3.9697,-3.9697,-3.9697,-3.9697,-4.0375,-4.1275,-4.1275,-4.2032,-4.2986,-4.2986,-4.2986,-4.2986,-4.2986,-4.2986,-4.2986,-4.2986,-4.2986,-4.2986,-4.2986,-4.2986,-4.2986,-4.2986,-4.2986,-4.2986,-4.2986,-4.2986,-4.2986,-4.2986,-4.2986,-4.2986,-4.2986,-4.2986,-4.2986,-4.2986,-4.2986,-4.2986,-4.2986,-4.2986,-4.2986,-4.2986,-4.2986,-4.2866,-4.2389,-4.2338,-4.2108,-4.163,-4.1451,-4.1254,-4.0802,-4.0249,-3.9948,-3.9948,-3.9948,-3.9948,-3.9948,-3.75,-3.5954,-3.5512,-3.3023,-3.1523,-3.1094,-3.1367,-3.1464,-2.1543,-2.2949,-2.3577,-2.1798,-2.1945,-2.2422,-2.187,-2.1543,0.0,0.0,0.0,0.0,0.0,-2.3929,-2.4858,0.0,0.0,-3.1913,0.0,0.0,-3.7713,-3.9496,0.0,-3.9697,-3.9697,-3.9697,-3.9697,-3.9697,-3.9697,-3.9697,-3.9697,-3.9697,-3.9697,-3.9697,-3.9697,-3.9697,-3.9697,-3.9697,-3.9697,-3.9697,-3.9697,-3.9697,-3.9697,-3.9697,-3.9697,-3.9697,0.0,-3.9697,-3.9697,-3.9697,-3.9697,-3.9697,-3.9697,-4.0375,-4.1275,-4.1275,-4.2032,-4.2986,-4.2986,-4.2986,-4.2986,-4.2986,-4.2986,-4.2986,-4.2986,-4.2986,-4.2986,-4.2986,-4.2986,-4.2986,-4.2986,-4.2986,-4.2986,-4.2986,-4.2986,-4.2986,-4.2986,-4.2986,-4.2986,-4.2986,-4.2986,-4.2986,-4.2986,-4.2986,-4.2986,-4.2986,-4.2986,-4.2986,-4.2986,-4.2986,-4.2936,-4.2861,-4.2861,-4.2811,-4.2735,-4.2308,-4.2062,-4.1961,-4.1379,-4.1025,-4.1025,-4.1025,-4.1025,-4.1025,-4.0624,-3.9084,-3.6464,-3.6007,-3.4487,-3.2033,-3.333,-3.3938,-2.074,-2.1995,-2.2924,-2.2171,-2.305,-2.3954,-2.3427,-2.2824,-2.2472,0.0,0.0,0.0,0.0,0.0,-2.7444,-3.0005,0.0,-3.3696,-3.648,-3.7036,-3.7814,0.0,0.0,-3.9697,-3.9697,-3.9697,-3.9697,-3.9697,-3.9697,-3.9697,-3.9697,-3.9697,-3.9697,-3.9697,-3.9697,-3.9697,-3.9697,-3.9697,-3.9697,-3.9697,-3.9697,-3.9697,-3.9697,-3.9697,-3.9697,-3.9697,0.0,-3.9697,-3.9697,-3.9697,-3.9697,-3.9697,-3.9697,-4.0375,-4.1351,-4.2007,-4.2534,-4.2986,-4.2986,-4.2986,-4.2986,-4.2986,-4.2986,-4.2986,-4.2986,-4.2986,-4.2986,-4.2986,-4.2986,-4.2986,-4.2986,-4.2986,-4.2986,-4.2986,-4.2986,-4.2986,-4.2986,-4.2986,-4.2986,-4.2986,-4.2986,-4.2986,-4.2986,-4.2986,-4.2986,-4.2986,-4.2986,-4.2986,-4.2986,-4.2986,-4.2986,-4.2986,-4.2986,-4.2986,-4.2986,-4.2735,-4.2359,-4.1756,-4.148,-4.1275,-4.1275,-4.1275,-4.1275,-4.1275,-4.0523,-3.9434,-3.7993,-3.7179,-3.6112,-3.4736,-3.5475,-3.5801,-2.0514,-2.1518,-2.2644,-2.3321,-2.4381,-2.5259,-2.536,-2.4499,-2.3923,0.0,0.0,0.0,0.0,-2.7846,0.0,-3.3144,-3.4123,-3.5203,-3.7287,-3.7588,-3.8115,-3.9521,-3.9697,-3.9697,-3.9697,-3.9697,-3.9697,-3.9697,-3.9697,-3.9697,-3.9697,-3.9697,-3.9697,-3.9697,-3.9572,-3.9572,-3.9697,-3.9572,-3.9572,-3.9697,-3.9697,-3.9697,-3.9697,-3.9697,-3.9697,-3.9697,-3.9697,-3.9697,-3.9697,-3.9697,-3.9697,-3.9697,-3.9697,-4.0375,-4.1426,-4.2585,-4.2986,-4.2986,-4.2986,-4.2986,-4.2986,-4.2986,-4.2986,-4.2986,-4.2986,-4.2986,-4.2986,-4.2986,-4.2986,-4.2986,-4.2986,-4.2986,-4.2986,-4.2986,-4.2986,-4.2986,-4.2986,-4.2986,-4.3011,-4.3137,-4.3162,-4.3212,-4.3338,-4.3263,-4.3162,-4.3162,-4.3062,-4.2986,-4.2986,-4.2986,-4.2986,-4.2986,-4.2986,-4.2986,-4.2986,-4.2986,-4.261,-4.1781,-4.1731,-4.1731,-4.1731,-4.1731,-4.1731,-4.1731,-4.0618,-3.985,-3.9435,-3.8341,-3.7576,-3.7231,-3.7576,-3.7748,-2.2594,-2.2945,-2.3321,-2.4399,-2.4406,-2.4632,-2.664,-2.6239,-2.5862,-2.7469,0.0,0.0,0.0,-3.0457,-3.2667,-3.4931,-3.583,-3.6832,-3.8567,0.0,-3.8994,-3.9622,-3.9697,-3.9697,-3.9697,-3.9697,-3.9697,-3.9697,-3.9697,-3.9697,-3.9697,-3.9697,-3.9697,-3.9697,-3.9195,-3.917,-3.9697,-3.9195,-3.9195,-3.9697,-3.9697,-3.9697,-3.9697,-3.9697,-3.9697,-3.9697,-3.9697,-3.9697,-3.9697,-3.9697,-3.9697,-3.9697,-3.9697,-4.0375,-4.1426,-4.2585,-4.2986,-4.2986,-4.2986,-4.2986,-4.2986,-4.2986,-4.2986,-4.2986,-4.2986,-4.2986,-4.2986,-4.2986,-4.2986,-4.2986,-4.2986,-4.2986,-4.2986,-4.2986,-4.2986,-4.2986,-4.2986,-4.2986,-4.3137,-4.3639,-4.374,-4.3915,-4.4418,-4.4091,-4.374,-4.374,-4.3313,-4.2986,-4.2986,-4.2986,-4.2986,-4.2986,-4.2986,-4.2986,-4.2986,-4.2986,-4.2936,-4.2861,-4.2861,-4.2861,-4.2861,-4.2861,-4.2861,-4.2861,-4.278,-4.197,-4.0473,-4.0358,-3.9581,-3.8111,-3.964,-4.03,-2.1568,-2.2347,-2.3296,-2.4104,-2.4933,0.0,0.0,-2.7996,-2.8674,-3.0306,-3.0658,0.0,0.0,0.0,-3.3872,-3.5755,-3.6508,-3.7385,-3.8743,-3.8919,-3.9069,-3.9622,-3.9697,-3.9697,-3.9697,-3.9697,-3.9697,-3.9697,-3.9697,-3.9697,-3.9697,-3.9697,-3.9546,-3.9195,-3.902,-3.8793,-3.8642,-3.8793,-3.8969,-3.9195,-3.9521,-3.9697,-3.9697,-3.9697,-3.9697,-3.9697,-3.9697,-3.9697,-3.9697,-3.9697,-3.9697,-3.9772,-4.045,-4.0924,-4.1426,-4.2585,-4.2986,-4.2986,-4.2986,-4.2986,-4.2986,-4.2986,-4.2986,-4.2986,-4.2986,-4.2986,-4.2986,-4.2986,-4.3212,-4.3413,-4.3062,-4.3237,-4.3489,-4.3489,-4.374,-4.3991,-4.3991,-4.3991,-4.4066,-4.4267,-4.4317,-4.4367,-4.4593,-4.4443,-4.4317,-4.4317,-4.4141,-4.3991,-4.3991,-4.3991,-4.3991,-4.3991,-4.3689,-4.3489,-4.3489,-4.3162,-4.2986,-4.2986,-4.2986,-4.2986,-4.2986,-4.2986,-4.2986,-4.2986,-4.2986,-4.2681,-4.2069,-4.2069,-4.1785,-4.1191,-4.1785,-4.2069,-2.1144,-2.187,-2.302,-2.3803,0.0,0.0,-2.8775,-2.9603,-3.0658,-3.2817,-3.3119,-3.3194,-3.3796,0.0,0.0,0.0,-3.696,-3.7839,-3.8969,-3.912,-3.927,-3.9647,-3.9697,-3.9697,-3.9697,-3.9697,-3.9697,-3.9697,-3.9697,-3.9697,-3.9697,-3.9521,-3.927,-3.8919,-3.8567,-3.8241,-3.8015,-3.8391,-3.8693,-3.8919,-3.9421,-3.9697,-3.9697,-3.9697,-3.9697,-3.9697,-3.9697,-3.9697,-3.9697,-3.9697,-3.9697,-3.9798,-4.0849,-4.1275,-4.1426,-4.2585,-4.2986,-4.2986,-4.2986,-4.2986,-4.2986,-4.2986,-4.2986,-4.2986,-4.2986,-4.2986,-4.2986,-4.2986,-4.3363,-4.3714,-4.3338,-4.3639,-4.4066,-4.4066,-4.4342,-4.4618,-4.4618,-4.4618,-4.4669,-4.4869,-4.4895,-4.4945,-4.5121,-4.502,-4.4895,-4.4895,-4.4744,-4.4618,-4.4618,-4.4618,-4.4618,-4.4618,-4.4292,-4.3991,-4.3815,-4.3463,-4.3162,-4.2986,-4.2986,-4.2986,-4.2986,-4.2986,-4.2986,-4.2986,-4.2986,-4.2986,-4.2986,-4.2986,-4.2986,-4.2986,-4.2986,-4.2986,-2.1794,-2.1895,-2.2598,-2.3728,0.0,0.0,-3.0783,-3.1009,-3.1546,-3.4831,-3.5082,-3.4575,-3.4022,-3.4374,0.0,-3.6229,-3.7287,-3.8417,-3.9546,-3.9697,-3.9697,-3.9697,-3.9697,-3.9697,-3.9697,-3.9697,-3.9697,-3.9697,-3.9697,-3.9697,-3.9697,-3.917,-3.8919,-3.8894,-3.7764,-3.7437,-3.799,-3.799,-3.8291,-3.8919,-3.9421,-3.9697,-3.9697,-3.9697,-3.9697,-3.9697,-3.9697,-3.9697,-3.9697,-3.9697,-3.9697,-3.9798,-4.0902,-4.1275,-4.1426,-4.2559,-4.2961,-4.2986,-4.2986,-4.2986,-4.2986,-4.2986,-4.2986,-4.2986,-4.2986,-4.2986,-4.2986,-4.2986,-4.3388,-4.3815,-4.3815,-4.4217,-4.4644,-4.4644,-4.4644,-4.4644,-4.4644,-4.4644,-4.4819,-4.5372,-4.5497,-4.5673,-4.6225,-4.5849,-4.5497,-4.5497,-4.4995,-4.4644,-4.4644,-4.4644,-4.4644,-4.4644,-4.4644,-4.4418,-4.3865,-4.3815,-4.3564,-4.3011,-4.2986,-4.2986,-4.2986,-4.2986,-4.2986,-4.2986,-4.2986,-4.2986,-4.2986,-4.2986,-4.2986,-4.2986,-4.2986,-4.2986,-2.1794,-2.2472,-2.3753,-2.4858,0.0,0.0,0.0,-3.3068,0.0,0.0,-3.6533,-3.583,-3.5701,-3.578,0.0,-3.6835,-3.7889,-3.8868,-3.9597,-3.9697,-3.9697,-3.9697,-3.9697,-3.9697,-3.9697,-3.9697,-3.9697,-3.9697,-3.9697,-3.9521,-3.9145,-3.902,-3.8517,-3.7713,-3.7362,-3.7086,-3.6908,-3.7236,-3.7713,-3.8266,-3.8843,-3.932,-3.9697,-3.9697,-3.9697,-3.9697,-3.9697,-3.9697,-3.9697,-3.9697,-3.9697,-3.9772,-4.0475,-4.1003,-4.1376,-4.2133,-4.2715,-4.2986,-4.2986,-4.2986,-4.2986,-4.2986,-4.2986,-4.2986,-4.2986,-4.2986,-4.3062,-4.3438,-4.3966,-4.4468,-4.4869,-4.5397,-4.5723,-4.5321,-4.5522,-4.5824,-4.5824,-4.5824,-4.5874,-4.6024,-4.6075,-4.6125,-4.6276,-4.6175,-4.6075,-4.6075,-4.5924,-4.5824,-4.5824,-4.5824,-4.5824,-4.5824,-4.5472,-4.5171,-4.4995,-4.4618,-4.4141,-4.3589,-4.3564,-4.3388,-4.2986,-4.2986,-4.2986,-4.2986,-4.2986,-4.2986,-4.2986,-4.2986,-4.2986,-4.2986,-4.2986,-4.2986,-2.2548,-2.3376,-2.4682,-2.6214,-2.8624,-3.1286,-3.3822,0.0,0.0,0.0,-3.7337,-3.6983,-3.6782,-3.6709,0.0,-3.7412,-3.8266,-3.912,-3.9622,-3.9697,-3.9697,-3.9697,-3.9697,-3.9697,-3.9697,-3.9697,-3.9697,-3.9697,-3.9697,-3.9446,-3.8944,-3.8642,-3.8115,-3.7211,-3.696,-3.6757,-3.6405,-3.6958,-3.7337,-3.7688,-3.8266,-3.8818,-3.9371,-3.9597,-3.9697,-3.9697,-3.9697,-3.9697,-3.9697,-3.9697,-3.9697,-3.9747,-4.03,-4.0852,-4.1351,-4.1957,-4.2564,-4.2986,-4.2986,-4.2986,-4.2986,-4.2986,-4.2986,-4.2986,-4.2986,-4.2986,-4.3087,-4.3639,-4.4192,-4.4744,-4.5347,-4.5899,-4.6225,-4.5899,-4.6075,-4.6301,-4.6301,-4.6301,-4.6301,-4.6301,-4.6301,-4.6301,-4.6301,-4.6301,-4.6301,-4.6301,-4.6301,-4.6301,-4.6301,-4.6301,-4.6301,-4.6301,-4.6024,-4.5723,-4.5497,-4.5171,-4.4719,-4.4166,-4.4141,-4.3991,-4.3639,-4.3212,-4.2986,-4.2986,-4.2986,-4.2986,-4.2986,-4.2986,-4.2986,-4.2986,-4.3212,-4.3313,-2.3653,-2.4431,-2.5511,-2.772,-2.9628,0.0,-3.5579,-3.7186,-3.7789,-3.7337,0.0,-3.7789,-3.7337,-3.7262,-3.7437,-3.799,-3.8567,-3.912,-3.9622,-3.9697,-3.9697,-3.9697,-3.9697,-3.9697,-3.9697,-3.9697,-3.9697,-3.9697,-3.9697,-3.9421,-3.8818,-3.8291,-3.7739,-3.7136,-3.6681,-3.6405,-3.6405,-3.6908,-3.7136,-3.7186,-3.7688,-3.8266,-3.8944,-3.9396,-3.9647,-3.9697,-3.9697,-3.9697,-3.9697,-3.9697,-3.9697,-3.9747,-4.0249,-4.0749,-4.1351,-4.1907,-4.2514,-4.2986,-4.2986,-4.2986,-4.2986,-4.2986,-4.2986,-4.2986,-4.2986,-4.2986,-4.3112,-4.3714,-4.4242,-4.4769,-4.5397,-4.5924,-4.6301,-4.6301,-4.6301,-4.6301,-4.6301,-4.6301,-4.6301,-4.6301,-4.6301,-4.6301,-4.6301,-4.6301,-4.6301,-4.6301,-4.6301,-4.6301,-4.6301,-4.6301,-4.6301,-4.6301,-4.6301,-4.61,-4.5598,-4.5573,-4.5321,-4.4744,-4.4694,-4.4669,-4.4618,-4.3664,-4.3137,-4.3137,-4.3137,-4.3137,-4.3137,-4.3137,-4.3137,-4.3137,-4.3639,-4.3865,-2.3221,-2.4682,0.0,-2.8875,-3.1662,-3.4274,-3.5981,-3.6885,-3.7437,-3.7764,-3.7588,-3.7462,-3.7764,-3.7839,-3.8015,-3.8592,-3.9145,-3.9572,-3.9672,-3.9697,-3.9697,-3.9697,-3.9697,-3.9697,-3.9697,-3.9697,-3.9697,-3.9697,-3.9697,-3.9245,-3.8241,-3.8065,-3.7563,-3.6606,-3.648,-3.6405,-3.6405,-3.6531,-3.6807,-3.7186,-3.7312,-3.7889,-3.8919,-3.9045,-3.927,-3.9697,-3.9697,-3.9697,-3.9697,-3.9697,-3.9697,-3.9697,-3.9823,-4.0475,-4.13,-4.148,-4.2133,-4.2986,-4.2986,-4.2986,-4.2986,-4.2986,-4.2986,-4.2986,-4.2986,-4.2986,-4.3187,-4.4166,-4.4543,-4.4869,-4.5874,-4.6225,-4.6301,-4.6301,-4.6301,-4.6301,-4.6301,-4.6301,-4.6301,-4.6301,-4.6301,-4.6301,-4.6301,-4.6301,-4.6301,-4.6301,-4.6301,-4.6301,-4.6301,-4.6301,-4.6301,-4.6301,-4.6301,-4.625,-4.615,-4.6125,-4.5899,-4.5347,-4.5296,-4.5095,-4.4644,-4.4392,-4.4267,-4.4267,-4.4267,-4.4267,-4.4267,-4.4267,-4.4267,-4.4267,-4.4392,-4.4443,-2.3954,0.0,0.0,-3.0934,0.0,-3.5002,-3.6153,-3.6631,-3.6933,-3.7161,-3.7412,-3.7663,-3.7965,-3.8015,-3.8191,-3.8768,-3.912,-3.9396,-3.9647,-3.9697,-3.9697,-3.9697,-3.9697,-3.9697,-3.9697,-3.9697,-3.9697,-3.9697,-3.9446,-3.8919,-3.804,-3.7764,-3.7236,-3.643,-3.6405,-3.6405,-3.6405,-3.6405,-3.6556,-3.6832,-3.6832,-3.7436,-3.8467,-3.9019,-3.9421,-3.9697,-3.9697,-3.9697,-3.9697,-3.9697,-3.9697,-3.9697,-3.9697,-4.0375,-4.1275,-4.1275,-4.2032,-4.2986,-4.2986,-4.2986,-4.2986,-4.2986,-4.2986,-4.2986,-4.2986,-4.2986,-4.3212,-4.4317,-4.4618,-4.4895,-4.6024,-4.6301,-4.6301,-4.6301,-4.6301,-4.6301,-4.6301,-4.6301,-4.6301,-4.6301,-4.6301,-4.6301,-4.6301,-4.6301,-4.6301,-4.6301,-4.6301,-4.6301,-4.6301,-4.6301,-4.6301,-4.6301,-4.6301,-4.6301,-4.6301,-4.6301,-4.6175,-4.5899,-4.5874,-4.5748,-4.5447,-4.5422,-4.5171,-4.4644,-4.4618,-4.4618,-4.4618,-4.4618,-4.4618,-4.4644,-4.492,-4.5045,-2.4381,0.0,-2.8549,-3.2717,-3.4248,0.0,-3.5981,-3.6355,-3.6405,-3.6405,-3.7086,-3.7739,-3.7839,-3.7864,-3.8065,-3.8617,-3.8718,-3.8919,-3.9471,-3.9546,-3.9597,-3.9697,-3.9697,-3.9697,-3.9697,-3.9697,-3.9647,-3.9572,-3.912,-3.8567,-3.7889,-3.7437,-3.6935,-3.643,-3.6405,-3.6405,-3.6405,-3.6405,-3.6405,-3.6405,-3.6505,-3.7036,-3.804,-3.9069,-3.9597,-3.9697,-3.9697,-3.9697,-3.9697,-3.9697,-3.9697,-3.9697,-3.9697,-4.0375,-4.1275,-4.1275,-4.2032,-4.2986,-4.2986,-4.2986,-4.2986,-4.2986,-4.2986,-4.2986,-4.2986,-4.3037,-4.3338,-4.4342,-4.4694,-4.4995,-4.605,-4.6301,-4.6301,-4.6301,-4.6301,-4.6301,-4.6301,-4.6301,-4.6301,-4.6301,-4.6301,-4.6301,-4.6301,-4.6301,-4.6301,-4.6301,-4.6301,-4.6276,-4.6175,-4.625,-4.6276,-4.6175,-4.625,-4.6301,-4.6301,-4.6301,-4.6301,-4.6301,-4.6301,-4.6301,-4.6301,-4.6301,-4.5874,-4.4945,-4.492,-4.492,-4.492,-4.492,-4.492,-4.492,-4.5397,-4.5623,-2.2523,0.0,-2.9389,0.0,-3.3947,-3.4831,0.0,0.0,-3.6405,0.0,-3.6531,-3.6782,-3.7211,-3.7287,-3.7487,-3.804,-3.8115,-3.8316,-3.8894,-3.902,-3.917,-3.9647,-3.9697,-3.9697,-3.9697,-3.9697,-3.9496,-3.9019,-3.8969,-3.8417,-3.7337,-3.7236,-3.6935,-3.643,-3.6405,-3.6405,-3.6405,-3.6405,-3.6405,-3.6405,-3.6883,-3.7387,-3.804,-3.8693,-3.9245,-3.9697,-3.9697,-3.9697,-3.9697,-3.9697,-3.9697,-3.9697,-3.9697,-4.0375,-4.1275,-4.1275,-4.2032,-4.2986,-4.2986,-4.2986,-4.2986,-4.2986,-4.2986,-4.2986,-4.2986,-4.3313,-4.3815,-4.4443,-4.4995,-4.5522,-4.615,-4.6301,-4.6301,-4.6301,-4.6301,-4.6301,-4.6301,-4.6301,-4.6301,-4.6301,-4.6301,-4.6301,-4.6301,-4.6301,-4.6301,-4.6301,-4.6301,-4.6125,-4.5673,-4.6024,-4.6125,-4.5648,-4.6024,-4.6301,-4.6301,-4.6301,-4.6301,-4.6301,-4.6301,-4.6301,-4.6301,-4.6301,-4.625,-4.61,-4.6075,-4.6075,-4.6075,-4.6075,-4.6075,-4.61,-4.6175,-4.62,-2.4356,-2.6741,-2.9277,0.0,-3.3671,-3.4098,-3.5232,0.0,-3.5981,-3.6355,-3.6405,-3.648,-3.6732,-3.6782,-3.6958,-3.7462,-3.7538,-3.7739,-3.8316,-3.8391,-3.8592,-3.917,-3.922,-3.9346,-3.9672,-3.9421,-3.912,-3.8944,-3.8341,-3.7713,-3.7211,-3.6933,-3.6656,-3.6405,-3.6405,-3.6405,-3.6405,-3.6405,-3.6405,-3.6405,-3.6656,-3.7186,-3.8015,-3.8266,-3.8868,-3.9697,-3.9697,-3.9697,-3.9697,-3.9697,-3.9697,-3.9697,-3.9697,-4.0375,-4.1275,-4.1275,-4.2032,-4.2986,-4.2986,-4.2986,-4.2986,-4.2986,-4.2986,-4.2986,-4.2986,-4.3363,-4.3915,-4.4468,-4.5045,-4.5623,-4.6175,-4.6301,-4.6301,-4.6301,-4.6301,-4.6301,-4.6301,-4.6301,-4.6301,-4.6301,-4.6301,-4.6301,-4.6301,-4.6301,-4.6301,-4.6301,-4.605,-4.5773,-4.5522,-4.5422,-4.5397,-4.5472,-4.5698,-4.5974,-4.6276,-4.6301,-4.6301,-4.6301,-4.6301,-4.6301,-4.6301,-4.6301,-4.6301,-4.6301,-4.6301,-4.6301,-4.6301,-4.6301,-4.6301,-4.6301,-4.6301,-4.6301,0.0,0.0,-2.8147,-3.1738,-3.2742,-3.3219,0.0,0.0,-3.5608,0.0,-3.6304,-3.6405,-3.6405,-3.6405,-3.6531,-3.6958,-3.6985,-3.7161,-3.7713,-3.7789,-3.8065,-3.8844,-3.8919,-3.9044,-3.9446,-3.912,-3.8793,-3.8467,-3.7663,-3.7136,-3.6985,-3.6631,-3.6405,-3.6405,-3.6405,-3.6405,-3.6405,-3.6405,-3.6405,-3.6405,-3.6405,-3.6908,-3.7789,-3.7939,-3.8542,-3.9496,-3.9647,-3.9697,-3.9697,-3.9697,-3.9697,-3.9697,-3.9697,-4.0375,-4.1275,-4.1275,-4.2032,-4.2986,-4.2986,-4.2986,-4.2986,-4.2986,-4.2986,-4.3011,-4.3137,-4.3564,-4.4116,-4.4694,-4.5246,-4.5799,-4.62,-4.6301,-4.6301,-4.6301,-4.6301,-4.6301,-4.6301,-4.6301,-4.6301,-4.6301,-4.6301,-4.6301,-4.6301,-4.6301,-4.625,-4.6125,-4.5748,-4.5397,-4.5095,-4.4794,-4.4744,-4.502,-4.5171,-4.5422,-4.5849,-4.6024,-4.61,-4.61,-4.6225,-4.6301,-4.6301,-4.6301,-4.6301,-4.6301,-4.6301,-4.6301,-4.6301,-4.6301,-4.6301,-4.6301,-4.6301,-4.6301,0.0,-2.4123,0.0,-2.8436,-3.0733,0.0,0.0,0.0,0.0,-3.5533,-3.6006,-3.6405,-3.6405,-3.6405,-3.6405,-3.6455,-3.6455,-3.6656,-3.7161,-3.7236,-3.7638,-3.8793,-3.8919,-3.8919,-3.8969,-3.8944,-3.8466,-3.7362,-3.7211,-3.7008,-3.648,-3.643,-3.6405,-3.6405,-3.6405,-3.6405,-3.6405,-3.6405,-3.6405,-3.6405,-3.6405,-3.6707,-3.7236,-3.7764,-3.8341,-3.8994,-3.9471,-3.9697,-3.9697,-3.9697,-3.9697,-3.9697,-3.9697,-4.0375,-4.1275,-4.1275,-4.2032,-4.2986,-4.2986,-4.2986,-4.2986,-4.2986,-4.2986,-4.3062,-4.3589,-4.4141,-4.4694,-4.5271,-4.5849,-4.6276,-4.6301,-4.6301,-4.6301,-4.6301,-4.6301,-4.6301,-4.6301,-4.6301,-4.6301,-4.6301,-4.6301,-4.6301,-4.6301,-4.6301,-4.6125,-4.5623,-4.5497,-4.5095,-4.4041,-4.4317,-4.4443,-4.394,-4.4342,-4.4694,-4.4719,-4.5221,-4.5522,-4.5522,-4.6024,-4.6301,-4.6301,-4.6301,-4.6301,-4.6301,-4.6301,-4.6301,-4.6301,-4.6301,-4.6301,-4.6301,-4.6301,-4.6301,0.0,0.0,0.0,-2.772,-2.9528,-3.0984,-3.224,-3.3545,-3.47,-3.5357,-3.5658,-3.5956,-3.6355,-3.6405,-3.6405,-3.6405,-3.6405,-3.648,-3.6681,-3.6707,-3.6983,-3.7688,-3.7789,-3.7939,-3.8291,-3.799,-3.7613,-3.7211,-3.6908,-3.6606,-3.6405,-3.6405,-3.6405,-3.6405,-3.6405,-3.6405,-3.6405,-3.6405,-3.6405,-3.6405,-3.6405,-3.6707,-3.7211,-3.7764,-3.8316,-3.8944,-3.9446,-3.9697,-3.9697,-3.9697,-3.9697,-3.9697,-3.9697,-4.0375,-4.1275,-4.1275,-4.2032,-4.2986,-4.2986,-4.2986,-4.2986,-4.2986,-4.3212,-4.3539,-4.374,-4.4443,-4.5221,-4.5422,-4.5874,-4.6301,-4.6301,-4.6301,-4.6301,-4.6301,-4.6301,-4.6301,-4.6301,-4.6301,-4.6301,-4.6301,-4.6024,-4.5773,-4.5773,-4.5472,-4.5146,-4.497,-4.4618,-4.4267,-4.384,-4.3664,-4.3639,-4.379,-4.3966,-4.4242,-4.4593,-4.4819,-4.4945,-4.4945,-4.5472,-4.5773,-4.5773,-4.6125,-4.615,-4.5799,-4.5773,-4.5949,-4.6301,-4.6301,-4.6301,-4.6301,-4.6301,-4.6301,-2.1995,0.0,0.0,0.0,0.0,-2.9001,-3.1386,0.0,-3.337,-3.45,-3.5107,-3.5608,-3.6006,-3.6279,-3.6405,-3.6405,-3.6405,-3.6405,-3.6405,-3.6405,-3.6606,-3.7111,-3.7186,-3.7337,-3.7688,-3.7387,-3.7111,-3.6983,-3.6606,0.0,-3.6405,-3.6405,-3.6405,-3.6405,-3.6405,-3.6405,-3.6405,-3.6405,-3.6405,-3.6405,-3.6405,-3.6606,-3.6983,-3.7663,-3.8216,-3.8617,-3.9371,-3.9697,-3.9697,-3.9697,-3.9697,-3.9697,-3.9697,-4.0375,-4.1275,-4.1275,-4.2032,-4.2986,-4.2986,-4.2986,-4.2986,-4.2986,-4.3338,-4.384,-4.4016,-4.4744,-4.5522,-4.5723,-4.6024,-4.6301,-4.6301,-4.6301,-4.6301,-4.6301,-4.6451,-4.6602,-4.6602,-4.6602,-4.6527,-4.6351,-4.6175,-4.5974,-4.5799,-4.5447,-4.5121,-4.4945,-4.4593,-4.4292,-4.4091,-4.3765,-4.3664,-4.4041,-4.4091,-4.4141,-4.4342,-4.4518,-4.4543,-4.4367,-4.507,-4.5497,-4.5497,-4.6024,-4.6125,-4.5773,-4.5573,-4.5748,-4.6301,-4.5924,-4.5849,-4.6024,-4.6024,-4.6125,0.0,0.0,0.0,0.0,0.0,0.0,-3.0357,0.0,-3.1587,-3.2792,-3.4299,-3.5382,-3.5458,-3.5956,-3.6355,-3.638,-3.6405,-3.6405,-3.6405,-3.6405,-3.6606,-3.7086,-3.7161,-3.7161,-3.7161,-3.7161,-3.6935,-3.6455,-3.6405,-3.6405,-3.6405,-3.6405,-3.6405,-3.6405,-3.6405,-3.6405,-3.6405,-3.6405,-3.6405,-3.6405,-3.6405,-3.6405,-3.6455,-3.7513,-3.8015,-3.8065,-3.9195,-3.9697,-3.9697,-3.9697,-3.9697,-3.9697,-3.9722,-4.0375,-4.1275,-4.13,-4.2057,-4.2986,-4.2986,-4.2986,-4.2986,-4.2986,-4.3363,-4.3915,-4.4468,-4.5045,-4.5623,-4.615,-4.6301,-4.6301,-4.6301,-4.6301,-4.6301,-4.6326,-4.6753,-4.7068,-4.7093,-4.7093,-4.6943,-4.6451,-4.6753,-4.6928,-4.6376,-4.6276,-4.6075,-4.5547,-4.5472,-4.5271,-4.4694,-4.4618,-4.4618,-4.4618,-4.4618,-4.4418,-4.3865,-4.4317,-4.4392,-4.3865,-4.4869,-4.5472,-4.5472,-4.5999,-4.6276,-4.6225,-4.5723,-4.5698,-4.6225,-4.5146,-4.492,-4.5522,-4.5522,-4.5799,-2.0691,0.0,0.0,0.0,0.0,0.0,0.0,0.0,0.0,-3.1311,-3.1913,-3.2549,-3.453,-3.5077,-3.5303,-3.5705,-3.6107,-3.6405,-3.6405,-3.6405,-3.6455,-3.6606,-3.6631,-3.6631,-3.6631,-3.6631,-3.6581,0.0,-3.6405,-3.6405,-3.6405,-3.6405,-3.6405,-3.6405,-3.6405,-3.6405,-3.6405,-3.6405,-3.6405,-3.6405,-3.6405,-3.6405,-3.6455,-3.7513,-3.8015,-3.8065,-3.9195,-3.9697,-3.9697,-3.9697,-3.9697,-3.9747,-4.0124,-4.0727,-4.1326,-4.1781,-4.2384,-4.2986,-4.2986,-4.2986,-4.2986,-4.2986,-4.3614,-4.4418,-4.4568,-4.5296,-4.6125,-4.6276,-4.6301,-4.6301,-4.6301,-4.6301,-4.6401,-4.6803,-4.6968,-4.723,-4.7606,-4.7682,-4.7531,-4.7004,-4.6702,-4.6351,-4.5799,-4.5372,-4.5045,-4.4895,-4.4869,-4.4794,-4.4644,-4.4618,-4.4618,-4.4618,-4.4618,-4.4568,-4.4418,-4.4543,-4.4568,-4.4418,-4.507,-4.5296,-4.4895,-4.5422,-4.5321,-4.4518,-4.4342,-4.4342,-4.4493,-4.4568,-4.5121,-4.6075,-4.6075,-4.6175,-2.1169,0.0,0.0,0.0,0.0,0.0,0.0,-2.6364,0.0,0.0,-3.0834,-3.1512,-3.3345,-3.4073,-3.455,-3.5056,-3.5655,-3.6107,-3.638,-3.6405,-3.6405,-3.6405,-3.6405,-3.6405,-3.6405,-3.6405,-3.6405,-3.6405,-3.6405,-3.6405,-3.6405,-3.6405,-3.6405,-3.6405,-3.6405,-3.6405,-3.6405,-3.6405,-3.6405,-3.6405,-3.6405,-3.6405,-3.6455,-3.7513,-3.8015,-3.8065,-3.9195,-3.9697,-3.9697,-3.9697,-3.9697,-3.9747,-4.03,-4.0852,-4.1351,-4.1957,-4.2564,-4.2986,-4.2986,-4.2986,-4.3011,-4.3237,-4.3915,-4.4669,-4.492,-4.5598,-4.6301,-4.6301,-4.6301,-4.6301,-4.6301,-4.6476,-4.6728,-4.7054,-4.7481,-4.7908,-4.8209,-4.846,-4.8309,-4.733,-4.6878,-4.6476,-4.5924,-4.5547,-4.5321,-4.5321,-4.5321,-4.5321,-4.5321,-4.5321,-4.5321,-4.5321,-4.5321,-4.5246,-4.4995,-4.4995,-4.4895,-4.4644,-4.5171,-4.5321,-4.4995,-4.5296,-4.5171,-4.4518,-4.4041,-4.379,-4.379,-4.4116,-4.4869,-4.5974,-4.62,-4.6301,-2.202,-2.2121,0.0,0.0,0.0,0.0,-2.654,-2.6314,-2.6063,0.0,-3.0005,-3.0909,-3.1712,-3.2717,-3.3621,-3.4173,-3.4781,-3.5529,-3.6304,-3.6405,-3.6405,-3.6405,-3.6405,-3.6405,-3.6405,-3.6405,-3.6405,-3.6405,-3.6405,-3.6405,-3.6405,-3.6405,-3.6405,-3.6405,-3.6405,-3.6405,-3.6405,-3.6405,-3.6405,-3.6405,-3.6405,-3.6405,-3.6455,-3.7513,-3.8015,-3.8065,-3.9195,-3.9697,-3.9697,-3.9697,-3.9697,-3.9747,-4.0375,-4.0849,-4.1351,-4.2007,-4.2615,-4.2986,-4.2986,-4.2986,-4.3062,-4.3614,-4.4166,-4.4744,-4.5321,-4.5874,-4.6301,-4.6301,-4.6301,-4.6301,-4.6301,-4.6728,-4.7093,-4.7143,-4.8008,-4.8786,-4.8837,-4.9213,-4.9063,-4.7606,-4.7193,-4.7029,-4.6426,-4.6301,-4.6301,-4.6301,-4.6301,-4.6301,-4.6301,-4.6301,-4.6301,-4.6301,-4.6301,-4.6125,-4.5623,-4.5573,-4.5372,-4.4844,-4.5296,-4.5547,-4.5497,-4.5497,-4.5422,-4.5296,-4.4367,-4.389,-4.389,-4.3966,-4.4493,-4.5497,-4.605,-4.6301,-2.3452,-2.3577,-2.3653,-2.3597,0.0,0.0,-2.3,-2.3201,-2.3998,0.0,-2.5929,-2.6816,-2.9113,-3.0131,-3.0783,-3.1336,-3.2616,-3.4223,-3.6153,-3.6405,-3.6405,-3.6405,-3.6405,-3.6405,-3.6405,-3.6405,-3.6405,-3.6405,-3.6405,-3.6405,-3.6405,-3.6405,-3.6405,-3.6405,-3.6405,-3.6405,-3.6405,-3.6405,-3.6405,-3.6405,-3.6405,-3.6405,-3.6455,-3.7513,-3.8015,-3.8065,-3.9195,-3.9697,-3.9697,-3.9697,-3.9697,-3.9798,-4.0802,-4.12,-4.1401,-4.2459,-4.2886,-4.2986,-4.2986,-4.2986,-4.3062,-4.3614,-4.4166,-4.4744,-4.5321,-4.5874,-4.6301,-4.6301,-4.6301,-4.6301,-4.6301,-4.6728,-4.723,-4.7657,-4.8284,-4.8887,-4.9339,-4.9163,-4.8837,-4.851,-4.8083,-4.7456,-4.6476,-4.6301,-4.6301,-4.6301,-4.6301,-4.6301,-4.6301,-4.6301,-4.6301,-4.6301,-4.6301,-4.6276,-4.615,-4.615,-4.61,-4.5999,-4.6075,-4.5949,-4.5497,-4.5497,-4.507,-4.4141,-4.4342,-4.4468,-4.4468,-4.492,-4.5271,-4.5497,-4.605,-4.6301,-2.4556,-2.4406,-2.4481,-2.4732,0.0,0.0,0.0,0.0,-2.3572,-2.5285,-2.5209,-2.5452,-2.7695,0.0,-2.8574,-2.998,-3.1336,-3.2717,-3.4098,-3.5027,0.0,-3.5554,-3.578,-3.5956,-3.5956,-3.6207,-3.6405,-3.6405,-3.6405,-3.6405,-3.6405,-3.6405,-3.6405,-3.6405,-3.6405,-3.6405,-3.6405,-3.6405,-3.6405,-3.6405,-3.6405,-3.6556,-3.6857,-3.7638,-3.8165,-3.8492,-3.932,-3.9697,-3.9697,-3.9697,-3.9697,-3.9798,-4.0849,-4.1275,-4.1426,-4.2585,-4.2986,-4.2986,-4.2986,-4.3162,-4.3489,-4.4041,-4.4593,-4.5171,-4.5723,-4.61,-4.6301,-4.6301,-4.6301,-4.6376,-4.6652,-4.7129,-4.7657,-4.8209,-4.8761,-4.9264,-4.954,-4.9389,-4.9113,-4.8812,-4.8535,-4.7983,-4.6903,-4.6728,-4.6627,-4.6351,-4.6301,-4.6301,-4.6301,-4.6301,-4.6301,-4.6301,-4.6301,-4.6301,-4.6301,-4.6301,-4.6301,-4.6301,-4.6301,-4.6175,-4.5899,-4.5899,-4.5497,-4.4669,-4.492,-4.5045,-4.5045,-4.5347,-4.5623,-4.5899,-4.6175,-4.6301,0.0,0.0,0.0,0.0,0.0,-2.4474,0.0,0.0,0.0,0.0,0.0,0.0,0.0,0.0,0.0,0.0,0.0,0.0,0.0,0.0,0.0,0.0,0.0,-3.5332,-3.5332,-3.568,-3.6078,-3.638,-3.6103,-3.6078,-3.638,-3.6405,-3.6405,-3.6405,-3.6405,-3.6405,-3.6405,-3.6405,-3.6405,-3.6405,-3.6405,-3.6707,-3.7211,-3.7764,-3.8316,-3.8944,-3.9446,-3.9697,-3.9697,-3.9697,-3.9747,-3.9948,-4.0899,-4.1275,-4.1426,-4.2585,-4.2986,-4.2986,-4.2986,-4.3338,-4.389,-4.4443,-4.5095,-4.5723,-4.6175,-4.6301,-4.6301,-4.6301,-4.6376,-4.6577,-4.7029,-4.7606,-4.8184,-4.8661,-4.9188,-4.959,-4.959,-4.959,-4.9464,-4.9012,-4.8937,-4.8586,-4.7481,-4.728,-4.7104,-4.6552,-4.6476,-4.6426,-4.6326,-4.6301,-4.6301,-4.6301,-4.6301,-4.6301,-4.6301,-4.6301,-4.6301,-4.6301,-4.6301,-4.6351,-4.6476,-4.6476,-4.625,-4.5824,-4.5698,-4.5648,-4.5648,-4.5648,-4.5874,-4.6301,-4.6301,-4.6301,0.0,0.0,0.0,0.0,-2.7781,0.0,0.0,0.0,0.0,0.0,0.0,0.0,0.0,0.0,0.0,0.0,0.0,0.0,0.0,0.0,0.0,0.0,0.0,-3.4781,-3.4781,-3.4424,-3.4776,-3.6304,-3.5002,-3.4826,-3.6329,-3.6405,-3.6405,-3.6405,-3.6405,-3.6405,-3.6405,-3.6405,-3.6405,-3.6405,-3.6405,-3.6707,-3.7211,-3.7764,-3.8316,-3.8944,-3.9446,-3.9697,-3.9697,-3.9697,-3.9973,-4.0475,-4.105,-4.1275,-4.1426,-4.2585,-4.2986,-4.2986,-4.2986,-4.3338,-4.389,-4.4443,-4.5347,-4.6225,-4.6301,-4.6301,-4.6301,-4.6301,-4.6652,-4.6993,-4.7043,-4.7908,-4.8686,-4.8761,-4.9188,-4.959,-4.959,-4.959,-4.9565,-4.9515,-4.9515,-4.9138,-4.8008,-4.7832,-4.7631,-4.7129,-4.6993,-4.6853,-4.6376,-4.6301,-4.6301,-4.6301,-4.6301,-4.6301,-4.6301,-4.6301,-4.6301,-4.6301,-4.6301,-4.6527,-4.7029,-4.6993,-4.7004,-4.6954,-4.6476,-4.6225,-4.6225,-4.6225,-4.625,-4.6301,-4.6301,-4.6301,0.0,0.0,0.0,0.0,0.0,0.0,-2.4456,0.0,-2.3697,0.0,0.0,0.0,0.0,0.0,0.0,0.0,0.0,0.0,0.0,0.0,0.0,0.0,0.0,0.0,-3.3144,-3.337,-3.3972,-3.5303,-3.4474,-3.4474,-3.5805,-3.6182,-3.6405,-3.6405,-3.6405,-3.6405,-3.6405,-3.6405,-3.6405,-3.6405,-3.6405,-3.6857,-3.7663,-3.7889,-3.8492,-3.9371,-3.9597,-3.9697,-3.9697,-3.9697,-4.0023,-4.0576,-4.1075,-4.153,-4.1907,-4.2685,-4.2986,-4.3011,-4.3338,-4.3815,-4.4418,-4.5321,-4.5924,-4.6301,-4.6301,-4.6301,-4.6301,-4.6301,-4.6702,-4.7143,-4.7506,-4.8184,-4.8862,-4.9163,-4.9439,-4.959,-4.959,-4.959,-4.959,-4.959,-4.959,-4.9439,-4.8962,-4.8611,-4.8109,-4.7193,-4.738,-4.728,-4.6426,-4.6602,-4.6652,-4.6351,-4.6301,-4.6301,-4.6301,-4.6301,-4.6301,-4.6301,-4.6602,-4.7029,-4.7556,-4.7908,-4.8083,-4.8083,-4.7857,-4.7581,-4.723,-4.723,-4.723,-4.723,-4.6602,-4.6301,-3.0984,0.0,0.0,0.0,0.0,0.0,0.0,0.0,0.0,0.0,0.0,0.0,0.0,0.0,0.0,0.0,0.0,0.0,0.0,0.0,0.0,0.0,0.0,0.0,0.0,-3.219,-3.2817,-3.4374,0.0,-3.3746,-3.5408,-3.5931,-3.6207,-3.6405,-3.6405,-3.6405,-3.6405,-3.6405,-3.6405,-3.6405,-3.6556,-3.7086,-3.8015,-3.8165,-3.8768,-3.9697,-3.9697,-3.9697,-3.9697,-3.9697,-4.0099,-4.0777,-4.1125,-4.1756,-4.2489,-4.2891,-4.2986,-4.3062,-4.3614,-4.4267,-4.502,-4.5999,-4.6301,-4.6301,-4.6301,-4.6301,-4.6351,-4.6502,-4.6928,-4.7481,-4.8008,-4.856,-4.9113,-4.949,-4.959,-4.959,-4.959,-4.959,-4.959,-4.959,-4.959,-4.959,-4.959,-4.9264,-4.8686,-4.7732,-4.7908,-4.7807,-4.6878,-4.7104,-4.7129,-4.6602,-4.6527,-4.6476,-4.6326,-4.6301,-4.6301,-4.6301,-4.6954,-4.7506,-4.7883,-4.846,-4.8761,-4.8761,-4.8611,-4.8335,-4.7908,-4.7908,-4.7908,-4.7883,-4.6954,-4.6527,0.0,0.0,0.0,-2.9202,0.0,0.0,0.0,0.0,-2.6097,0.0,0.0,0.0,0.0,0.0,0.0,0.0,0.0,0.0,0.0,0.0,0.0,0.0,0.0,0.0,0.0,-3.0809,-3.1009,0.0,-3.1938,-3.2098,-3.5332,-3.5508,-3.5805,-3.638,-3.6405,-3.6405,-3.6405,-3.6405,-3.6405,-3.6405,-3.6958,-3.7462,-3.8015,-3.8592,-3.9145,-3.9697,-3.9697,-3.9697,-3.9697,-3.9697,-4.0325,-4.125,-4.1275,-4.2007,-4.2961,-4.2961,-4.2986,-4.3062,-4.3614,-4.4518,-4.5547,-4.6125,-4.6301,-4.6301,-4.6301,-4.6301,-4.6426,-4.6954,-4.7481,-4.8008,-4.8586,-4.9163,-4.9565,-4.959,-4.959,-4.959,-4.959,-4.959,-4.959,-4.959,-4.959,-4.959,-4.959,-4.959,-4.9364,-4.8812,-4.8736,-4.8535,-4.7933,-4.7883,-4.7682,-4.7093,-4.7043,-4.6842,-4.6351,-4.6301,-4.6301,-4.6301,-4.7305,-4.7883,-4.7908,-4.846,-4.8761,-4.8761,-4.8209,-4.7933,-4.7908,-4.7908,-4.7908,-4.7883,-4.7355,-4.7043,0.0,0.0,-3.5002,-3.1662,0.0,0.0,0.0,0.0,0.0,0.0,0.0,0.0,0.0,0.0,0.0,0.0,0.0,0.0,0.0,0.0,0.0,0.0,0.0,0.0,0.0,0.0,0.0,0.0,-3.1361,0.0,-3.4324,-3.5107,-3.5583,-3.5805,-3.6182,-3.6405,-3.6405,-3.6405,-3.6405,-3.6405,-3.691,-3.7462,-3.8015,-3.8592,-3.917,-3.9697,-3.9697,-3.9697,-3.9722,-4.0099,-4.0676,-4.1326,-4.1731,-4.2333,-4.2986,-4.2986,-4.3212,-4.3664,-4.4593,-4.5397,-4.6075,-4.625,-4.6301,-4.6301,-4.6301,-4.6577,-4.6903,-4.7018,-4.7782,-4.851,-4.8711,-4.9188,-4.959,-4.959,-4.959,-4.959,-4.959,-4.959,-4.959,-4.959,-4.959,-4.959,-4.959,-4.959,-4.9414,-4.8862,-4.9088,-4.8962,-4.8033,-4.8234,-4.8259,-4.7707,-4.7657,-4.7581,-4.738,-4.7054,-4.6702,-4.6326,-4.733,-4.7757,-4.7405,-4.8284,-4.8586,-4.8209,-4.8385,-4.8485,-4.8485,-4.8837,-4.9012,-4.9012,-4.846,-4.7832,-3.5855,-3.6232,0.0,-3.3445,-3.229,0.0,-2.7821,0.0,0.0,0.0,0.0,0.0,0.0,0.0,0.0,0.0,0.0,0.0,0.0,0.0,0.0,0.0,0.0,0.0,0.0,0.0,-2.895,-3.0507,-3.0382,0.0,0.0,-3.4605,-3.5282,-3.5483,-3.6081,-3.6405,-3.6405,-3.6405,-3.6505,-3.6707,-3.7211,-3.7764,-3.8341,-3.8894,-3.9346,-3.9697,-3.9697,-3.9798,-4.0023,-4.0375,-4.0953,-4.1656,-4.2062,-4.2539,-4.2986,-4.2986,-4.3463,-4.4217,-4.5171,-4.5849,-4.6301,-4.6301,-4.6301,-4.6351,-4.6552,-4.6853,-4.7143,-4.7606,-4.8234,-4.8812,-4.9012,-4.9339,-4.959,-4.959,-4.959,-4.959,-4.959,-4.959,-4.959,-4.959,-4.959,-4.959,-4.959,-4.959,-4.9464,-4.9113,-4.9364,-4.9339,-4.8611,-4.8837,-4.8837,-4.8284,-4.8209,-4.8134,-4.7933,-4.7431,-4.6918,-4.6627,-4.7255,-4.7481,-4.7093,-4.7807,-4.8008,-4.7631,-4.8184,-4.846,-4.846,-4.9213,-4.959,-4.959,-4.9238,-4.8586]},{"header":{"parameterUnit":"m.s-1","parameterCategory":1,"la1":30.6,"la2":29.2853,"lo1":-89.7004,"lo2":-87.6739,"dy":0.0162,"dx":0.0183,"nx":112,"ny":82,"refTime":"2026-03-05T12:00:00:Z","depth":0,"parameterNumber":3,"parameterNumberName":"V-component_of_WINDS"},"data":[0.0,0.0,0.0,0.0,0.0,0.0,0.0,0.0,0.0,0.0,0.0,0.0,0.0,0.0,0.0,0.0,0.0,0.0,0.0,0.0,0.0,0.0,0.0,0.0,0.0,0.0,0.0,0.0,0.0,0.0,0.0,0.0,0.0,0.0,0.0,0.0,0.0,0.0,0.0,0.0,0.0,0.0,0.0,0.0,0.0,0.0,0.0,0.0,0.0,0.0,0.0,0.0,0.0,0.0,0.0,0.0,0.0,0.0,0.0,0.0,0.0,0.0,0.0,0.0,0.0,0.0,0.0,0.0,0.0,0.0,0.0,0.0,0.0,0.0,0.0,0.0,0.0,0.0,0.0,0.0,0.0,0.0,0.0,0.0,0.0,0.0,0.0,0.0,0.0,0.0,2.9714,3.127,3.4532,3.6626,3.6626,3.5938,3.3814,2.9861,0.0,0.0,0.0,0.0,0.0,0.0,0.0,0.0,0.0,0.0,0.0,0.0,0.0,0.0,0.0,0.0,0.0,0.0,0.0,0.0,0.0,0.0,0.0,0.0,0.0,0.0,0.0,0.0,0.0,0.0,0.0,0.0,0.0,0.0,0.0,0.0,0.0,0.0,0.0,0.0,0.0,0.0,0.0,0.0,0.0,0.0,0.0,0.0,0.0,0.0,0.0,0.0,0.0,0.0,0.0,0.0,0.0,0.0,0.0,0.0,0.0,0.0,0.0,0.0,0.0,0.0,0.0,0.0,0.0,0.0,0.0,0.0,0.0,0.0,0.0,0.0,0.0,0.0,0.0,0.0,0.0,0.0,0.0,0.0,0.0,0.0,0.0,0.0,0.0,0.0,0.0,0.0,0.0,0.0,0.0,0.0,0.0,0.0,0.0,0.0,0.0,0.0,0.0,0.0,2.9235,3.4981,3.6596,3.7255,3.7255,3.6178,3.3814,2.9861,0.0,0.0,0.0,0.0,0.0,0.0,0.0,0.0,0.0,0.0,0.0,0.0,0.0,0.0,0.0,0.0,0.0,0.0,0.0,0.0,0.0,0.0,0.0,0.0,0.0,0.0,0.0,0.0,0.0,0.0,0.0,0.0,0.0,0.0,0.0,0.0,0.0,0.0,0.0,0.0,0.0,0.0,0.0,0.0,0.0,0.0,0.0,0.0,0.0,0.0,0.0,0.0,0.0,0.0,0.0,0.0,0.0,0.0,0.0,0.0,0.0,0.0,0.0,0.0,0.0,0.0,0.0,0.0,0.0,0.0,0.0,0.0,0.0,0.0,0.0,0.0,0.0,0.0,0.0,0.0,0.0,0.0,0.0,0.0,0.0,0.0,0.0,0.0,0.0,0.0,0.0,0.0,0.0,0.0,0.0,0.0,0.0,0.0,0.0,0.0,0.0,0.0,0.0,2.8697,3.124,3.6417,3.7554,3.7793,3.7434,3.6567,3.4203,2.9891,2.8004,0.0,0.0,0.0,0.0,0.0,0.0,0.0,0.0,0.0,0.0,0.0,0.0,0.0,0.0,0.0,0.0,0.0,0.0,0.0,0.0,0.0,0.0,0.0,0.0,0.0,0.0,0.0,0.0,0.0,0.0,0.0,0.0,0.0,0.0,0.0,0.0,0.0,0.0,0.0,0.0,0.0,0.0,0.0,0.0,0.0,0.0,0.0,0.0,0.0,0.0,0.0,0.0,0.0,0.0,0.0,0.0,0.0,0.0,0.0,0.0,0.0,0.0,0.0,0.0,0.0,0.0,0.0,0.0,0.0,0.0,0.0,0.0,0.0,0.0,0.0,0.0,0.0,0.0,0.0,0.0,0.0,0.0,0.0,0.0,0.0,0.0,0.0,0.0,0.0,0.0,0.0,0.0,0.0,0.0,0.0,0.0,0.0,0.0,0.0,0.0,0.0,0.0,3.1899,3.3872,3.7075,3.8153,3.8302,3.7494,3.6537,3.4204,2.9891,2.741,0.0,0.0,0.0,0.0,0.0,0.0,0.0,0.0,0.0,0.0,0.0,0.0,0.0,0.0,0.0,0.0,0.0,0.0,0.0,0.0,0.0,0.0,0.0,0.0,0.0,0.0,0.0,0.0,0.0,0.0,0.0,0.0,0.0,0.0,0.0,0.0,0.0,0.0,0.0,0.0,0.0,0.0,0.0,0.0,0.0,0.0,0.0,0.0,0.0,0.0,0.0,0.0,0.0,0.0,0.0,0.0,0.0,0.0,0.0,0.0,0.0,0.0,0.0,0.0,0.0,0.0,0.0,0.0,0.0,0.0,0.0,0.0,0.0,0.0,0.0,0.0,0.0,0.0,0.0,0.0,0.0,0.0,0.0,0.0,0.0,0.0,0.0,0.0,0.0,0.0,0.0,0.0,0.0,0.0,0.0,0.0,0.0,0.0,0.0,0.0,0.0,0.0,3.3095,3.6477,3.7315,3.8571,3.8811,3.7524,3.5699,3.3216,2.9831,2.6542,0.0,0.0,0.0,0.0,0.0,0.0,0.0,0.0,0.0,0.0,0.0,0.0,0.0,0.0,0.0,0.0,0.0,0.0,0.0,0.0,0.0,0.0,0.0,0.0,0.0,0.0,0.0,0.0,0.0,0.0,0.0,0.0,0.0,0.0,0.0,0.0,0.0,0.0,0.0,0.0,0.0,0.0,0.0,0.0,0.0,0.0,0.0,0.0,0.0,0.0,0.0,0.0,0.0,0.0,0.0,0.0,0.0,0.0,0.0,0.0,0.0,0.0,0.0,0.0,0.0,0.0,0.0,0.0,0.0,0.0,0.0,0.0,0.0,0.0,0.0,0.0,0.0,0.0,0.0,0.0,0.0,0.0,0.0,0.0,0.0,0.0,0.0,0.0,0.0,0.0,0.0,0.0,0.0,0.0,0.0,0.0,0.0,0.0,0.0,0.0,0.0,0.0,3.2766,3.5789,0.0,3.8242,3.8392,3.7494,3.6387,3.3994,2.9861,0.0,0.0,0.0,0.0,0.0,0.0,0.0,0.0,0.0,0.0,0.0,0.0,0.0,0.0,0.0,0.0,0.0,0.0,0.0,0.0,0.0,0.0,0.0,0.0,0.0,0.0,0.0,0.0,0.0,0.0,0.0,0.0,0.0,0.0,0.0,0.0,0.0,0.0,0.0,0.0,0.0,0.0,0.0,0.0,0.0,0.0,0.0,0.0,0.0,0.0,0.0,0.0,0.0,0.0,0.0,0.0,0.0,0.0,0.0,0.0,0.0,0.0,0.0,0.0,0.0,0.0,0.0,0.0,0.0,0.0,0.0,0.0,0.0,0.0,0.0,0.0,0.0,0.0,0.0,0.0,0.0,0.0,0.0,0.0,0.0,0.0,0.0,0.0,0.0,0.0,0.0,0.0,0.0,0.0,0.0,0.0,0.0,0.0,0.0,0.0,0.0,0.0,2.9262,3.3036,3.5848,0.0,3.7883,3.8033,3.7195,3.5968,3.3604,2.9861,0.0,0.0,0.0,0.0,0.0,0.0,0.0,0.0,0.0,0.0,0.0,0.0,0.0,0.0,0.0,0.0,0.0,0.0,0.0,0.0,0.0,0.0,0.0,0.0,0.0,0.0,0.0,0.0,0.0,0.0,0.0,0.0,0.0,0.0,0.0,0.0,0.0,0.0,0.0,0.0,0.0,0.0,0.0,0.0,0.0,0.0,0.0,0.0,0.0,0.0,0.0,0.0,0.0,0.0,0.0,0.0,0.0,0.0,0.0,0.0,0.0,0.0,0.0,0.0,0.0,0.0,0.0,0.0,0.0,0.0,0.0,0.0,0.0,0.0,0.0,0.0,0.0,0.0,0.0,0.0,0.0,0.0,0.0,0.0,0.0,0.0,0.0,0.0,0.0,0.0,0.0,0.0,0.0,0.0,0.0,0.0,0.0,0.0,0.0,0.0,0.0,0.0,2.9442,3.4173,3.7165,3.6567,3.7614,3.7853,3.6596,3.4053,3.1689,0.0,0.0,0.0,0.0,0.0,0.0,0.0,0.0,0.0,0.0,0.0,0.0,0.0,0.0,0.0,0.0,0.0,0.0,0.0,0.0,0.0,0.0,0.0,0.0,0.0,0.0,0.0,0.0,0.0,0.0,0.0,0.0,0.0,0.0,0.0,0.0,0.0,0.0,0.0,0.0,0.0,0.0,0.0,0.0,0.0,0.0,0.0,0.0,0.0,0.0,0.0,0.0,0.0,0.0,0.0,0.0,0.0,0.0,0.0,0.0,0.0,0.0,0.0,0.0,0.0,0.0,0.0,0.0,0.0,0.0,0.0,0.0,0.0,0.0,0.0,0.0,0.0,0.0,0.0,0.0,0.0,0.0,0.0,0.0,0.0,0.0,0.0,0.0,0.0,0.0,0.0,0.0,0.0,0.0,0.0,0.0,0.0,0.0,0.0,0.0,0.0,0.0,0.0,2.9442,3.4173,3.7345,3.7165,3.7464,3.7554,3.7165,3.513,3.2706,2.9801,0.0,0.0,0.0,0.0,0.0,0.0,0.0,0.0,0.0,0.0,0.0,0.0,0.0,0.0,0.0,0.0,0.0,0.0,0.0,0.0,0.0,0.0,0.0,0.0,0.0,0.0,0.0,0.0,0.0,0.0,0.0,0.0,0.0,0.0,0.0,0.0,0.0,0.0,0.0,0.0,0.0,0.0,0.0,0.0,0.0,0.0,0.0,0.0,0.0,0.0,0.0,0.0,0.0,0.0,0.0,0.0,0.0,0.0,0.0,0.0,0.0,0.0,0.0,0.0,0.0,0.0,0.0,0.0,0.0,0.0,0.0,0.0,0.0,0.0,0.0,0.0,0.0,0.0,0.0,0.0,0.0,0.0,0.0,0.0,0.0,0.0,0.0,0.0,0.0,0.0,0.0,0.0,0.0,0.0,0.0,0.0,0.0,0.0,0.0,0.0,0.0,0.0,2.9771,3.4322,3.7404,3.7404,3.7644,3.7584,3.7075,3.5459,3.3186,3.0068,0.0,0.0,0.0,0.0,0.0,0.0,0.0,0.0,0.0,0.0,0.0,0.0,0.0,0.0,0.0,0.0,0.0,0.0,0.0,0.0,0.0,0.0,0.0,0.0,0.0,0.0,0.0,0.0,0.0,0.0,0.0,0.0,0.0,0.0,0.0,0.0,0.0,0.0,0.0,0.0,0.0,0.0,0.0,0.0,0.0,0.0,0.0,0.0,0.0,0.0,0.0,0.0,0.0,0.0,0.0,0.0,0.0,0.0,0.0,0.0,0.0,0.0,0.0,0.0,0.0,0.0,0.0,0.0,0.0,0.0,0.0,0.0,0.0,0.0,0.0,0.0,0.0,0.0,0.0,0.0,0.0,0.0,0.0,0.0,0.0,0.0,0.0,0.0,0.0,0.0,0.0,0.0,0.0,0.0,0.0,0.0,0.0,0.0,0.0,0.0,0.0,0.0,3.0253,3.4502,3.7375,3.7494,3.8033,3.7913,3.6686,3.5312,3.3337,3.0589,0.0,0.0,0.0,0.0,0.0,0.0,0.0,0.0,0.0,0.0,0.0,0.0,0.0,0.0,0.0,0.0,0.0,0.0,0.0,0.0,0.0,0.0,0.0,0.0,0.0,0.0,0.0,0.0,0.0,0.0,0.0,0.0,0.0,0.0,0.0,0.0,0.0,0.0,0.0,0.0,0.0,0.0,0.0,0.0,0.0,0.0,0.0,0.0,0.0,0.0,0.0,0.0,0.0,0.0,0.0,0.0,0.0,0.0,0.0,0.0,2.9205,0.0,0.0,0.0,0.0,0.0,0.0,0.0,0.0,0.0,0.0,0.0,0.0,0.0,0.0,0.0,0.0,0.0,0.0,0.0,0.0,0.0,0.0,0.0,0.0,0.0,0.0,0.0,0.0,0.0,0.0,0.0,0.0,0.0,0.0,0.0,0.0,0.0,0.0,0.0,0.0,0.0,3.0193,3.4113,3.7075,3.8063,3.8302,3.8063,3.7285,3.5519,3.3576,3.1383,2.8971,0.0,0.0,0.0,0.0,0.0,0.0,0.0,0.0,0.0,0.0,0.0,0.0,0.0,0.0,0.0,0.0,0.0,0.0,0.0,0.0,0.0,0.0,0.0,0.0,0.0,0.0,0.0,0.0,0.0,0.0,0.0,0.0,0.0,0.0,0.0,0.0,0.0,0.0,0.0,0.0,0.0,0.0,0.0,0.0,0.0,0.0,0.0,0.0,0.0,0.0,0.0,0.0,0.0,0.0,0.0,0.0,0.0,0.0,0.0,0.0,3.0941,0.0,0.0,0.0,0.0,0.0,0.0,0.0,0.0,0.0,0.0,0.0,0.0,0.0,0.0,0.0,0.0,0.0,0.0,0.0,0.0,0.0,0.0,0.0,0.0,0.0,0.0,0.0,0.0,0.0,0.0,0.0,0.0,0.0,0.0,0.0,0.0,0.0,0.0,0.0,0.0,3.07,3.4483,3.7449,3.8756,3.8871,3.8601,3.7943,3.6088,3.4362,3.2939,3.0134,0.0,0.0,0.0,0.0,0.0,0.0,0.0,0.0,0.0,0.0,0.0,0.0,0.0,0.0,0.0,0.0,0.0,0.0,0.0,0.0,0.0,0.0,0.0,0.0,0.0,0.0,0.0,0.0,0.0,0.0,0.0,0.0,0.0,0.0,0.0,0.0,0.0,0.0,0.0,0.0,0.0,0.0,0.0,0.0,0.0,0.0,0.0,0.0,0.0,0.0,0.0,0.0,0.0,3.4416,3.5377,3.6592,3.6304,3.6637,3.7315,3.581,3.4961,3.4563,3.2766,0.0,0.0,0.0,0.0,0.0,0.0,0.0,0.0,0.0,0.0,0.0,0.0,0.0,0.0,0.0,0.0,0.0,0.0,0.0,0.0,0.0,0.0,0.0,0.0,3.2739,3.1814,0.0,0.0,0.0,0.0,0.0,0.0,0.0,0.0,0.0,0.0,0.0,0.0,3.1602,3.5306,3.8171,3.9305,3.9535,3.9288,3.8487,3.6716,3.5367,3.4561,3.1462,2.906,0.0,0.0,0.0,0.0,0.0,0.0,0.0,0.0,0.0,0.0,0.0,0.0,0.0,0.0,0.0,0.0,0.0,0.0,0.0,0.0,0.0,0.0,0.0,0.0,0.0,0.0,0.0,0.0,0.0,0.0,0.0,0.0,2.7136,2.7315,0.0,0.0,0.0,0.0,0.0,0.0,0.0,0.0,0.0,0.0,0.0,0.0,0.0,3.1776,3.2826,3.5377,3.7403,3.8829,3.9264,3.9995,4.0893,3.9501,3.9728,4.1113,4.1422,0.0,3.531,3.4442,0.0,0.0,0.0,0.0,0.0,0.0,0.0,0.0,0.0,0.0,0.0,0.0,0.0,0.0,0.0,0.0,0.0,0.0,0.0,0.0,0.0,0.0,3.6094,3.6969,3.7178,3.6678,0.0,3.1357,2.8117,2.7395,2.6214,0.0,0.0,0.0,0.0,0.0,0.0,0.0,3.2958,3.6501,3.8934,3.9501,4.0146,3.9964,3.8522,3.7135,3.6056,3.5393,3.315,3.1823,3.166,2.9772,0.0,0.0,0.0,0.0,0.0,0.0,0.0,0.0,0.0,0.0,0.0,0.0,0.0,0.0,0.0,0.0,0.0,0.0,0.0,0.0,0.0,0.0,0.0,0.0,0.0,0.0,0.0,0.0,0.0,2.6776,2.8158,2.8158,2.8244,2.7735,0.0,0.0,0.0,0.0,0.0,0.0,0.0,0.0,0.0,3.424,3.6107,3.7308,3.7871,4.0167,4.1881,4.2927,4.3455,4.4039,4.4639,4.3943,4.398,4.467,4.498,4.3754,4.1338,3.8635,3.6445,3.461,0.0,0.0,0.0,0.0,3.4058,3.5127,3.6287,3.6566,0.0,3.5103,0.0,0.0,0.0,0.0,0.0,0.0,0.0,0.0,0.0,0.0,3.7839,3.992,4.0027,3.9777,4.004,3.7132,3.3716,0.0,3.0085,2.8693,2.5885,0.0,0.0,0.0,0.0,3.2476,3.4021,3.6574,3.8423,3.8986,3.9323,3.9252,3.8574,3.7711,3.7274,3.7345,3.5001,3.358,3.3584,3.1847,2.9958,0.0,0.0,0.0,0.0,0.0,0.0,0.0,0.0,0.0,0.0,0.0,0.0,0.0,0.0,0.0,0.0,0.0,0.0,0.0,0.0,0.0,0.0,0.0,0.0,0.0,0.0,0.0,0.0,2.8427,2.9475,2.9116,3.0295,3.0219,0.0,0.0,0.0,0.0,0.0,0.0,3.3582,3.4877,3.6525,3.8707,4.1144,4.2435,4.259,4.4237,4.5502,4.6437,4.6176,4.6485,4.7261,4.6748,4.663,4.6874,4.7146,4.7081,4.6461,4.2758,4.042,3.8979,3.6642,3.5987,3.6594,3.7797,3.8788,3.9812,4.1589,4.1749,4.1029,3.9753,3.8305,3.662,3.4438,0.0,0.0,0.0,0.0,3.5152,3.7221,3.8614,4.0129,4.2818,4.2802,4.2488,4.3491,4.182,3.8982,0.0,3.3849,3.2539,2.9415,0.0,0.0,0.0,0.0,3.4774,3.5433,3.7319,3.8695,3.8905,3.9125,3.9125,3.8933,3.8362,3.8273,3.8778,3.6682,3.5309,3.5092,3.385,3.2192,3.0161,0.0,0.0,0.0,0.0,0.0,0.0,0.0,0.0,0.0,0.0,0.0,0.0,0.0,0.0,0.0,0.0,0.0,0.0,0.0,0.0,0.0,0.0,0.0,0.0,0.0,0.0,0.0,0.0,0.0,3.0552,3.3291,0.0,0.0,0.0,0.0,3.3544,3.4225,3.5836,3.8685,3.9548,4.0924,4.2933,4.4367,4.5387,4.6022,4.6516,4.7728,4.9548,4.671,4.6339,4.8174,4.6232,4.586,4.6795,4.7801,4.8147,4.7855,4.5859,4.3811,4.1914,4.1205,4.0589,4.0132,4.0815,4.1983,4.3149,4.2454,4.3127,4.4115,4.3234,4.1625,3.9909,3.9101,3.7987,0.0,0.0,3.8847,4.0415,4.2568,4.3644,4.4589,4.6207,4.5988,4.5313,4.4654,4.3821,4.2145,0.0,3.6724,3.5078,3.2991,0.0,3.34,3.3425,3.526,3.6918,3.7658,3.9649,4.0742,3.9916,4.0455,4.059,3.981,3.914,3.876,3.881,3.807,3.7352,3.6705,3.5893,3.4721,3.322,3.0398,0.0,0.0,0.0,0.0,0.0,0.0,0.0,0.0,0.0,0.0,0.0,0.0,0.0,0.0,0.0,0.0,0.0,0.0,0.0,0.0,0.0,0.0,0.0,0.0,0.0,0.0,0.0,0.0,3.3125,3.5737,0.0,3.4198,3.5134,3.6277,3.7261,3.8389,4.0068,4.2481,4.3753,4.5191,4.6904,4.8325,4.9227,4.946,4.9619,5.0219,5.1397,5.0336,5.0102,5.0591,4.9893,4.9742,5.008,5.0449,5.0689,5.0754,5.0092,4.8431,4.629,4.5668,4.5625,4.5991,4.6691,4.7314,4.7771,4.7923,4.8052,4.7807,4.606,4.4401,4.2994,4.2727,4.235,4.2027,4.2177,4.2556,4.3239,4.4471,4.4524,4.469,4.6387,4.6163,4.559,4.5925,4.5432,4.4361,4.2616,4.0689,3.8794,3.7119,3.7367,3.7489,3.6572,3.8265,3.9715,3.9986,4.0709,4.1089,4.0748,4.055,4.0306,4.0022,3.9759,3.9441,3.8949,3.8238,3.7523,3.6806,3.6028,3.5126,3.4134,3.2611,3.048,0.0,0.0,0.0,0.0,0.0,0.0,0.0,0.0,0.0,0.0,0.0,0.0,0.0,0.0,0.0,0.0,0.0,0.0,0.0,0.0,0.0,0.0,0.0,0.0,0.0,0.0,3.5549,3.5368,3.8622,4.0102,3.7897,3.926,4.0606,4.1329,4.2696,4.4192,4.5929,4.7425,4.8683,4.9697,5.0947,5.1589,5.1589,5.1128,5.1359,5.2168,5.1092,5.0704,5.0822,5.048,5.0358,5.0397,5.0709,5.0936,5.1163,5.1895,5.1225,4.9681,4.9128,4.9217,4.9796,5.0304,5.0473,5.0541,5.1048,5.0879,5.0236,4.8748,4.7631,4.6718,4.6244,4.6273,4.6326,4.5721,4.5765,4.6003,4.6152,4.5995,4.5962,4.6853,4.6653,4.6424,4.7038,4.6583,4.5838,4.5094,4.3335,4.1542,4.0324,4.0519,4.0493,3.9512,4.0629,4.1576,4.1576,4.1546,4.1572,4.1572,4.0906,4.0473,4.0473,4.0026,3.9537,3.9039,3.8294,3.7449,3.6434,3.5893,3.5126,3.4134,3.2916,3.1089,2.8586,0.0,0.0,0.0,0.0,0.0,0.0,0.0,0.0,0.0,0.0,0.0,0.0,0.0,0.0,0.0,0.0,0.0,0.0,0.0,0.0,0.0,0.0,0.0,3.16,3.5278,3.7748,3.7154,4.2007,4.4408,4.1834,4.3403,4.4906,4.5781,4.7058,4.8162,4.9021,5.0473,5.1219,5.1219,5.1961,5.2334,5.2301,5.1055,5.093,5.1813,4.88,4.7904,4.8841,4.7849,4.7396,4.7452,4.846,4.8851,4.9013,5.1043,5.1885,5.1861,5.1463,5.1252,5.1252,5.1252,5.1252,5.1252,5.1252,5.1219,5.1186,5.1219,5.1219,5.0882,4.9461,4.956,4.983,4.8379,4.845,4.8801,4.7836,4.8193,4.8639,4.7803,4.7723,4.7845,4.7906,4.7361,4.6616,4.5906,4.4525,4.324,4.2489,4.2354,4.2354,4.2354,4.2354,0.0,4.2354,4.2354,4.2354,4.2354,4.1711,4.1271,4.1238,3.9884,3.9005,3.8971,3.8261,3.7178,3.5667,3.5566,3.489,3.3457,3.1326,2.9447,2.7891,0.0,0.0,0.0,0.0,0.0,0.0,0.0,0.0,0.0,0.0,0.0,0.0,0.0,0.0,0.0,0.0,0.0,0.0,0.0,0.0,0.0,3.1809,3.3664,3.3664,3.674,3.9542,4.1003,4.3534,4.5372,4.5858,4.6989,4.806,4.8849,4.9742,5.035,5.0576,5.1488,5.1995,5.1995,5.2773,5.2774,5.2016,5.1678,5.1266,5.0817,4.9931,4.9694,4.9931,4.9655,4.9567,4.9567,4.9852,4.997,5.0009,5.0589,5.1229,5.196,5.2605,5.2875,5.2875,5.2875,5.2875,5.2875,5.2875,5.2,5.1057,5.1731,5.1128,5.0158,5.0485,5.0744,5.0683,4.9526,4.8995,4.8564,4.7575,4.6625,4.624,4.734,4.7109,4.7045,4.8402,4.8139,4.7564,4.7361,4.6515,4.5466,4.4209,4.3972,4.3972,4.3972,4.3972,0.0,4.3972,4.3972,4.3972,4.3972,4.3267,4.2591,4.2049,4.0629,3.9343,3.8261,3.6952,3.6039,3.5633,3.5081,3.4607,3.4201,3.3085,3.1765,0.0,0.0,0.0,0.0,0.0,0.0,0.0,0.0,0.0,0.0,0.0,0.0,0.0,0.0,0.0,0.0,0.0,0.0,0.0,0.0,0.0,0.0,3.4382,3.654,3.7648,3.9803,4.1851,4.3443,4.5642,4.7424,4.8394,4.8961,4.9652,5.0509,5.0859,5.1229,5.1624,5.2401,5.2606,5.2132,5.2601,5.2522,5.1921,5.1043,5.0518,5.0397,4.9527,4.9085,4.9085,4.9085,4.9085,4.9085,4.9085,4.9367,4.9734,4.9734,5.0358,0.0,0.0,0.0,0.0,0.0,5.3518,5.3518,5.3518,5.2499,5.1437,5.2472,5.1522,5.0213,5.1329,5.1095,5.0281,4.9846,4.9104,4.8217,4.7236,4.6391,4.5966,4.6657,4.6818,4.7104,4.8193,4.8399,4.8274,4.7939,4.7564,0.0,4.5703,4.5292,4.4959,4.4649,4.4615,4.4615,4.4615,4.4615,4.4615,4.4615,4.3876,4.3234,4.2794,4.1128,0.0,0.0,0.0,3.5825,3.5182,3.4438,0.0,0.0,0.0,0.0,0.0,0.0,0.0,0.0,3.0581,3.0431,0.0,0.0,0.0,0.0,0.0,0.0,0.0,0.0,0.0,0.0,0.0,0.0,0.0,0.0,0.0,0.0,3.7075,3.9715,4.2171,4.3419,4.4335,4.5117,4.7658,4.9501,4.9809,4.9809,5.022,5.1226,5.1192,5.1421,5.2202,0.0,0.0,0.0,0.0,5.1813,5.1561,4.9821,4.9336,5.0009,4.8198,4.7309,4.7309,4.7309,4.7309,4.7309,4.7369,4.7898,4.8759,4.8821,4.9506,5.0543,5.1516,5.2487,5.3348,5.3484,5.3518,5.3518,5.3518,0.0,0.0,5.3144,5.2098,5.065,5.1998,5.1036,4.9491,4.9717,4.8957,4.7858,4.6888,4.6816,4.6771,4.5887,4.657,4.7438,4.7572,4.8257,4.8692,4.8142,4.8007,4.78,4.7056,4.6312,4.5568,4.4852,4.4716,4.4716,4.4615,4.4615,4.4615,4.4615,0.0,0.0,4.3409,4.1508,4.0316,4.0248,3.8251,3.6355,3.481,3.4201,3.4235,3.4878,3.4945,3.5678,3.7066,3.7134,3.755,3.8159,3.3931,3.3051,0.0,0.0,0.0,0.0,0.0,0.0,0.0,0.0,0.0,0.0,0.0,0.0,0.0,0.0,0.0,3.6507,3.9529,4.2021,4.303,4.4689,4.6274,4.7452,4.7416,4.8141,5.0361,5.0568,5.0902,5.1709,5.2534,5.2703,5.2009,5.2106,5.174,5.0703,5.1451,5.1117,4.9416,4.9852,4.9367,4.7892,0.0,0.0,4.7309,4.7309,4.7309,4.7339,4.7878,4.8219,4.8437,4.898,4.9787,5.0788,5.1609,5.2029,5.2312,5.3179,5.3518,5.3518,5.3518,5.28,5.2065,5.3144,5.2098,5.0779,5.2702,5.1831,0.0,5.0273,4.9106,4.7601,4.6637,4.6029,4.5687,4.5665,4.5877,4.6339,4.7404,4.7737,4.803,4.8692,4.8781,4.8545,4.7804,4.709,4.6346,4.5602,4.55,4.5263,4.4682,4.4615,4.4615,4.4615,4.4479,4.4113,4.3443,4.2455,4.161,4.1035,3.9478,3.7889,3.6423,3.6806,3.711,3.7246,3.7821,3.8261,3.8565,3.9174,3.9851,4.0493,3.7855,3.7144,0.0,0.0,0.0,0.0,0.0,0.0,0.0,0.0,0.0,0.0,0.0,3.1061,3.2706,0.0,3.7195,3.9529,4.1564,4.3329,4.4676,4.5693,4.655,4.7225,4.7561,4.827,4.9668,5.0268,5.0765,5.1122,5.1631,5.1704,5.1155,5.1155,5.0665,4.9615,5.0087,4.986,4.8841,4.8841,4.8769,4.8517,4.8019,4.7967,4.8297,4.8297,4.8297,4.8297,4.867,4.882,4.885,4.9179,4.9583,5.021,5.163,5.2529,5.3012,5.3551,5.3881,5.4059,5.4059,5.3136,5.2065,5.3144,5.1704,5.0009,5.2062,5.0892,4.8922,4.9456,4.8593,4.7418,4.6929,4.6322,4.5848,4.595,4.6076,4.6427,4.7232,4.7795,4.8266,4.8897,4.9018,4.8883,4.8511,4.8139,4.753,4.6413,4.6244,4.5974,4.5229,4.5128,4.4993,4.4649,4.4615,4.4445,4.4045,4.3301,4.2388,4.1271,4.0527,3.958,3.8488,3.8802,3.9149,3.9546,3.9918,4.029,4.0629,4.1035,4.1576,4.226,4.1144,4.0663,0.0,0.0,0.0,0.0,0.0,0.0,0.0,0.0,2.9045,3.0802,3.2375,3.4053,3.5908,3.7853,3.9888,4.2231,4.3329,4.4426,4.604,4.6399,4.6459,4.6459,4.7696,4.8594,4.88,4.9575,5.0087,5.0087,5.0281,5.032,5.0087,5.0087,4.9615,4.8553,4.8841,4.8903,4.8727,4.8238,4.8572,4.9701,4.8857,4.879,4.9299,4.9299,4.9299,4.9299,4.9299,4.9299,4.9299,4.9299,4.9299,4.9479,5.1194,5.2517,5.3498,5.41,5.4537,5.4769,5.4634,5.3504,5.2227,5.2938,5.1192,4.9135,5.1043,4.9575,4.7495,4.8512,4.8072,4.7309,4.7309,4.692,4.6429,4.6309,4.6466,4.6756,4.7284,4.7893,4.8495,4.907,4.9086,4.9018,4.9018,4.9018,4.8545,4.7192,4.7022,4.6752,4.6007,4.5906,4.5669,4.5089,4.4919,4.4784,4.4615,4.4012,4.3064,4.1711,4.1644,4.1305,4.0553,4.0527,4.0874,4.161,4.1644,4.2016,4.2753,4.2895,4.3267,4.3849,4.3984,4.3673,3.054,2.9447,2.8805,2.9181,2.8876,2.9746,0.0,0.0,3.2884,3.6107,3.6825,3.7285,3.8686,4.0606,4.2261,4.309,4.4725,4.604,4.6249,4.683,4.7189,4.7189,4.7336,4.7849,4.8718,4.8891,4.8973,4.8973,4.9852,4.997,4.9013,4.8973,4.8512,4.7495,4.8917,4.9266,4.8367,4.9751,5.0044,4.9359,4.9224,4.9239,4.9299,4.9299,4.9299,4.9299,4.9299,4.9299,4.9299,4.9299,4.9299,4.9299,4.9538,5.0284,5.159,5.4464,5.5543,5.548,5.4837,5.3839,5.2781,5.2227,5.0595,4.9013,5.0204,4.9044,4.7495,4.8512,4.8072,4.7309,4.7309,4.7249,4.704,4.6471,4.6346,4.667,4.7908,4.7746,4.7869,4.9648,4.9458,4.9018,4.9018,4.9018,4.8714,4.7872,4.78,4.753,4.6752,4.6684,4.665,4.6549,4.5974,4.5297,4.4682,4.4513,4.4079,4.3206,4.3139,4.2828,4.2083,4.2049,4.2388,4.3139,4.3139,4.3538,4.4344,4.4993,4.5365,4.5466,4.6109,4.6007,3.3121,3.2488,3.2171,3.2536,3.3356,3.4547,3.6377,3.6507,3.6687,3.8348,3.9244,4.0008,4.0965,4.2432,4.3718,0.0,4.5514,4.6471,4.683,4.68,4.6741,4.6741,4.6381,4.6581,4.7801,4.846,4.8553,4.7946,4.8882,4.9044,4.7988,4.7904,4.7903,4.7848,4.8568,4.89,4.891,4.9565,4.9898,4.9823,4.9464,4.9464,4.9823,4.9434,4.9299,4.9299,4.9299,4.9299,4.9299,4.9299,4.9299,4.9344,4.9965,5.0513,5.1162,5.311,5.3981,5.4059,5.3759,5.3108,5.2244,5.1327,5.0048,4.8891,4.9336,4.846,4.7366,4.7807,4.7593,4.7309,4.7309,4.7309,4.7249,4.695,4.689,4.7105,4.7785,4.8181,4.8587,4.9127,4.9448,4.9492,4.9086,4.9018,4.8917,4.8612,4.8545,4.8274,4.753,4.7462,4.7293,4.6853,4.6515,4.621,4.5935,4.5872,4.5737,4.5399,4.5399,4.5229,4.4925,4.4925,4.506,4.5365,4.5399,4.5534,4.5872,4.6177,4.6346,4.6346,4.665,4.6853,3.4034,3.4152,3.4723,3.5546,3.6784,3.7957,3.8402,3.8929,3.9576,4.0425,4.1152,4.1901,4.2521,4.3539,4.4526,4.5185,4.5873,4.6518,4.7219,4.6741,4.6219,4.6052,4.5454,4.5394,4.6381,4.746,4.7901,4.7322,4.7988,4.8072,4.7352,4.7489,4.7788,4.8267,4.8446,4.882,4.9299,4.9299,4.9494,4.9972,4.9494,4.9523,4.9942,4.9494,4.9209,4.903,4.903,4.894,4.876,4.876,4.876,4.8849,4.9603,4.9916,5.0044,5.1096,5.208,5.2866,5.267,5.2058,5.1194,5.0267,4.9256,4.8377,4.8377,4.7861,4.7309,4.7309,4.7309,4.7309,4.7309,4.7309,4.7309,4.7309,4.7309,4.743,4.7896,4.831,4.8584,4.8529,4.8995,4.9213,4.8709,4.8829,4.8892,4.8639,4.8608,4.8534,4.8244,4.8176,4.7936,4.7192,4.709,4.7022,4.6819,4.6786,4.6786,4.6786,4.6786,4.6786,4.6786,4.6786,4.6786,4.6786,4.6786,4.6786,4.6786,4.6989,4.709,4.7124,4.7293,4.7699,3.2353,3.313,3.4994,3.7464,3.7748,3.8375,4.2071,4.1589,4.0962,4.3125,4.294,4.256,4.314,4.3828,4.4526,4.5185,4.5873,4.6518,4.7219,4.6741,4.6082,4.5394,4.4736,4.4377,0.0,4.5574,4.6621,4.7249,4.7352,4.7352,4.7309,4.7908,4.8267,4.8297,4.894,4.9299,4.9299,4.9299,4.9329,4.9329,4.9329,4.9329,4.9329,4.9329,4.897,4.8327,4.8327,4.7967,4.7369,4.7369,4.7369,4.7369,4.7412,4.7412,4.7512,4.8532,5.0457,5.2508,5.1795,5.0833,4.9843,4.9068,4.8198,4.7352,4.7352,4.7352,4.7309,4.7309,4.7309,4.7309,4.7309,4.7309,4.7309,4.7309,4.7309,4.7551,4.8564,4.7716,4.7107,4.8105,4.7979,4.7671,4.7671,4.8418,4.8671,4.777,4.7671,4.7966,4.8858,4.8984,4.868,4.7939,4.7872,4.7597,4.6853,4.6786,4.6786,4.6786,4.6786,4.6786,4.6786,4.6786,4.6786,4.6786,4.6786,4.6786,4.6786,4.753,4.7872,4.7872,4.8612,4.8951,3.4319,3.6098,3.8375,4.0091,4.1147,4.21,4.3259,4.3412,4.3349,4.3425,4.2874,4.247,4.2641,4.321,4.3868,4.4526,4.5574,4.6518,4.7219,4.6741,4.5903,4.4766,4.4436,0.0,0.0,0.0,0.0,4.6561,4.6651,4.683,4.7279,4.7519,4.7848,4.8267,4.8506,4.888,4.9299,4.9299,4.9299,4.9299,4.888,4.8386,4.7967,4.7967,4.7848,4.7638,4.7638,4.7519,4.7309,4.7309,4.7309,4.7309,4.7309,4.7309,4.7352,4.7679,4.8377,4.9147,4.9571,4.9478,4.8996,4.8091,4.7581,4.7309,4.7309,4.7309,4.7309,4.7309,4.7309,4.7309,4.7309,4.7309,4.7309,4.7309,4.7309,4.7366,4.7722,4.7967,4.7889,4.734,4.7681,4.7793,4.6823,4.6902,4.7036,4.6696,4.7205,4.7704,4.8032,4.8608,4.8917,4.868,4.8646,4.8545,4.8274,4.8274,4.8274,4.8274,4.8274,4.8274,4.8274,4.8274,4.8274,4.8274,4.8274,4.8274,4.8274,4.8511,4.8646,4.8646,4.8883,4.9018,3.6257,3.8117,4.0158,4.2362,4.316,4.355,4.3975,4.4018,4.3693,4.2788,4.2102,4.1632,4.1354,4.1444,4.2013,4.3389,4.4347,4.5394,4.677,4.6381,4.5544,4.4436,4.4107,4.3718,0.0,0.0,0.0,4.616,4.6279,4.6621,4.7279,4.7519,4.7848,4.8267,4.8297,4.8506,4.897,4.873,4.8566,4.8566,4.8147,4.7728,4.7309,4.7309,4.7309,4.7309,4.7309,4.7309,4.7309,4.7309,4.7309,4.7309,4.7309,4.7309,4.7309,4.7309,4.7309,4.7366,4.803,4.8252,4.8126,4.7495,4.7309,4.7309,4.7309,4.7309,4.7309,4.7309,4.7309,4.7309,4.7309,4.7309,4.7309,4.7309,4.7309,4.7309,4.7309,4.7413,4.7272,4.6385,4.6663,4.675,4.5864,4.5706,4.5706,4.5706,4.6205,4.6728,4.707,4.7901,4.8513,4.8513,4.8798,4.9018,4.9018,4.9018,4.9018,4.9018,4.9018,4.9018,4.9018,4.9018,4.9018,4.9018,4.9018,4.9018,4.9018,4.9018,4.9018,4.9018,4.9018,4.9154,3.8023,3.9159,4.0399,4.4095,4.371,4.2861,4.4326,4.3465,4.2141,4.1452,4.0696,4.0008,0.0,0.0,3.92,4.1841,4.2381,4.3399,4.5963,4.5783,4.5155,0.0,0.0,0.0,0.0,0.0,0.0,4.613,0.0,4.6561,4.7279,4.7908,4.8237,4.8237,4.8237,4.8237,4.8237,4.7608,4.7309,4.7309,4.7309,4.7309,4.7309,4.7309,4.7309,4.7309,4.7309,4.7309,4.7309,4.7309,4.7309,4.7309,4.7309,4.7309,4.7309,4.7309,4.7309,4.7309,4.7309,4.7309,4.7309,4.7309,4.7309,4.7309,4.7309,4.7309,4.7309,4.7309,4.7309,4.7309,4.7309,4.7309,4.7309,4.7309,4.7309,4.7309,4.7309,4.6292,4.5394,4.5364,4.5026,4.4768,4.4737,4.4737,4.4737,4.4737,4.4737,4.5079,4.5996,4.6968,4.7506,4.7506,4.8321,4.8861,4.8923,4.8923,4.8923,4.9018,4.9018,4.9018,4.9018,4.9018,4.9018,4.9018,4.9018,4.9018,4.9018,4.9018,4.9018,4.9018,4.9052,4.9424,3.9399,4.1265,4.2792,4.3579,4.3413,4.3079,4.302,4.2333,4.1294,4.0157,3.8631,3.7285,0.0,0.0,0.0,3.9888,4.2222,0.0,4.6082,4.6591,0.0,4.5185,0.0,4.5053,4.3928,4.3958,0.0,0.0,4.5843,4.6082,4.7249,4.7459,4.7549,4.7549,4.7549,4.7549,4.7549,4.7399,4.7309,4.7309,4.7309,4.7309,4.7309,4.7309,4.7309,4.7309,4.7309,4.7309,4.7309,4.7309,4.7309,4.7309,4.7309,4.7309,4.7309,4.7309,4.7309,4.7309,4.7309,4.7309,4.7309,4.7309,4.7309,4.7309,4.7309,4.7309,4.7309,4.7309,4.7309,4.7309,4.7309,4.7309,4.7309,4.7309,4.7309,4.7309,4.7309,4.704,4.6651,4.6142,4.518,4.4297,4.3784,4.3654,4.3654,4.3654,4.3654,4.4013,4.5042,4.5992,4.6558,4.6558,4.6765,4.7205,4.7901,4.7933,4.8257,4.8954,4.9018,4.9018,4.9018,4.9018,4.9018,4.9018,4.9018,4.9018,4.9018,4.9018,4.9018,4.9018,4.956,4.9898,4.0755,4.2402,4.3479,4.3358,4.329,4.2961,4.1773,4.0995,3.9888,3.7704,3.6148,3.4891,3.3933,3.4831,0.0,0.0,0.0,0.0,4.5574,4.6202,4.6262,0.0,4.6082,0.0,4.4855,4.5035,4.5514,0.0,4.5693,4.5873,4.7249,4.7309,4.7309,4.7309,4.7309,4.7309,4.7309,4.7309,4.7309,4.7309,4.7309,4.7309,4.7309,4.7309,4.7309,4.7309,0.0,4.7309,4.7309,4.7309,4.7309,4.7309,4.7309,4.7309,4.7309,4.7309,4.7309,4.7309,4.7309,4.7309,4.7309,4.7309,4.7309,4.7309,4.7309,4.7309,4.7309,4.7309,4.7309,4.7309,4.7309,4.7309,4.7309,4.7309,4.7309,4.7309,4.7309,4.707,4.6681,4.5992,4.5274,4.4526,4.3828,4.3738,4.3618,4.3349,4.329,4.3527,4.4082,4.5005,4.5742,4.6138,4.6558,4.7336,4.8594,4.8692,4.8919,4.9461,4.9796,4.983,4.9492,4.9796,4.9965,4.9965,4.9965,4.9965,4.9965,4.9965,4.9965,4.9999,5.0405,5.0744,4.2021,4.291,4.329,4.329,4.323,4.2701,4.0726,3.9619,3.8093,3.4771,0.0,3.2617,3.1331,3.2287,3.4113,3.6836,0.0,4.1534,4.4825,4.5364,4.5693,4.6339,4.6399,4.6202,4.5633,4.6022,4.6309,4.6441,4.5813,4.5992,4.7249,4.7309,4.7309,4.7309,4.7309,4.7309,4.7309,4.7309,4.7309,4.7309,4.7309,4.7309,4.7309,4.7309,4.7309,4.7309,4.7309,4.7309,4.7309,4.7309,4.7309,4.7309,4.7309,4.7309,4.7309,4.7309,4.7369,4.7429,4.7429,4.7489,4.7549,4.7369,4.7309,4.7309,4.7309,4.7309,4.7309,4.7309,4.7309,4.7309,4.7309,4.7309,4.7309,4.7309,4.7309,4.7309,4.7309,4.686,4.6262,4.5574,4.5424,4.5214,4.4556,4.4436,4.4257,4.3648,4.3469,4.3409,4.3409,4.4143,4.4924,4.5837,4.6588,4.7769,4.9551,4.9648,4.9676,4.9932,5.0541,5.0676,5.0101,5.071,5.1083,5.1185,5.1185,5.1185,5.1185,5.1185,5.1185,5.1185,5.1319,5.1691,4.2761,4.32,4.329,4.329,4.294,4.2013,4.0038,3.8242,0.0,0.0,3.1091,3.0013,2.9265,3.0614,3.2886,3.6118,3.8751,4.1534,4.4825,4.5783,4.6381,0.0,4.713,4.71,4.698,4.6561,0.0,0.0,4.6531,4.6471,4.7279,4.7309,4.7309,4.7309,4.7309,4.7309,4.7309,4.7309,4.7309,4.7309,4.7309,4.7309,4.7309,4.7309,4.7309,4.7309,4.7309,0.0,4.7309,4.7309,4.7309,4.7309,4.7309,4.7309,4.7309,4.7309,4.7638,4.8117,4.8117,4.8476,4.8745,4.7668,4.7309,4.7309,4.7309,4.7309,4.7309,4.7309,4.7309,4.7309,4.7309,4.7309,4.7309,4.7309,4.7309,4.7309,4.7309,4.7219,4.695,4.6262,4.6142,4.5933,4.5244,4.5125,4.5095,4.4975,4.4496,4.4137,4.4137,4.3778,4.3826,4.4567,4.4269,4.5029,4.7484,4.7211,4.757,4.9094,4.9323,4.9593,5.0067,5.0202,5.0574,5.1217,5.1185,5.1185,5.1185,5.1185,5.1185,5.1185,5.1826,5.2198,4.2931,4.329,4.329,4.329,4.2581,4.1183,3.8512,0.0,0.0,0.0,2.8697,2.7919,2.7619,2.9175,0.0,3.4442,3.6567,3.923,4.3249,4.4047,0.0,4.6591,4.71,4.7309,0.0,4.701,4.695,4.7279,4.701,4.698,4.7279,4.7309,4.7309,4.7309,4.7309,4.7309,4.7309,4.7309,4.7309,4.7309,4.7309,4.7309,4.7309,4.7309,4.7309,4.7309,4.7309,0.0,4.7309,4.7309,4.7309,4.7309,4.7309,4.7309,4.7339,4.7698,4.8027,4.8327,4.8686,4.906,4.9209,4.8536,4.8327,4.8327,4.8327,4.8327,4.8327,4.8327,4.8087,4.7818,4.7818,4.7549,4.7309,4.7309,4.7309,4.7309,4.7309,4.7309,4.7219,4.689,4.683,4.6621,4.5963,4.5843,4.5693,4.5334,4.5035,4.4825,4.4825,4.4556,4.4399,4.456,4.4264,4.4946,4.7089,4.7761,4.8454,4.9359,5.0621,5.1319,5.1251,5.1657,5.2029,5.2401,5.2401,5.2401,5.2401,5.2401,5.2401,5.2435,5.2773,5.2909,4.3021,4.329,4.329,4.329,4.2252,4.0337,3.7195,3.4711,0.0,2.8184,2.6866,2.6422,2.6572,0.0,3.0131,0.0,3.4502,3.6896,4.1542,4.244,4.3509,0.0,4.689,0.0,4.7309,4.7309,0.0,4.7309,4.7309,0.0,4.7309,4.7309,4.7309,4.7309,4.7309,4.7309,4.7309,4.7309,4.7309,4.7309,4.7309,4.7309,4.7309,4.7309,4.7309,4.7309,4.7309,0.0,0.0,4.7309,4.7309,4.7309,4.7309,4.7399,4.7578,4.8087,4.8446,4.8775,4.9284,4.9583,4.9719,4.9719,4.9539,4.9299,4.9299,4.9299,4.9299,4.9299,4.894,4.8506,4.8506,4.8117,4.7698,4.7549,4.7399,4.7309,4.7309,4.7309,4.7309,4.7309,4.7309,4.713,4.6621,4.6488,4.6352,4.5813,4.5603,4.5514,4.5514,4.5394,4.5212,4.4949,4.4903,4.5446,4.6834,4.8304,4.9159,4.9239,5.1187,5.2234,5.2001,5.2573,5.3112,5.3484,5.3518,5.3518,5.3518,5.3518,5.3518,5.3518,5.3518,5.3518,4.326,4.329,4.329,4.329,4.1893,3.9798,3.7105,0.0,3.0733,2.738,2.6153,2.5884,2.6482,2.7255,0.0,0.0,0.0,3.6211,4.0853,4.2521,4.4047,4.6082,0.0,0.0,4.7309,4.7309,0.0,4.7309,4.7309,0.0,4.7309,4.7309,4.7309,4.7309,4.7309,4.7309,4.7309,4.7309,4.7309,4.7309,4.7309,4.7309,4.7309,4.7309,4.7309,4.7309,4.7309,0.0,0.0,4.7309,4.7309,4.7309,4.7309,4.7668,4.8207,4.8267,4.9045,5.0016,5.0076,5.0495,5.105,5.105,5.0242,4.9299,4.9299,4.9299,4.9299,4.9299,4.9269,4.9209,4.9209,4.9179,4.897,4.8327,4.7728,4.7309,4.7309,4.7309,4.7309,4.7309,4.7309,4.7279,4.7219,4.7219,4.7189,4.713,4.6621,4.619,4.619,4.5693,4.5286,4.5248,4.5259,4.5425,4.5804,4.6547,4.7101,4.7425,4.8171,4.9289,5.0872,5.1006,5.1823,5.345,5.3518,5.3518,5.3518,5.3518,5.3518,5.3518,5.3518,5.3518,4.2432,4.303,4.32,4.2851,4.1265,3.902,3.5968,3.2736,2.9535,2.6602,2.5136,2.4717,2.5794,2.6213,2.756,0.0,0.0,0.0,3.7255,3.896,4.0816,4.3599,4.5214,0.0,0.0,0.0,4.7309,4.7309,4.7309,0.0,4.7309,4.7309,4.7309,4.7309,4.7309,4.7309,4.7309,4.7309,4.7309,4.7309,4.7309,4.7309,4.7309,4.7309,4.7309,4.7309,4.7309,0.0,0.0,4.7309,4.7309,4.7309,4.7309,4.7698,4.8327,4.876,4.9464,5.0255,5.0644,5.099,5.1229,5.1229,5.087,5.0451,5.0451,5.0451,5.0451,5.0451,5.0152,4.9853,4.9853,4.9553,4.9239,4.9,4.8686,4.8386,4.7967,4.7908,4.7788,4.7369,4.7309,4.7309,4.7309,4.7309,4.7309,4.7309,4.707,4.692,4.692,4.6681,4.6352,4.5963,4.5544,4.535,4.5455,4.6647,4.7692,4.8472,4.9111,5.0367,5.2332,5.181,5.2084,5.345,5.3518,5.3518,5.3518,5.3518,5.3518,5.3518,5.3518,5.3518,4.1692,4.2701,4.314,4.256,4.0726,3.8302,3.5222,3.1808,2.8577,2.6123,2.4537,2.3999,2.5345,2.5615,2.6572,2.9475,0.0,3.118,3.4981,3.6596,3.8571,0.0,0.0,4.4945,0.0,4.695,4.7309,4.7309,4.7309,0.0,4.7309,4.7309,4.7309,4.7309,4.7309,4.7309,4.7309,4.7309,4.7309,4.7309,4.7309,4.7309,4.7309,4.7309,4.7309,4.7309,4.7309,0.0,0.0,4.7309,4.7309,4.7309,4.7309,4.7818,4.8626,4.9149,4.9793,5.0554,5.105,5.1229,5.1229,5.1229,5.1229,5.1229,5.1229,5.1229,5.1229,5.1229,5.0853,5.0495,5.0495,5.0032,4.9553,4.9553,4.9449,4.9179,4.8686,4.8566,4.8446,4.7967,4.7878,4.7878,4.7878,4.7728,4.7608,4.7608,4.7429,4.7309,4.7309,4.7309,4.713,4.6681,4.6172,4.5723,4.5334,4.6731,4.7874,4.8459,4.9119,5.0397,5.2487,5.1849,5.2098,5.345,5.3518,5.3518,5.3518,5.3518,5.3518,5.3518,5.3518,5.3518,4.1205,4.2342,4.314,4.256,4.0404,3.7704,3.5102,3.1478,2.8038,2.6033,2.4537,2.3999,2.5345,2.5615,2.6273,2.8278,2.9684,0.0,3.504,3.6596,3.8392,0.0,0.0,4.295,4.4227,4.6142,4.7309,4.7309,4.7309,0.0,4.7309,4.7309,4.7309,4.7309,4.7309,4.7309,4.7309,4.7309,4.7309,4.7309,4.7309,4.7309,4.7309,4.7309,4.7309,4.7309,0.0,0.0,0.0,4.7309,4.7309,4.7309,4.7309,4.8117,4.9299,4.9299,5.0092,5.1199,5.1229,5.1229,5.1229,5.1229,5.1229,5.1229,5.1229,5.1229,5.1229,5.1229,5.1199,5.1199,5.1199,5.0674,5.0196,5.0196,4.9733,4.9299,4.9299,4.9299,4.9299,4.9299,4.9299,4.9299,4.9299,4.876,4.8267,4.8267,4.7728,4.7309,4.7309,4.7309,4.7309,4.7309,4.7279,4.6741,4.5394,4.6531,4.701,4.6352,4.6993,4.8282,5.032,5.0397,5.1373,5.3484,5.3518,5.3518,5.3518,5.3518,5.3518,5.3518,5.3518,5.3518,3.7195,3.8631,3.9589,3.8063,3.7045,3.5729,3.3066,3.0462,2.8038,2.601,2.4537,2.3879,2.4754,2.5292,2.6542,2.9445,3.0642,0.0,0.0,0.0,0.0,4.0516,4.3688,4.5903,0.0,0.0,4.7309,4.7309,4.7309,0.0,4.7309,4.7309,4.7309,4.7309,4.7309,4.7309,4.7309,4.7309,4.7309,4.7309,4.7309,4.7309,4.7309,4.7309,4.7309,0.0,0.0,0.0,0.0,4.7309,4.7309,4.7309,4.7309,4.8117,4.9299,4.9299,5.0092,5.1229,5.1229,5.1229,5.1229,5.1229,5.1229,5.1229,5.1229,5.1229,5.1229,5.1229,5.1229,5.1229,5.1229,5.105,5.0853,5.0853,5.075,5.0481,5.0032,4.9942,4.9793,4.9389,4.9299,4.9299,4.9299,4.9149,4.9,4.9,4.8386,4.7967,4.7967,4.7578,4.7309,4.7309,4.7309,4.713,4.6711,4.707,4.749,4.7987,4.7558,4.824,5.032,4.9694,5.0249,5.2348,5.2383,5.2765,5.3518,5.3518,5.3518,5.3518,5.3518,5.3518,3.4532,3.6357,3.7375,3.6178,3.531,3.4113,3.166,2.9445,2.735,2.5591,2.4358,2.3819,2.4485,2.4933,2.6063,2.8607,2.9804,0.0,0.0,0.0,0.0,4.0876,0.0,0.0,0.0,4.701,4.7309,4.7309,4.7309,4.7309,4.7309,4.7309,4.7309,4.7309,4.7309,4.7309,4.7309,4.7309,4.7309,4.7309,4.7309,4.7309,4.7309,4.7309,4.7309,0.0,0.0,0.0,0.0,4.7309,4.7309,4.7309,4.7309,4.8117,4.9299,4.9299,5.0092,5.1229,5.1229,5.1229,5.1229,5.1229,5.1229,5.1229,5.1229,5.1229,5.1229,5.1229,5.1229,5.1229,5.1229,5.1229,5.1229,5.1229,5.1229,5.1109,5.0644,5.0554,5.0481,5.0092,5.0002,5.0002,5.0002,4.9793,4.9643,4.9643,4.9075,4.87,4.87,4.8297,4.7967,4.7698,4.7668,4.7578,4.7339,4.7309,4.7581,4.8168,4.7636,4.803,4.9734,4.9135,4.9615,5.1303,5.134,5.1849,5.2904,5.3314,5.3518,5.3518,5.3518,5.3518,0.0,3.4923,3.5908,3.5818,3.4412,3.2587,3.0672,2.8308,0.0,2.4874,2.4066,2.3819,2.4545,2.4664,2.5143,2.6632,2.8008,0.0,0.0,3.5519,0.0,0.0,4.3748,0.0,4.5364,4.6561,4.7309,4.7309,4.7309,4.7309,4.7309,4.7309,4.7309,4.7309,4.7309,4.7309,4.7309,4.7309,4.7309,4.7309,4.7309,4.7309,4.7309,4.7309,4.7309,0.0,0.0,4.7309,0.0,4.7309,4.7309,4.7309,4.7309,4.8117,4.9299,4.9299,5.0092,5.1229,5.1229,5.1229,5.1229,5.1229,5.1229,5.1229,5.1229,5.1229,5.1229,5.1229,5.1229,5.1229,5.1229,5.1229,5.1229,5.1229,5.1229,5.1229,5.1229,5.1229,5.1229,5.1229,5.1229,5.1229,5.1229,5.0674,5.0255,5.0255,4.9763,4.9389,4.9389,4.9329,4.909,4.8416,4.8356,4.8117,4.7489,4.7369,4.7309,4.7309,4.7309,4.7722,4.8677,4.8677,4.9175,5.0242,5.0358,5.0892,5.1921,5.2904,5.3416,5.3518,5.3518,5.3518,2.7859,0.0,3.0193,2.9175,2.8963,2.8723,0.0,2.6632,2.5615,2.4784,2.4066,2.3969,2.5143,2.5352,2.6303,2.9116,0.0,3.2407,3.4711,0.0,0.0,4.5035,4.6112,4.6651,4.683,4.713,4.7309,4.7309,4.7309,4.7309,4.7309,4.7309,4.7309,4.7309,4.7309,4.7309,4.7309,4.7309,4.7309,4.7309,4.7309,4.7309,4.7309,4.7309,4.7309,4.7309,4.7309,4.7309,4.7309,4.7309,4.7309,4.7309,4.7309,4.8117,4.9299,4.9299,5.0092,5.1229,5.1229,5.1229,5.1229,5.1229,5.1229,5.1229,5.1229,5.1229,5.1229,5.1229,5.1229,5.1229,5.1229,5.1229,5.1229,5.1229,5.1229,5.1229,5.1229,5.1229,5.1229,5.1229,5.1229,5.1229,5.1229,5.1079,5.0943,5.0943,5.0421,5.0002,5.0002,4.9583,4.9239,4.909,4.909,4.903,4.885,4.7878,4.7309,4.7309,4.7309,4.7409,4.7636,4.7636,4.8157,4.9135,4.997,5.0892,5.1921,5.2137,5.2697,5.3518,5.3518,5.3518,2.5016,2.6871,2.8487,2.8068,2.8034,2.7884,2.7225,2.6063,2.4933,2.4276,2.3849,2.3909,2.4933,2.5382,2.6482,0.0,3.1001,0.0,0.0,0.0,4.3808,4.6471,4.71,4.7309,0.0,4.7309,4.7309,4.7309,4.7309,4.7309,4.7309,4.7309,4.7309,4.7309,4.7309,4.7309,4.7309,4.7309,4.7309,4.7309,4.7309,4.7309,4.7309,4.7309,4.7309,4.7309,4.7309,4.7309,4.7309,4.7309,4.7309,4.7309,4.7309,4.8117,4.9299,4.9299,5.0092,5.1229,5.1229,5.1229,5.1229,5.1229,5.1229,5.1229,5.1229,5.1229,5.1229,5.1229,5.1229,5.1229,5.1229,5.1229,5.1229,5.1229,5.1229,5.1229,5.1229,5.1229,5.1229,5.1229,5.1229,5.1229,5.1229,5.1229,5.1229,5.1229,5.0853,5.0644,5.0644,5.0391,5.0032,4.9733,4.9703,4.9583,4.9329,4.8626,4.8087,4.7788,4.7489,4.7309,4.7309,4.7309,4.7581,4.8115,4.9615,5.0665,5.1192,5.217,5.2939,5.3518,5.3518,5.3518,2.3969,2.6273,2.8637,2.8786,2.8547,2.8128,2.7465,0.0,0.0,0.0,0.0,0.0,0.0,2.5741,0.0,0.0,0.0,0.0,4.0816,4.2761,4.4466,4.701,4.7309,0.0,4.7309,4.7309,4.7309,4.7309,4.7309,4.7309,4.7309,4.7309,4.7309,4.7309,4.7309,4.7309,4.7309,4.7309,4.7309,4.7309,4.7309,4.7309,4.7309,4.7309,4.7309,4.7309,0.0,0.0,4.7309,4.7309,4.7309,4.7309,4.7309,4.8117,4.9299,4.9299,5.0092,5.1229,5.1229,5.1229,5.1229,5.1229,5.1229,5.1229,5.1229,5.1229,5.1229,5.1229,5.1229,5.1229,5.1229,5.1229,5.1229,5.1229,5.1229,5.1229,5.1229,5.1229,5.1229,5.1229,5.1229,5.1229,5.1229,5.1229,5.1229,5.1229,5.1229,5.1229,5.1229,5.1229,5.0973,5.0405,5.0345,5.0182,4.9613,4.9509,4.9164,4.8626,4.7967,4.7608,4.7608,4.7608,4.7608,4.7608,4.9315,5.0405,5.0717,5.2464,5.3515,5.3856,5.3652,5.3549,2.5674,2.735,2.8098,2.592,2.6153,2.6722,2.6063,2.5674,0.0,0.0,0.0,0.0,0.0,2.8517,2.9624,0.0,0.0,3.8033,0.0,0.0,4.4945,4.707,0.0,4.7309,4.7309,4.7309,4.7309,4.7309,4.7309,4.7309,4.7309,4.7309,4.7309,4.7309,4.7309,4.7309,4.7309,4.7309,4.7309,4.7309,4.7309,4.7309,4.7309,4.7309,4.7309,4.7309,0.0,4.7309,4.7309,4.7309,4.7309,4.7309,4.7309,4.8117,4.9299,4.9299,5.0092,5.1229,5.1229,5.1229,5.1229,5.1229,5.1229,5.1229,5.1229,5.1229,5.1229,5.1229,5.1229,5.1229,5.1229,5.1229,5.1229,5.1229,5.1229,5.1229,5.1229,5.1229,5.1229,5.1229,5.1229,5.1229,5.1229,5.1229,5.1229,5.1229,5.1229,5.1229,5.1229,5.1229,5.1169,5.1079,5.1079,5.102,5.093,5.0421,5.0016,4.9897,4.9314,4.9,4.9,4.9,4.9,4.9,4.9281,5.0364,5.2197,5.2513,5.3616,5.5343,5.4389,5.3919,2.4717,2.6213,2.732,2.6422,2.747,2.8547,2.7919,2.72,2.6782,0.0,0.0,0.0,0.0,0.0,3.2706,3.5759,0.0,4.0157,4.3379,4.4137,4.5065,0.0,0.0,4.7309,4.7309,4.7309,4.7309,4.7309,4.7309,4.7309,4.7309,4.7309,4.7309,4.7309,4.7309,4.7309,4.7309,4.7309,4.7309,4.7309,4.7309,4.7309,4.7309,4.7309,4.7309,4.7309,0.0,4.7309,4.7309,4.7309,4.7309,4.7309,4.7309,4.8117,4.9389,5.0062,5.069,5.1229,5.1229,5.1229,5.1229,5.1229,5.1229,5.1229,5.1229,5.1229,5.1229,5.1229,5.1229,5.1229,5.1229,5.1229,5.1229,5.1229,5.1229,5.1229,5.1229,5.1229,5.1229,5.1229,5.1229,5.1229,5.1229,5.1229,5.1229,5.1229,5.1229,5.1229,5.1229,5.1229,5.1229,5.1229,5.1229,5.1229,5.1229,5.093,5.0481,4.9763,4.9434,4.9299,4.9299,4.9299,4.9299,4.9299,4.9819,5.0586,5.158,5.2122,5.2914,5.3874,5.3343,5.3078,2.4448,2.5644,2.7046,2.7854,2.9056,3.0103,3.0223,2.9262,2.8573,0.0,0.0,0.0,0.0,3.3185,0.0,3.9499,4.0666,4.1953,4.4436,4.4796,4.5424,4.71,4.7309,4.7309,4.7309,4.7309,4.7309,4.7309,4.7309,4.7309,4.7309,4.7309,4.7309,4.7309,4.716,4.716,4.7309,4.716,4.716,4.7309,4.7309,4.7309,4.7309,4.7309,4.7309,4.7309,4.7309,4.7309,4.7309,4.7309,4.7309,4.7309,4.7309,4.8117,4.9479,5.075,5.1229,5.1229,5.1229,5.1229,5.1229,5.1229,5.1229,5.1229,5.1229,5.1229,5.1229,5.1229,5.1229,5.1229,5.1229,5.1229,5.1229,5.1229,5.1229,5.1229,5.1229,5.1229,5.1259,5.1409,5.1439,5.1498,5.1648,5.1558,5.1439,5.1439,5.1319,5.1229,5.1229,5.1229,5.1229,5.1229,5.1229,5.1229,5.1229,5.1229,5.078,4.9793,4.9733,4.9733,4.9733,4.9733,4.9733,4.9733,5.0496,5.1005,5.1277,5.2052,5.2558,5.2803,5.2558,5.2435,2.6986,2.7405,2.7854,2.9142,2.9086,2.9355,3.1749,3.127,3.0821,3.2736,0.0,0.0,0.0,3.6297,3.8931,4.1722,4.2701,4.3798,4.5861,0.0,4.6471,4.7219,4.7309,4.7309,4.7309,4.7309,4.7309,4.7309,4.7309,4.7309,4.7309,4.7309,4.7309,4.7309,4.6711,4.6681,4.7309,4.6711,4.6711,4.7309,4.7309,4.7309,4.7309,4.7309,4.7309,4.7309,4.7309,4.7309,4.7309,4.7309,4.7309,4.7309,4.7309,4.8117,4.9479,5.075,5.1229,5.1229,5.1229,5.1229,5.1229,5.1229,5.1229,5.1229,5.1229,5.1229,5.1229,5.1229,5.1229,5.1229,5.1229,5.1229,5.1229,5.1229,5.1229,5.1229,5.1229,5.1229,5.1409,5.2007,5.2127,5.2336,5.2935,5.2546,5.2127,5.2127,5.1618,5.1229,5.1229,5.1229,5.1229,5.1229,5.1229,5.1229,5.1229,5.1229,5.1169,5.1079,5.1079,5.1079,5.1079,5.1079,5.1079,5.1079,5.1096,5.1713,5.2745,5.2834,5.3369,5.4429,5.3326,5.2878,2.5704,2.6632,2.7824,2.8727,2.9714,0.0,0.0,3.3365,3.4173,3.6118,3.6537,0.0,0.0,0.0,4.0367,4.2611,4.3509,4.4456,4.607,4.6279,4.6561,4.7219,4.7309,4.7309,4.7309,4.7309,4.7309,4.7309,4.7309,4.7309,4.7309,4.7309,4.713,4.6711,4.6399,4.6232,4.6052,4.6232,4.6441,4.6711,4.71,4.7309,4.7309,4.7309,4.7309,4.7309,4.7309,4.7309,4.7309,4.7309,4.7309,4.7399,4.8207,4.888,4.9479,5.075,5.1229,5.1229,5.1229,5.1229,5.1229,5.1229,5.1229,5.1229,5.1229,5.1229,5.1229,5.1229,5.1498,5.1738,5.1319,5.1528,5.1828,5.1828,5.2127,5.2426,5.2426,5.2426,5.2516,5.2755,5.2815,5.2875,5.3144,5.2965,5.2815,5.2815,5.2606,5.2426,5.2426,5.2426,5.2426,5.2426,5.2067,5.1828,5.1828,5.1439,5.1229,5.1229,5.1229,5.1229,5.1229,5.1229,5.1229,5.1229,5.1229,5.1433,5.1835,5.1835,5.2063,5.2485,5.2063,5.1835,2.5143,2.6063,2.7495,2.8368,0.0,0.0,3.4292,3.528,3.6537,3.911,3.9469,3.9559,4.0277,0.0,0.0,0.0,4.4047,4.5095,4.6441,4.6621,4.68,4.7249,4.7309,4.7309,4.7309,4.7309,4.7309,4.7309,4.7309,4.7309,4.7309,4.71,4.68,4.6279,4.5861,4.5574,4.5304,4.5753,4.6112,4.6279,4.698,4.7309,4.7309,4.7309,4.7309,4.7309,4.7309,4.7309,4.7309,4.7309,4.7309,4.7429,4.879,4.9299,4.9479,5.075,5.1229,5.1229,5.1229,5.1229,5.1229,5.1229,5.1229,5.1229,5.1229,5.1229,5.1229,5.1229,5.1678,5.2097,5.1648,5.2007,5.2516,5.2516,5.2845,5.3174,5.3174,5.3174,5.3234,5.3473,5.3503,5.3563,5.3773,5.3653,5.3503,5.3503,5.3324,5.3174,5.3174,5.3174,5.3174,5.3174,5.2785,5.2426,5.2217,5.1798,5.1439,5.1229,5.1229,5.1229,5.1229,5.1229,5.1229,5.1229,5.1229,5.1229,5.1229,5.1229,5.1229,5.1229,5.1229,5.1229,2.5974,2.6093,2.6931,2.8278,0.0,0.0,3.6686,3.6956,3.7678,4.1602,4.1901,4.1205,4.0546,4.0965,0.0,4.308,4.4436,4.5783,4.713,4.7309,4.7309,4.7309,4.7309,4.7309,4.7309,4.7309,4.7309,4.7309,4.7309,4.7309,4.7309,4.6681,4.6279,4.6249,4.5005,4.4616,4.5274,4.5274,4.5633,4.6279,4.698,4.7309,4.7309,4.7309,4.7309,4.7309,4.7309,4.7309,4.7309,4.7309,4.7309,4.7429,4.8745,4.9299,4.9479,5.072,5.1199,5.1229,5.1229,5.1229,5.1229,5.1229,5.1229,5.1229,5.1229,5.1229,5.1229,5.1229,5.1708,5.2217,5.2217,5.2695,5.3204,5.3204,5.3204,5.3204,5.3204,5.3204,5.3414,5.4072,5.4221,5.4431,5.5089,5.464,5.4221,5.4221,5.3623,5.3204,5.3204,5.3204,5.3204,5.3204,5.3204,5.2935,5.2276,5.2217,5.1917,5.1259,5.1229,5.1229,5.1229,5.1229,5.1229,5.1229,5.1229,5.1229,5.1229,5.1229,5.1229,5.1229,5.1229,5.1229,2.5974,2.6782,2.8308,2.9624,0.0,0.0,0.0,3.9409,0.0,0.0,4.3539,4.2701,4.2453,4.2641,0.0,4.3898,4.5155,4.6322,4.7189,4.7309,4.7309,4.7309,4.7309,4.7309,4.7309,4.7309,4.7309,4.7309,4.7309,4.71,4.6651,4.6399,4.5903,4.4945,4.4526,4.4197,4.3888,4.4377,4.4945,4.5603,4.6292,4.686,4.7309,4.7309,4.7309,4.7309,4.7309,4.7309,4.7309,4.7309,4.7309,4.7399,4.8237,4.8865,4.9419,5.0212,5.0794,5.1229,5.1229,5.1229,5.1229,5.1229,5.1229,5.1229,5.1229,5.1229,5.1319,5.1768,5.2396,5.2995,5.3473,5.4102,5.4491,5.4012,5.4251,5.461,5.461,5.461,5.467,5.485,5.491,5.497,5.5149,5.5029,5.491,5.491,5.473,5.461,5.461,5.461,5.461,5.461,5.4192,5.3832,5.3623,5.3174,5.2606,5.1947,5.1917,5.1708,5.1229,5.1229,5.1229,5.1229,5.1229,5.1229,5.1229,5.1229,5.1229,5.1229,5.1229,5.1229,2.6871,2.7859,2.9415,3.124,3.4113,3.7285,4.0307,0.0,0.0,0.0,4.4496,4.3977,4.3738,4.3748,0.0,4.4586,4.5603,4.6518,4.7219,4.7309,4.7309,4.7309,4.7309,4.7309,4.7309,4.7309,4.7309,4.7309,4.7309,4.701,4.6309,4.6052,4.5424,4.4347,4.4047,4.3708,4.329,4.3947,4.4496,4.4915,4.5603,4.6262,4.692,4.7189,4.7309,4.7309,4.7309,4.7309,4.7309,4.7309,4.7309,4.7369,4.8027,4.8686,4.9389,5.0002,5.0614,5.1229,5.1229,5.1229,5.1229,5.1229,5.1229,5.1229,5.1229,5.1229,5.1349,5.2007,5.2665,5.3324,5.4042,5.47,5.5089,5.47,5.491,5.5179,5.5179,5.5179,5.5179,5.5179,5.5179,5.5179,5.5179,5.5179,5.5179,5.5179,5.5179,5.5179,5.5179,5.5179,5.5179,5.5179,5.485,5.4491,5.4221,5.3832,5.3294,5.2636,5.2606,5.2426,5.2007,5.1498,5.1229,5.1229,5.1229,5.1229,5.1229,5.1229,5.1229,5.1229,5.1498,5.1618,2.8188,2.9116,3.0402,3.3036,3.531,0.0,4.2402,4.4317,4.5035,4.4496,0.0,4.5035,4.4496,4.4407,4.4616,4.5274,4.5963,4.6621,4.7219,4.7309,4.7309,4.7309,4.7309,4.7309,4.7309,4.7309,4.7309,4.7309,4.7309,4.698,4.6262,4.5633,4.4975,4.4257,4.3618,4.329,4.329,4.3888,4.4257,4.4317,4.4915,4.5603,4.6309,4.695,4.7249,4.7309,4.7309,4.7309,4.7309,4.7309,4.7309,4.7369,4.7967,4.867,4.9389,4.9942,5.0554,5.1229,5.1229,5.1229,5.1229,5.1229,5.1229,5.1229,5.1229,5.1229,5.1379,5.2097,5.2725,5.3354,5.4102,5.473,5.5179,5.5179,5.5179,5.5179,5.5179,5.5179,5.5179,5.5179,5.5179,5.5179,5.5179,5.5179,5.5179,5.5179,5.5179,5.5179,5.5179,5.5179,5.5179,5.5179,5.5179,5.494,5.4341,5.4311,5.4012,5.3324,5.3264,5.3234,5.3174,5.2037,5.1409,5.1409,5.1409,5.1409,5.1409,5.1409,5.1409,5.1409,5.2007,5.2276,2.7735,2.9415,0.0,3.4412,3.7734,4.0846,4.288,4.3958,4.4616,4.5005,4.4796,4.4646,4.5005,4.5095,4.5304,4.5992,4.6651,4.716,4.7279,4.7309,4.7309,4.7309,4.7309,4.7309,4.7309,4.7309,4.7309,4.7309,4.7309,4.677,4.5574,4.5364,4.4766,4.3529,4.3379,4.329,4.329,4.3439,4.3768,4.4317,4.4466,4.5155,4.6279,4.6429,4.68,4.7309,4.7309,4.7309,4.7309,4.7309,4.7309,4.7309,4.7459,4.8237,4.9329,4.9434,5.0212,5.1229,5.1229,5.1229,5.1229,5.1229,5.1229,5.1229,5.1229,5.1229,5.1468,5.2636,5.3084,5.3473,5.467,5.5089,5.5179,5.5179,5.5179,5.5179,5.5179,5.5179,5.5179,5.5179,5.5179,5.5179,5.5179,5.5179,5.5179,5.5179,5.5179,5.5179,5.5179,5.5179,5.5179,5.5179,5.5179,5.5119,5.4999,5.497,5.47,5.4042,5.3982,5.3743,5.3204,5.2905,5.2755,5.2755,5.2755,5.2755,5.2755,5.2755,5.2755,5.2755,5.2905,5.2965,2.8547,0.0,0.0,3.6866,0.0,4.1713,4.2991,4.3559,4.3917,4.4287,4.4586,4.4885,4.5244,4.5304,4.5514,4.6202,4.6621,4.695,4.7249,4.7309,4.7309,4.7309,4.7309,4.7309,4.7309,4.7309,4.7309,4.7309,4.701,4.6381,4.5334,4.5005,4.4377,4.3319,4.329,4.329,4.329,4.329,4.3469,4.3798,4.3798,4.4515,4.5843,4.6501,4.698,4.7309,4.7309,4.7309,4.7309,4.7309,4.7309,4.7309,4.7309,4.8117,4.9299,4.9299,5.0092,5.1229,5.1229,5.1229,5.1229,5.1229,5.1229,5.1229,5.1229,5.1229,5.1498,5.2815,5.3174,5.3503,5.485,5.5179,5.5179,5.5179,5.5179,5.5179,5.5179,5.5179,5.5179,5.5179,5.5179,5.5179,5.5179,5.5179,5.5179,5.5179,5.5179,5.5179,5.5179,5.5179,5.5179,5.5179,5.5179,5.5179,5.5179,5.5179,5.5029,5.47,5.467,5.4521,5.4162,5.4132,5.3832,5.3204,5.3174,5.3174,5.3174,5.3174,5.3174,5.3204,5.3533,5.3683,2.9056,0.0,3.4023,3.899,4.0816,0.0,4.288,4.323,4.329,4.329,4.4197,4.4975,4.5095,4.5125,4.5364,4.6022,4.6142,4.6381,4.704,4.713,4.7189,4.7309,4.7309,4.7309,4.7309,4.7309,4.7249,4.716,4.6621,4.5963,4.5155,4.4616,4.4018,4.3319,4.329,4.329,4.329,4.329,4.329,4.329,4.3409,4.4137,4.5334,4.6561,4.7189,4.7309,4.7309,4.7309,4.7309,4.7309,4.7309,4.7309,4.7309,4.8117,4.9299,4.9299,5.0092,5.1229,5.1229,5.1229,5.1229,5.1229,5.1229,5.1229,5.1229,5.1289,5.1648,5.2845,5.3264,5.3623,5.488,5.5179,5.5179,5.5179,5.5179,5.5179,5.5179,5.5179,5.5179,5.5179,5.5179,5.5179,5.5179,5.5179,5.5179,5.5179,5.5179,5.5149,5.5029,5.5119,5.5149,5.5029,5.5119,5.5179,5.5179,5.5179,5.5179,5.5179,5.5179,5.5179,5.5179,5.5179,5.467,5.3563,5.3533,5.3533,5.3533,5.3533,5.3533,5.3533,5.4102,5.4371,2.6841,0.0,3.5102,0.0,4.0457,4.1602,0.0,0.0,4.329,0.0,4.3439,4.3738,4.4347,4.4436,4.4676,4.5334,4.5424,4.5663,4.6352,4.6399,4.6681,4.7249,4.7309,4.7309,4.7309,4.7309,4.707,4.6501,4.6339,4.5783,4.4496,4.4377,4.4018,4.3319,4.329,4.329,4.329,4.329,4.329,4.329,4.3858,4.4556,4.5334,4.6112,4.677,4.7309,4.7309,4.7309,4.7309,4.7309,4.7309,4.7309,4.7309,4.8117,4.9299,4.9299,5.0092,5.1229,5.1229,5.1229,5.1229,5.1229,5.1229,5.1229,5.1229,5.1618,5.2217,5.2965,5.3623,5.4251,5.4999,5.5179,5.5179,5.5179,5.5179,5.5179,5.5179,5.5179,5.5179,5.5179,5.5179,5.5179,5.5179,5.5179,5.5179,5.5179,5.5179,5.497,5.4431,5.485,5.497,5.4401,5.485,5.5179,5.5179,5.5179,5.5179,5.5179,5.5179,5.5179,5.5179,5.5179,5.5119,5.494,5.491,5.491,5.491,5.491,5.491,5.494,5.5029,5.5059,2.9026,3.1869,3.4891,0.0,4.0127,4.0636,4.2081,0.0,4.288,4.323,4.329,4.3379,4.3678,4.3738,4.3947,4.4646,4.4736,4.4975,4.5663,4.5753,4.5992,4.6681,4.6741,4.689,4.7279,4.698,4.6621,4.6309,4.5592,4.4945,4.4347,4.3917,4.3589,4.329,4.329,4.329,4.329,4.329,4.329,4.329,4.3589,4.4317,4.5304,4.5603,4.6322,4.7309,4.7309,4.7309,4.7309,4.7309,4.7309,4.7309,4.7309,4.8117,4.9299,4.9299,5.0092,5.1229,5.1229,5.1229,5.1229,5.1229,5.1229,5.1229,5.1229,5.1678,5.2336,5.2995,5.3683,5.4371,5.5029,5.5179,5.5179,5.5179,5.5179,5.5179,5.5179,5.5179,5.5179,5.5179,5.5179,5.5179,5.5179,5.5179,5.5179,5.5179,5.488,5.4551,5.4251,5.4132,5.4102,5.4192,5.4461,5.479,5.5149,5.5179,5.5179,5.5179,5.5179,5.5179,5.5179,5.5179,5.5179,5.5179,5.5179,5.5179,5.5179,5.5179,5.5179,5.5179,5.5179,5.5179,0.0,0.0,3.3544,3.7823,3.902,3.9589,0.0,0.0,4.253,0.0,4.317,4.329,4.329,4.329,4.3439,4.3947,4.4077,4.4287,4.4945,4.5035,4.5364,4.619,4.6279,4.6531,4.701,4.6621,4.613,4.5843,4.4885,4.4257,4.4077,4.3559,4.329,4.329,4.329,4.329,4.329,4.329,4.329,4.329,4.329,4.3888,4.5035,4.5214,4.5933,4.707,4.7249,4.7309,4.7309,4.7309,4.7309,4.7309,4.7309,4.8117,4.9299,4.9299,5.0092,5.1229,5.1229,5.1229,5.1229,5.1229,5.1229,5.1259,5.1409,5.1917,5.2576,5.3264,5.3922,5.4581,5.5059,5.5179,5.5179,5.5179,5.5179,5.5179,5.5179,5.5179,5.5179,5.5179,5.5179,5.5179,5.5179,5.5179,5.5119,5.497,5.4521,5.4102,5.3743,5.3384,5.3324,5.3653,5.3832,5.4132,5.464,5.485,5.494,5.494,5.5089,5.5179,5.5179,5.5179,5.5179,5.5179,5.5179,5.5179,5.5179,5.5179,5.5179,5.5179,5.5179,5.5179,0.0,2.8813,0.0,3.3964,3.6626,0.0,0.0,0.0,0.0,4.244,4.291,4.329,4.329,4.329,4.329,4.3349,4.3349,4.3589,4.4287,4.4377,4.4855,4.613,4.6279,4.6279,4.6339,4.6309,4.5741,4.4526,4.4347,4.4007,4.3379,4.3319,4.329,4.329,4.329,4.329,4.329,4.329,4.329,4.329,4.329,4.3648,4.4377,4.5005,4.5693,4.6369,4.704,4.7309,4.7309,4.7309,4.7309,4.7309,4.7309,4.8117,4.9299,4.9299,5.0092,5.1229,5.1229,5.1229,5.1229,5.1229,5.1229,5.1319,5.1947,5.2606,5.3264,5.3952,5.464,5.5149,5.5179,5.5179,5.5179,5.5179,5.5179,5.5179,5.5179,5.5179,5.5179,5.5179,5.5179,5.5179,5.5179,5.5179,5.497,5.4371,5.4221,5.3743,5.2486,5.2815,5.2965,5.2366,5.2845,5.3264,5.3294,5.3892,5.4251,5.4251,5.485,5.5179,5.5179,5.5179,5.5179,5.5179,5.5179,5.5179,5.5179,5.5179,5.5179,5.5179,5.5179,5.5179,0.0,0.0,0.0,3.3036,3.519,3.6926,3.8422,3.9978,4.1354,4.2231,4.259,4.2851,4.323,4.329,4.329,4.329,4.329,4.3379,4.3618,4.3648,4.3977,4.4915,4.5035,4.5214,4.5633,4.5274,4.4825,4.4347,4.3888,4.3529,4.329,4.329,4.329,4.329,4.329,4.329,4.329,4.329,4.329,4.329,4.329,4.3648,4.4347,4.5005,4.5663,4.6309,4.701,4.7309,4.7309,4.7309,4.7309,4.7309,4.7309,4.8117,4.9299,4.9299,5.0092,5.1229,5.1229,5.1229,5.1229,5.1229,5.1498,5.1887,5.2127,5.2965,5.3892,5.4132,5.467,5.5179,5.5179,5.5179,5.5179,5.5179,5.5179,5.5179,5.5179,5.5179,5.5179,5.5179,5.485,5.4551,5.4551,5.4192,5.3803,5.3593,5.3174,5.2755,5.2247,5.2037,5.2007,5.2187,5.2396,5.2725,5.3144,5.3414,5.3563,5.3563,5.4192,5.4551,5.4551,5.497,5.4999,5.4581,5.4551,5.476,5.5179,5.5179,5.5179,5.5179,5.5179,5.5179,2.6213,0.0,0.0,0.0,0.0,3.4562,3.7404,0.0,3.9768,4.1115,4.1931,4.253,4.291,4.314,4.329,4.329,4.329,4.329,4.329,4.329,4.3529,4.4227,4.4317,4.4496,4.4915,4.4556,4.4227,4.3977,4.3529,0.0,4.329,4.329,4.329,4.329,4.329,4.329,4.329,4.329,4.329,4.329,4.329,4.3529,4.3977,4.4885,4.5544,4.6022,4.692,4.7309,4.7309,4.7309,4.7309,4.7309,4.7309,4.8117,4.9299,4.9299,5.0092,5.1229,5.1229,5.1229,5.1229,5.1229,5.1648,5.2247,5.2456,5.3324,5.4251,5.4491,5.485,5.5179,5.5179,5.5179,5.5179,5.5179,5.5359,5.5538,5.5538,5.5538,5.5448,5.5239,5.5029,5.479,5.4581,5.4162,5.3773,5.3563,5.3144,5.2785,5.2546,5.2157,5.2037,5.2486,5.2546,5.2606,5.2845,5.3054,5.3084,5.2875,5.3713,5.4221,5.4221,5.485,5.497,5.4551,5.4311,5.4521,5.5179,5.473,5.464,5.485,5.485,5.497,0.0,0.0,0.0,0.0,0.0,0.0,3.6178,0.0,3.7644,3.908,4.0876,4.2261,4.2351,4.2851,4.323,4.326,4.329,4.329,4.329,4.329,4.3529,4.4197,4.4287,4.4287,4.4287,4.4287,4.4018,4.3349,4.329,4.329,4.329,4.329,4.329,4.329,4.329,4.329,4.329,4.329,4.329,4.329,4.329,4.329,4.3349,4.4706,4.5304,4.5364,4.6711,4.7309,4.7309,4.7309,4.7309,4.7309,4.7339,4.8117,4.9299,4.9329,5.0122,5.1229,5.1229,5.1229,5.1229,5.1229,5.1678,5.2336,5.2995,5.3683,5.4371,5.4999,5.5179,5.5179,5.5179,5.5179,5.5179,5.5209,5.5718,5.6218,5.6248,5.6248,5.6068,5.5359,5.5718,5.5927,5.5269,5.5149,5.491,5.4281,5.4192,5.3952,5.3264,5.3174,5.3174,5.3174,5.3174,5.2935,5.2276,5.2815,5.2905,5.2276,5.3473,5.4192,5.4192,5.482,5.5149,5.5089,5.4491,5.4461,5.5089,5.3803,5.3533,5.4251,5.4251,5.4581,2.4605,0.0,0.0,0.0,0.0,0.0,0.0,0.0,0.0,3.7315,3.8033,3.8876,4.1242,4.1803,4.2073,4.2551,4.303,4.329,4.329,4.329,4.3349,4.3529,4.3559,4.3559,4.3559,4.3559,4.3499,0.0,4.329,4.329,4.329,4.329,4.329,4.329,4.329,4.329,4.329,4.329,4.329,4.329,4.329,4.329,4.3349,4.4706,4.5304,4.5364,4.6711,4.7309,4.7309,4.7309,4.7309,4.7369,4.7818,4.8536,4.9359,4.9793,5.0511,5.1229,5.1229,5.1229,5.1229,5.1229,5.1977,5.2935,5.3114,5.3982,5.497,5.5149,5.5179,5.5179,5.5179,5.5179,5.5299,5.5777,5.6098,5.6286,5.6735,5.6825,5.6645,5.6017,5.5658,5.5239,5.4581,5.4072,5.3683,5.3503,5.3473,5.3384,5.3204,5.3174,5.3174,5.3174,5.3174,5.3114,5.2935,5.3084,5.3114,5.2935,5.3713,5.3982,5.3503,5.4132,5.4012,5.3054,5.2845,5.2845,5.3025,5.3114,5.3773,5.491,5.491,5.5029,2.5173,0.0,0.0,0.0,0.0,0.0,0.0,3.142,0.0,0.0,3.6746,3.7554,3.9738,4.0606,4.1175,4.1871,4.2491,4.303,4.326,4.329,4.329,4.329,4.329,4.329,4.329,4.329,4.329,4.329,4.329,4.329,4.329,4.329,4.329,4.329,4.329,4.329,4.329,4.329,4.329,4.329,4.329,4.329,4.3349,4.4706,4.5304,4.5364,4.6711,4.7309,4.7309,4.7309,4.7309,4.7369,4.8027,4.8686,4.9389,5.0002,5.0614,5.1229,5.1229,5.1229,5.1259,5.1528,5.2336,5.3234,5.3533,5.4341,5.5179,5.5179,5.5179,5.5179,5.5179,5.5388,5.5688,5.6077,5.6585,5.7094,5.7453,5.7752,5.7573,5.6406,5.5867,5.5388,5.473,5.4281,5.4012,5.4012,5.4012,5.4012,5.4012,5.4012,5.4012,5.4012,5.4012,5.3922,5.3623,5.3623,5.3503,5.3204,5.3832,5.4012,5.3623,5.3982,5.3832,5.3054,5.2486,5.2187,5.2187,5.2576,5.3473,5.479,5.5059,5.5179,2.6243,2.6363,0.0,0.0,0.0,0.0,3.1629,3.136,3.1061,0.0,3.5759,3.6836,3.7793,3.899,4.0068,4.0726,4.1542,4.2342,4.317,4.329,4.329,4.329,4.329,4.329,4.329,4.329,4.329,4.329,4.329,4.329,4.329,4.329,4.329,4.329,4.329,4.329,4.329,4.329,4.329,4.329,4.329,4.329,4.3349,4.4706,4.5304,4.5364,4.6711,4.7309,4.7309,4.7309,4.7309,4.7369,4.8117,4.879,4.9389,5.0062,5.0674,5.1229,5.1229,5.1229,5.1319,5.1977,5.2636,5.3324,5.4012,5.467,5.5179,5.5179,5.5179,5.5179,5.5179,5.5688,5.6248,5.6308,5.7214,5.8141,5.8201,5.865,5.8471,5.6735,5.6368,5.6047,5.5329,5.5179,5.5179,5.5179,5.5179,5.5179,5.5179,5.5179,5.5179,5.5179,5.5179,5.497,5.4371,5.4311,5.4072,5.3443,5.3982,5.4281,5.4221,5.4221,5.4132,5.3982,5.2875,5.2306,5.2306,5.2396,5.3025,5.4221,5.488,5.5179,2.7949,2.8098,2.8188,2.8184,0.0,0.0,2.741,2.7649,2.8663,0.0,3.0969,3.1958,3.4773,3.5908,3.6686,3.7345,3.8871,4.0786,4.2991,4.329,4.329,4.329,4.329,4.329,4.329,4.329,4.329,4.329,4.329,4.329,4.329,4.329,4.329,4.329,4.329,4.329,4.329,4.329,4.329,4.329,4.329,4.329,4.3349,4.4706,4.5304,4.5364,4.6711,4.7309,4.7309,4.7309,4.7309,4.7429,4.8626,4.9209,4.9449,5.0601,5.1109,5.1229,5.1229,5.1229,5.1319,5.1977,5.2636,5.3324,5.4012,5.467,5.5179,5.5179,5.5179,5.5179,5.5179,5.5688,5.6286,5.6795,5.7543,5.8261,5.88,5.859,5.8201,5.7812,5.7304,5.6555,5.5388,5.5179,5.5179,5.5179,5.5179,5.5179,5.5179,5.5179,5.5179,5.5179,5.5179,5.5149,5.4999,5.4999,5.494,5.482,5.491,5.476,5.4221,5.4221,5.3713,5.2606,5.2845,5.2995,5.2995,5.3533,5.3952,5.4221,5.488,5.5179,2.9265,2.9086,2.9175,2.9475,0.0,0.0,0.0,0.0,2.8154,3.0133,3.0043,3.04,3.3006,0.0,3.4053,3.5729,3.7345,3.899,4.0636,4.1743,0.0,4.2372,4.2641,4.2851,4.2851,4.315,4.329,4.329,4.329,4.329,4.329,4.329,4.329,4.329,4.329,4.329,4.329,4.329,4.329,4.329,4.329,4.3469,4.3828,4.4855,4.5484,4.5873,4.686,4.7309,4.7309,4.7309,4.7309,4.7429,4.879,4.9299,4.9479,5.075,5.1229,5.1229,5.1229,5.1439,5.1828,5.2486,5.3144,5.3832,5.4491,5.494,5.5179,5.5179,5.5179,5.5269,5.5598,5.6166,5.6795,5.7453,5.8112,5.871,5.9039,5.886,5.853,5.8171,5.7842,5.7184,5.5897,5.5688,5.5568,5.5239,5.5179,5.5179,5.5179,5.5179,5.5179,5.5179,5.5179,5.5179,5.5179,5.5179,5.5179,5.5179,5.5179,5.5029,5.47,5.47,5.4221,5.3234,5.3533,5.3683,5.3683,5.4042,5.4371,5.47,5.5029,5.5179,0.0,0.0,0.0,0.0,0.0,2.9232,0.0,0.0,0.0,0.0,0.0,0.0,0.0,0.0,0.0,0.0,0.0,0.0,0.0,0.0,0.0,0.0,0.0,4.2201,4.2201,4.2521,4.2901,4.326,4.2931,4.2901,4.326,4.329,4.329,4.329,4.329,4.329,4.329,4.329,4.329,4.329,4.329,4.3648,4.4347,4.5005,4.5663,4.6309,4.701,4.7309,4.7309,4.7309,4.7369,4.7608,4.885,4.9299,4.9479,5.075,5.1229,5.1229,5.1229,5.1648,5.2306,5.2965,5.3743,5.4491,5.5029,5.5179,5.5179,5.5179,5.5269,5.5508,5.6047,5.6735,5.7423,5.7992,5.862,5.9099,5.9099,5.9099,5.8949,5.8411,5.8321,5.7902,5.6585,5.6346,5.6137,5.5478,5.5388,5.5329,5.5209,5.5179,5.5179,5.5179,5.5179,5.5179,5.5179,5.5179,5.5179,5.5179,5.5179,5.5239,5.5388,5.5388,5.5119,5.461,5.4461,5.4401,5.4401,5.4401,5.467,5.5179,5.5179,5.5179,0.0,0.0,0.0,0.0,3.3035,0.0,0.0,0.0,0.0,0.0,0.0,0.0,0.0,0.0,0.0,0.0,0.0,0.0,0.0,0.0,0.0,0.0,0.0,4.1542,4.1542,4.1025,4.1444,4.317,4.1713,4.1504,4.32,4.329,4.329,4.329,4.329,4.329,4.329,4.329,4.329,4.329,4.329,4.3648,4.4347,4.5005,4.5663,4.6309,4.701,4.7309,4.7309,4.7309,4.7638,4.8237,4.903,4.9299,4.9479,5.075,5.1229,5.1229,5.1229,5.1648,5.2306,5.2965,5.4042,5.5089,5.5179,5.5179,5.5179,5.5179,5.5598,5.6128,5.6188,5.7094,5.8022,5.8112,5.862,5.9099,5.9099,5.9099,5.9069,5.9009,5.9009,5.856,5.7214,5.7004,5.6765,5.6166,5.6128,5.5837,5.5269,5.5179,5.5179,5.5179,5.5179,5.5179,5.5179,5.5179,5.5179,5.5179,5.5179,5.5448,5.6047,5.6128,5.6017,5.5957,5.5388,5.5089,5.5089,5.5089,5.5119,5.5179,5.5179,5.5179,0.0,0.0,0.0,0.0,0.0,0.0,2.9146,0.0,2.8304,0.0,0.0,0.0,0.0,0.0,0.0,0.0,0.0,0.0,0.0,0.0,0.0,0.0,0.0,0.0,3.9499,3.9768,4.0487,4.2073,4.1085,4.1085,4.2671,4.312,4.329,4.329,4.329,4.329,4.329,4.329,4.329,4.329,4.329,4.3828,4.4885,4.5155,4.5873,4.692,4.7189,4.7309,4.7309,4.7309,4.7698,4.8356,4.906,4.9494,4.9942,5.087,5.1229,5.1259,5.1648,5.2217,5.2935,5.4012,5.473,5.5179,5.5179,5.5179,5.5179,5.5179,5.5658,5.6308,5.6615,5.7423,5.8231,5.859,5.8919,5.9099,5.9099,5.9099,5.9099,5.9099,5.9099,5.8919,5.8351,5.7932,5.7334,5.6368,5.6466,5.6346,5.5329,5.5538,5.5598,5.5239,5.5179,5.5179,5.5179,5.5179,5.5179,5.5179,5.5538,5.6047,5.6675,5.7094,5.7304,5.7304,5.7034,5.6705,5.6286,5.6286,5.6286,5.6286,5.5538,5.5179,3.6926,0.0,0.0,0.0,0.0,0.0,0.0,0.0,0.0,0.0,0.0,0.0,0.0,0.0,0.0,0.0,0.0,0.0,0.0,0.0,0.0,0.0,0.0,0.0,0.0,3.8362,3.911,4.0965,0.0,4.0217,4.2291,4.2821,4.315,4.329,4.329,4.329,4.329,4.329,4.329,4.329,4.3469,4.4197,4.5304,4.5484,4.6202,4.7309,4.7309,4.7309,4.7309,4.7309,4.7788,4.8596,4.912,4.9763,5.0524,5.1003,5.1229,5.1319,5.1977,5.2755,5.3653,5.482,5.5179,5.5179,5.5179,5.5179,5.5239,5.5418,5.5927,5.6585,5.7214,5.7872,5.853,5.8979,5.9099,5.9099,5.9099,5.9099,5.9099,5.9099,5.9099,5.9099,5.9099,5.871,5.8022,5.6885,5.7094,5.6974,5.5867,5.6137,5.6166,5.5538,5.5448,5.5388,5.5209,5.5179,5.5179,5.5179,5.5957,5.6615,5.7064,5.7752,5.8112,5.8112,5.7932,5.7603,5.7094,5.7094,5.7094,5.7064,5.5957,5.5448,0.0,0.0,0.0,3.4801,0.0,0.0,0.0,0.0,3.1032,0.0,0.0,0.0,0.0,0.0,0.0,0.0,0.0,0.0,0.0,0.0,0.0,0.0,0.0,0.0,0.0,3.6716,3.6956,0.0,3.8063,3.8337,4.2201,4.241,4.2671,4.326,4.329,4.329,4.329,4.329,4.329,4.329,4.3947,4.4646,4.5304,4.5992,4.6651,4.7309,4.7309,4.7309,4.7309,4.7309,4.8057,4.9269,4.9299,5.0062,5.1199,5.1199,5.1229,5.1319,5.1977,5.3054,5.4281,5.497,5.5179,5.5179,5.5179,5.5179,5.5329,5.5957,5.6585,5.7214,5.7902,5.859,5.9069,5.9099,5.9099,5.9099,5.9099,5.9099,5.9099,5.9099,5.9099,5.9099,5.9099,5.9099,5.883,5.8171,5.8082,5.7842,5.7124,5.7064,5.6825,5.6248,5.6188,5.5948,5.5239,5.5179,5.5179,5.5179,5.6376,5.7064,5.7094,5.7752,5.8112,5.8112,5.7453,5.7124,5.7094,5.7094,5.7094,5.7064,5.6436,5.6188,0.0,0.0,4.1713,3.7734,0.0,0.0,0.0,0.0,0.0,0.0,0.0,0.0,0.0,0.0,0.0,0.0,0.0,0.0,0.0,0.0,0.0,0.0,0.0,0.0,0.0,0.0,0.0,0.0,3.7375,0.0,4.0905,4.1931,4.25,4.2671,4.312,4.329,4.329,4.329,4.329,4.329,4.3988,4.4646,4.5304,4.5992,4.6681,4.7309,4.7309,4.7309,4.7339,4.7788,4.8476,4.9359,4.9733,5.0451,5.1229,5.1229,5.1498,5.2037,5.3144,5.4102,5.491,5.5119,5.5179,5.5179,5.5179,5.5508,5.5897,5.6158,5.6944,5.7812,5.8052,5.862,5.9099,5.9099,5.9099,5.9099,5.9099,5.9099,5.9099,5.9099,5.9099,5.9099,5.9099,5.9099,5.889,5.8231,5.8501,5.8351,5.7244,5.7483,5.7513,5.6855,5.6795,5.6705,5.6466,5.6077,5.5658,5.5209,5.6406,5.6915,5.6496,5.7543,5.7902,5.7453,5.7663,5.7782,5.7782,5.8201,5.8411,5.8411,5.7752,5.7004,4.2731,4.318,0.0,3.9858,3.8482,0.0,3.3155,0.0,0.0,0.0,0.0,0.0,0.0,0.0,0.0,0.0,0.0,0.0,0.0,0.0,0.0,0.0,0.0,0.0,0.0,0.0,3.4502,3.6357,3.6207,0.0,0.0,4.1332,4.2141,4.2381,4.3,4.329,4.329,4.329,4.3409,4.3648,4.4347,4.5005,4.5693,4.6352,4.689,4.7309,4.7309,4.7429,4.7698,4.8117,4.8805,4.9643,5.0016,5.0584,5.1229,5.1229,5.1798,5.2695,5.3832,5.464,5.5179,5.5179,5.5179,5.5239,5.5478,5.5837,5.6308,5.6735,5.7483,5.8171,5.8411,5.88,5.9099,5.9099,5.9099,5.9099,5.9099,5.9099,5.9099,5.9099,5.9099,5.9099,5.9099,5.9099,5.8949,5.853,5.883,5.88,5.7932,5.8201,5.8201,5.7543,5.7453,5.7363,5.7124,5.6526,5.6038,5.5568,5.6316,5.6585,5.6248,5.6974,5.7214,5.6765,5.7423,5.7752,5.7752,5.865,5.9099,5.9099,5.868,5.7902]}]]